Wetterdaten: Montag, 10.10.2016
Datum Zeit Temp. A. Temp. A. max Feuchte A. Luftdruck Regen Wind Richtung Richtung Sonnenschein ET UV Solar Taupunkt Windben
10.10.2016 00:00 1,9 C 1,9 C 95 % 1023,8 hPa 0,0 mm 0,3 km/h (0 Bft) SO 142 0 min 0,000 mm 0,0 UV-I 0 W/m 1,2 C 1,6 km/h (1 Bft)
10.10.2016 00:01 1,9 C 1,9 C 95 % 1023,9 hPa 0,0 mm 0,5 km/h (0 Bft) SO 142 0 min 0,000 mm 0,0 UV-I 0 W/m 1,2 C 1,6 km/h (1 Bft)
10.10.2016 00:02 1,9 C 1,9 C 95 % 1023,9 hPa 0,0 mm 0,7 km/h (0 Bft) SO 142 0 min 0,000 mm 0,0 UV-I 0 W/m 1,2 C 1,6 km/h (1 Bft)
10.10.2016 00:03 2,0 C 2,0 C 95 % 1023,9 hPa 0,0 mm 0,0 km/h (0 Bft) SO 142 0 min 0,000 mm 0,0 UV-I 0 W/m 1,3 C 0,0 km/h (0 Bft)
10.10.2016 00:04 1,9 C 2,0 C 95 % 1023,9 hPa 0,0 mm 0,0 km/h (0 Bft) SO 142 0 min 0,000 mm 0,0 UV-I 0 W/m 1,2 C 0,0 km/h (0 Bft)
10.10.2016 00:05 1,9 C 1,9 C 95 % 1023,9 hPa 0,0 mm 0,0 km/h (0 Bft) SO 142 0 min 0,000 mm 0,0 UV-I 0 W/m 1,2 C 0,0 km/h (0 Bft)
10.10.2016 00:06 1,8 C 1,9 C 95 % 1023,9 hPa 0,0 mm 0,0 km/h (0 Bft) SO 142 0 min 0,000 mm 0,0 UV-I 0 W/m 1,1 C 0,0 km/h (0 Bft)
10.10.2016 00:07 1,8 C 1,9 C 95 % 1023,9 hPa 0,0 mm 0,0 km/h (0 Bft) SO 142 0 min 0,000 mm 0,0 UV-I 0 W/m 1,1 C 0,0 km/h (0 Bft)
10.10.2016 00:08 1,8 C 1,8 C 95 % 1023,9 hPa 0,0 mm 0,0 km/h (0 Bft) SO 142 0 min 0,000 mm 0,0 UV-I 0 W/m 1,1 C 0,0 km/h (0 Bft)
10.10.2016 00:09 1,8 C 1,8 C 95 % 1023,9 hPa 0,0 mm 0,0 km/h (0 Bft) SO 142 0 min 0,000 mm 0,0 UV-I 0 W/m 1,1 C 0,0 km/h (0 Bft)
10.10.2016 00:10 1,8 C 1,8 C 95 % 1023,9 hPa 0,0 mm 0,0 km/h (0 Bft) SO 142 0 min 0,000 mm 0,0 UV-I 0 W/m 1,1 C 0,0 km/h (0 Bft)
10.10.2016 00:11 1,7 C 1,8 C 95 % 1023,9 hPa 0,0 mm 0,0 km/h (0 Bft) SO 142 0 min 0,000 mm 0,0 UV-I 0 W/m 1,0 C 0,0 km/h (0 Bft)
10.10.2016 00:12 1,7 C 1,8 C 95 % 1023,8 hPa 0,0 mm 0,0 km/h (0 Bft) SO 142 0 min 0,000 mm 0,0 UV-I 0 W/m 1,0 C 0,0 km/h (0 Bft)
10.10.2016 00:13 1,7 C 1,7 C 95 % 1023,8 hPa 0,0 mm 0,0 km/h (0 Bft) SO 142 0 min 0,000 mm 0,0 UV-I 0 W/m 1,0 C 0,0 km/h (0 Bft)
10.10.2016 00:14 1,6 C 1,7 C 95 % 1023,9 hPa 0,0 mm 0,0 km/h (0 Bft) SO 142 0 min 0,000 mm 0,0 UV-I 0 W/m 0,9 C 0,0 km/h (0 Bft)
10.10.2016 00:15 1,6 C 1,7 C 95 % 1023,8 hPa 0,0 mm 0,0 km/h (0 Bft) SO 142 0 min 0,000 mm 0,0 UV-I 0 W/m 0,9 C 0,0 km/h (0 Bft)
10.10.2016 00:16 1,5 C 1,6 C 95 % 1023,8 hPa 0,0 mm 0,0 km/h (0 Bft) SO 142 0 min 0,000 mm 0,0 UV-I 0 W/m 0,8 C 0,0 km/h (0 Bft)
10.10.2016 00:17 1,4 C 1,5 C 94 % 1023,8 hPa 0,0 mm 0,0 km/h (0 Bft) SO 142 0 min 0,000 mm 0,0 UV-I 0 W/m 0,5 C 0,0 km/h (0 Bft)
10.10.2016 00:18 1,4 C 1,4 C 94 % 1023,8 hPa 0,0 mm 0,0 km/h (0 Bft) SO 142 0 min 0,000 mm 0,0 UV-I 0 W/m 0,5 C 0,0 km/h (0 Bft)
10.10.2016 00:19 1,4 C 1,4 C 94 % 1023,8 hPa 0,0 mm 0,0 km/h (0 Bft) SO 142 0 min 0,000 mm 0,0 UV-I 0 W/m 0,5 C 0,0 km/h (0 Bft)
10.10.2016 00:20 1,4 C 1,4 C 95 % 1023,8 hPa 0,0 mm 0,0 km/h (0 Bft) SO 142 0 min 0,000 mm 0,0 UV-I 0 W/m 0,7 C 0,0 km/h (0 Bft)
10.10.2016 00:21 1,4 C 1,4 C 95 % 1023,8 hPa 0,0 mm 0,0 km/h (0 Bft) SO 142 0 min 0,000 mm 0,0 UV-I 0 W/m 0,7 C 0,0 km/h (0 Bft)
10.10.2016 00:22 1,4 C 1,4 C 95 % 1023,7 hPa 0,0 mm 0,0 km/h (0 Bft) SO 142 0 min 0,000 mm 0,0 UV-I 0 W/m 0,7 C 0,0 km/h (0 Bft)
10.10.2016 00:23 1,4 C 1,4 C 95 % 1023,8 hPa 0,0 mm 0,0 km/h (0 Bft) SO 142 0 min 0,000 mm 0,0 UV-I 0 W/m 0,7 C 0,0 km/h (0 Bft)
10.10.2016 00:24 1,4 C 1,4 C 95 % 1023,8 hPa 0,0 mm 0,0 km/h (0 Bft) SO 142 0 min 0,000 mm 0,0 UV-I 0 W/m 0,7 C 0,0 km/h (0 Bft)
10.10.2016 00:25 1,3 C 1,4 C 95 % 1023,8 hPa 0,0 mm 0,0 km/h (0 Bft) SO 142 0 min 0,000 mm 0,0 UV-I 0 W/m 0,6 C 0,0 km/h (0 Bft)
10.10.2016 00:26 1,3 C 1,3 C 95 % 1023,8 hPa 0,0 mm 0,0 km/h (0 Bft) SO 142 0 min 0,000 mm 0,0 UV-I 0 W/m 0,6 C 0,0 km/h (0 Bft)
10.10.2016 00:27 1,2 C 1,3 C 94 % 1023,9 hPa 0,0 mm 0,0 km/h (0 Bft) SO 142 0 min 0,000 mm 0,0 UV-I 0 W/m 0,3 C 0,0 km/h (0 Bft)
10.10.2016 00:28 1,2 C 1,2 C 94 % 1023,7 hPa 0,0 mm 0,0 km/h (0 Bft) SO 142 0 min 0,000 mm 0,0 UV-I 0 W/m 0,3 C 0,0 km/h (0 Bft)
10.10.2016 00:29 1,2 C 1,2 C 95 % 1023,7 hPa 0,0 mm 0,0 km/h (0 Bft) SO 142 0 min 0,000 mm 0,0 UV-I 0 W/m 0,5 C 0,0 km/h (0 Bft)
10.10.2016 00:30 1,2 C 1,2 C 95 % 1023,7 hPa 0,0 mm 0,0 km/h (0 Bft) SO 142 0 min 0,000 mm 0,0 UV-I 0 W/m 0,5 C 0,0 km/h (0 Bft)
10.10.2016 00:31 1,2 C 1,2 C 95 % 1023,7 hPa 0,0 mm 0,0 km/h (0 Bft) SO 142 0 min 0,000 mm 0,0 UV-I 0 W/m 0,5 C 0,0 km/h (0 Bft)
10.10.2016 00:32 1,2 C 1,2 C 95 % 1023,7 hPa 0,0 mm 0,0 km/h (0 Bft) SO 142 0 min 0,000 mm 0,0 UV-I 0 W/m 0,5 C 0,0 km/h (0 Bft)
10.10.2016 00:33 1,2 C 1,3 C 95 % 1023,7 hPa 0,0 mm 0,8 km/h (0 Bft) SO 142 0 min 0,000 mm 0,0 UV-I 0 W/m 0,5 C 1,6 km/h (1 Bft)
10.10.2016 00:34 1,3 C 1,3 C 95 % 1023,7 hPa 0,0 mm 1,9 km/h (1 Bft) SO 142 0 min 0,000 mm 0,0 UV-I 0 W/m 0,6 C 3,2 km/h (1 Bft)
10.10.2016 00:35 1,4 C 1,4 C 95 % 1023,7 hPa 0,0 mm 1,7 km/h (1 Bft) SO 142 0 min 0,000 mm 0,0 UV-I 0 W/m 0,7 C 3,2 km/h (1 Bft)
10.10.2016 00:36 1,4 C 1,4 C 95 % 1023,6 hPa 0,0 mm 0,1 km/h (0 Bft) SO 142 0 min 0,000 mm 0,0 UV-I 0 W/m 0,7 C 1,6 km/h (1 Bft)
10.10.2016 00:37 1,6 C 1,6 C 96 % 1023,6 hPa 0,0 mm 0,0 km/h (0 Bft) SO 142 0 min 0,000 mm 0,0 UV-I 0 W/m 1,0 C 0,0 km/h (0 Bft)
10.10.2016 00:38 1,7 C 1,7 C 96 % 1023,7 hPa 0,0 mm 0,0 km/h (0 Bft) SO 142 0 min 0,000 mm 0,0 UV-I 0 W/m 1,1 C 0,0 km/h (0 Bft)
10.10.2016 00:39 1,6 C 1,7 C 96 % 1023,6 hPa 0,0 mm 0,0 km/h (0 Bft) SO 142 0 min 0,000 mm 0,0 UV-I 0 W/m 1,0 C 0,0 km/h (0 Bft)
10.10.2016 00:40 1,6 C 1,6 C 95 % 1023,6 hPa 0,0 mm 0,0 km/h (0 Bft) SO 142 0 min 0,000 mm 0,0 UV-I 0 W/m 0,9 C 0,0 km/h (0 Bft)
10.10.2016 00:41 1,6 C 1,6 C 95 % 1023,6 hPa 0,0 mm 0,0 km/h (0 Bft) SO 142 0 min 0,000 mm 0,0 UV-I 0 W/m 0,9 C 0,0 km/h (0 Bft)
10.10.2016 00:42 1,6 C 1,6 C 95 % 1023,6 hPa 0,0 mm 0,0 km/h (0 Bft) SO 142 0 min 0,000 mm 0,0 UV-I 0 W/m 0,9 C 0,0 km/h (0 Bft)
10.10.2016 00:43 1,6 C 1,6 C 95 % 1023,6 hPa 0,0 mm 0,1 km/h (0 Bft) SO 142 0 min 0,000 mm 0,0 UV-I 0 W/m 0,9 C 1,6 km/h (1 Bft)
10.10.2016 00:44 1,5 C 1,6 C 95 % 1023,6 hPa 0,0 mm 0,0 km/h (0 Bft) SO 142 0 min 0,000 mm 0,0 UV-I 0 W/m 0,8 C 0,0 km/h (0 Bft)
10.10.2016 00:45 1,4 C 1,5 C 95 % 1023,6 hPa 0,0 mm 0,0 km/h (0 Bft) SO 142 0 min 0,000 mm 0,0 UV-I 0 W/m 0,7 C 0,0 km/h (0 Bft)
10.10.2016 00:46 1,4 C 1,4 C 95 % 1023,5 hPa 0,0 mm 0,0 km/h (0 Bft) SO 142 0 min 0,000 mm 0,0 UV-I 0 W/m 0,7 C 0,0 km/h (0 Bft)
10.10.2016 00:47 1,3 C 1,4 C 95 % 1023,6 hPa 0,0 mm 0,0 km/h (0 Bft) SO 142 0 min 0,000 mm 0,0 UV-I 0 W/m 0,6 C 0,0 km/h (0 Bft)
10.10.2016 00:48 1,3 C 1,3 C 95 % 1023,5 hPa 0,0 mm 0,0 km/h (0 Bft) SO 142 0 min 0,000 mm 0,0 UV-I 0 W/m 0,6 C 0,0 km/h (0 Bft)
10.10.2016 00:49 1,3 C 1,3 C 95 % 1023,5 hPa 0,0 mm 0,0 km/h (0 Bft) SO 142 0 min 0,000 mm 0,0 UV-I 0 W/m 0,6 C 0,0 km/h (0 Bft)
10.10.2016 00:50 1,2 C 1,3 C 95 % 1023,5 hPa 0,0 mm 0,0 km/h (0 Bft) SO 142 0 min 0,000 mm 0,0 UV-I 0 W/m 0,5 C 0,0 km/h (0 Bft)
10.10.2016 00:51 1,2 C 1,2 C 95 % 1023,5 hPa 0,0 mm 0,0 km/h (0 Bft) SO 142 0 min 0,000 mm 0,0 UV-I 0 W/m 0,5 C 0,0 km/h (0 Bft)
10.10.2016 00:52 1,1 C 1,2 C 95 % 1023,5 hPa 0,0 mm 0,0 km/h (0 Bft) SO 142 0 min 0,000 mm 0,0 UV-I 0 W/m 0,4 C 0,0 km/h (0 Bft)
10.10.2016 00:53 1,1 C 1,1 C 95 % 1023,6 hPa 0,0 mm 0,0 km/h (0 Bft) SO 142 0 min 0,000 mm 0,0 UV-I 0 W/m 0,4 C 0,0 km/h (0 Bft)
10.10.2016 00:54 1,0 C 1,1 C 95 % 1023,6 hPa 0,0 mm 0,0 km/h (0 Bft) SO 142 0 min 0,000 mm 0,0 UV-I 0 W/m 0,3 C 0,0 km/h (0 Bft)
10.10.2016 00:55 1,0 C 1,0 C 95 % 1023,5 hPa 0,0 mm 0,0 km/h (0 Bft) SO 142 0 min 0,000 mm 0,0 UV-I 0 W/m 0,3 C 0,0 km/h (0 Bft)
10.10.2016 00:56 1,0 C 1,0 C 95 % 1023,5 hPa 0,0 mm 0,0 km/h (0 Bft) SO 142 0 min 0,000 mm 0,0 UV-I 0 W/m 0,3 C 0,0 km/h (0 Bft)
10.10.2016 00:57 1,0 C 1,0 C 95 % 1023,6 hPa 0,0 mm 0,0 km/h (0 Bft) SO 142 0 min 0,000 mm 0,0 UV-I 0 W/m 0,3 C 0,0 km/h (0 Bft)
10.10.2016 00:58 1,0 C 1,0 C 95 % 1023,6 hPa 0,0 mm 0,0 km/h (0 Bft) SO 142 0 min 0,000 mm 0,0 UV-I 0 W/m 0,3 C 0,0 km/h (0 Bft)
10.10.2016 00:59 1,0 C 1,0 C 95 % 1023,6 hPa 0,0 mm 0,0 km/h (0 Bft) SO 142 0 min 0,000 mm 0,0 UV-I 0 W/m 0,3 C 0,0 km/h (0 Bft)
10.10.2016 01:00 0,9 C 1,0 C 95 % 1023,6 hPa 0,0 mm 0,0 km/h (0 Bft) SO 142 0 min 0,000 mm 0,0 UV-I 0 W/m 0,2 C 0,0 km/h (0 Bft)
10.10.2016 01:01 0,9 C 1,0 C 95 % 1023,6 hPa 0,0 mm 0,0 km/h (0 Bft) SO 142 0 min 0,000 mm 0,0 UV-I 0 W/m 0,2 C 0,0 km/h (0 Bft)
10.10.2016 01:02 1,0 C 1,0 C 95 % 1023,6 hPa 0,0 mm 0,0 km/h (0 Bft) SO 142 0 min 0,000 mm 0,0 UV-I 0 W/m 0,3 C 0,0 km/h (0 Bft)
10.10.2016 01:03 1,0 C 1,0 C 95 % 1023,6 hPa 0,0 mm 0,0 km/h (0 Bft) SO 142 0 min 0,000 mm 0,0 UV-I 0 W/m 0,3 C 0,0 km/h (0 Bft)
10.10.2016 01:04 1,1 C 1,1 C 95 % 1023,6 hPa 0,0 mm 0,0 km/h (0 Bft) SO 142 0 min 0,000 mm 0,0 UV-I 0 W/m 0,4 C 0,0 km/h (0 Bft)
10.10.2016 01:05 1,1 C 1,1 C 95 % 1023,6 hPa 0,0 mm 0,0 km/h (0 Bft) SO 142 0 min 0,000 mm 0,0 UV-I 0 W/m 0,4 C 0,0 km/h (0 Bft)
10.10.2016 01:06 1,1 C 1,1 C 95 % 1023,6 hPa 0,0 mm 0,0 km/h (0 Bft) SO 142 0 min 0,000 mm 0,0 UV-I 0 W/m 0,4 C 0,0 km/h (0 Bft)
10.10.2016 01:07 1,2 C 1,2 C 95 % 1023,6 hPa 0,0 mm 0,0 km/h (0 Bft) SO 142 0 min 0,000 mm 0,0 UV-I 0 W/m 0,5 C 0,0 km/h (0 Bft)
10.10.2016 01:08 1,1 C 1,2 C 95 % 1023,6 hPa 0,0 mm 0,0 km/h (0 Bft) SO 142 0 min 0,000 mm 0,0 UV-I 0 W/m 0,4 C 0,0 km/h (0 Bft)
10.10.2016 01:09 1,1 C 1,2 C 95 % 1023,6 hPa 0,0 mm 0,0 km/h (0 Bft) SO 142 0 min 0,000 mm 0,0 UV-I 0 W/m 0,4 C 0,0 km/h (0 Bft)
10.10.2016 01:10 1,2 C 1,2 C 96 % 1023,7 hPa 0,0 mm 0,0 km/h (0 Bft) SO 142 0 min 0,000 mm 0,0 UV-I 0 W/m 0,6 C 0,0 km/h (0 Bft)
10.10.2016 01:11 1,2 C 1,2 C 96 % 1023,7 hPa 0,0 mm 0,0 km/h (0 Bft) SO 142 0 min 0,000 mm 0,0 UV-I 0 W/m 0,6 C 0,0 km/h (0 Bft)
10.10.2016 01:12 1,1 C 1,2 C 95 % 1023,7 hPa 0,0 mm 0,0 km/h (0 Bft) SO 142 0 min 0,000 mm 0,0 UV-I 0 W/m 0,4 C 0,0 km/h (0 Bft)
10.10.2016 01:13 1,1 C 1,1 C 95 % 1023,8 hPa 0,0 mm 0,0 km/h (0 Bft) SO 142 0 min 0,000 mm 0,0 UV-I 0 W/m 0,4 C 0,0 km/h (0 Bft)
10.10.2016 01:14 1,0 C 1,1 C 95 % 1023,8 hPa 0,0 mm 0,0 km/h (0 Bft) SO 142 0 min 0,000 mm 0,0 UV-I 0 W/m 0,3 C 0,0 km/h (0 Bft)
10.10.2016 01:15 1,0 C 1,0 C 95 % 1023,7 hPa 0,0 mm 0,0 km/h (0 Bft) SO 142 0 min 0,000 mm 0,0 UV-I 0 W/m 0,3 C 0,0 km/h (0 Bft)
10.10.2016 01:16 1,0 C 1,0 C 95 % 1023,7 hPa 0,0 mm 0,0 km/h (0 Bft) SO 142 0 min 0,000 mm 0,0 UV-I 0 W/m 0,3 C 0,0 km/h (0 Bft)
10.10.2016 01:17 1,0 C 1,0 C 95 % 1023,8 hPa 0,0 mm 0,0 km/h (0 Bft) SO 142 0 min 0,000 mm 0,0 UV-I 0 W/m 0,3 C 0,0 km/h (0 Bft)
10.10.2016 01:18 1,0 C 1,0 C 95 % 1023,7 hPa 0,0 mm 0,0 km/h (0 Bft) SO 142 0 min 0,000 mm 0,0 UV-I 0 W/m 0,3 C 0,0 km/h (0 Bft)
10.10.2016 01:19 1,1 C 1,1 C 95 % 1023,7 hPa 0,0 mm 0,0 km/h (0 Bft) SO 142 0 min 0,000 mm 0,0 UV-I 0 W/m 0,4 C 0,0 km/h (0 Bft)
10.10.2016 01:20 1,1 C 1,1 C 95 % 1023,7 hPa 0,0 mm 0,0 km/h (0 Bft) SO 142 0 min 0,000 mm 0,0 UV-I 0 W/m 0,4 C 0,0 km/h (0 Bft)
10.10.2016 01:21 1,1 C 1,1 C 95 % 1023,7 hPa 0,0 mm 0,0 km/h (0 Bft) SO 142 0 min 0,000 mm 0,0 UV-I 0 W/m 0,4 C 0,0 km/h (0 Bft)
10.10.2016 01:22 1,1 C 1,1 C 95 % 1023,8 hPa 0,0 mm 0,0 km/h (0 Bft) SO 142 0 min 0,000 mm 0,0 UV-I 0 W/m 0,4 C 0,0 km/h (0 Bft)
10.10.2016 01:23 1,0 C 1,1 C 95 % 1023,8 hPa 0,0 mm 0,0 km/h (0 Bft) SO 142 0 min 0,000 mm 0,0 UV-I 0 W/m 0,3 C 0,0 km/h (0 Bft)
10.10.2016 01:24 1,0 C 1,0 C 95 % 1023,8 hPa 0,0 mm 0,0 km/h (0 Bft) SO 142 0 min 0,000 mm 0,0 UV-I 0 W/m 0,3 C 0,0 km/h (0 Bft)
10.10.2016 01:25 1,0 C 1,1 C 95 % 1023,8 hPa 0,0 mm 0,0 km/h (0 Bft) SO 142 0 min 0,000 mm 0,0 UV-I 0 W/m 0,3 C 0,0 km/h (0 Bft)
10.10.2016 01:26 1,1 C 1,1 C 95 % 1023,8 hPa 0,0 mm 0,0 km/h (0 Bft) SO 142 0 min 0,000 mm 0,0 UV-I 0 W/m 0,4 C 0,0 km/h (0 Bft)
10.10.2016 01:27 1,1 C 1,1 C 95 % 1023,8 hPa 0,0 mm 0,0 km/h (0 Bft) SO 142 0 min 0,000 mm 0,0 UV-I 0 W/m 0,4 C 0,0 km/h (0 Bft)
10.10.2016 01:28 1,1 C 1,1 C 95 % 1023,8 hPa 0,0 mm 0,0 km/h (0 Bft) SO 142 0 min 0,000 mm 0,0 UV-I 0 W/m 0,4 C 0,0 km/h (0 Bft)
10.10.2016 01:29 1,1 C 1,1 C 96 % 1023,8 hPa 0,0 mm 0,0 km/h (0 Bft) SO 142 0 min 0,000 mm 0,0 UV-I 0 W/m 0,5 C 0,0 km/h (0 Bft)
10.10.2016 01:30 1,2 C 1,2 C 96 % 1023,9 hPa 0,0 mm 0,0 km/h (0 Bft) SO 142 0 min 0,000 mm 0,0 UV-I 0 W/m 0,6 C 0,0 km/h (0 Bft)
10.10.2016 01:31 1,2 C 1,2 C 96 % 1023,9 hPa 0,0 mm 0,0 km/h (0 Bft) SO 142 0 min 0,000 mm 0,0 UV-I 0 W/m 0,6 C 0,0 km/h (0 Bft)
10.10.2016 01:32 1,2 C 1,2 C 96 % 1023,8 hPa 0,0 mm 0,0 km/h (0 Bft) SO 142 0 min 0,000 mm 0,0 UV-I 0 W/m 0,6 C 0,0 km/h (0 Bft)
10.10.2016 01:33 1,2 C 1,2 C 96 % 1023,8 hPa 0,0 mm 0,0 km/h (0 Bft) SO 142 0 min 0,000 mm 0,0 UV-I 0 W/m 0,6 C 0,0 km/h (0 Bft)
10.10.2016 01:34 1,2 C 1,2 C 96 % 1023,8 hPa 0,0 mm 0,0 km/h (0 Bft) SO 142 0 min 0,000 mm 0,0 UV-I 0 W/m 0,6 C 0,0 km/h (0 Bft)
10.10.2016 01:35 1,3 C 1,3 C 96 % 1023,8 hPa 0,0 mm 1,4 km/h (1 Bft) SO 142 0 min 0,000 mm 0,0 UV-I 0 W/m 0,7 C 1,6 km/h (1 Bft)
10.10.2016 01:36 1,3 C 1,3 C 96 % 1023,8 hPa 0,0 mm 1,9 km/h (1 Bft) SO 142 0 min 0,000 mm 0,0 UV-I 0 W/m 0,7 C 3,2 km/h (1 Bft)
10.10.2016 01:37 1,3 C 1,3 C 96 % 1023,8 hPa 0,0 mm 0,3 km/h (0 Bft) SO 142 0 min 0,000 mm 0,0 UV-I 0 W/m 0,7 C 1,6 km/h (1 Bft)
10.10.2016 01:38 1,3 C 1,3 C 96 % 1023,7 hPa 0,0 mm 0,1 km/h (0 Bft) SO 142 0 min 0,000 mm 0,0 UV-I 0 W/m 0,7 C 1,6 km/h (1 Bft)
10.10.2016 01:39 1,3 C 1,3 C 96 % 1023,8 hPa 0,0 mm 0,0 km/h (0 Bft) SO 142 0 min 0,000 mm 0,0 UV-I 0 W/m 0,7 C 0,0 km/h (0 Bft)
10.10.2016 01:40 1,3 C 1,3 C 96 % 1023,8 hPa 0,0 mm 0,0 km/h (0 Bft) SO 142 0 min 0,000 mm 0,0 UV-I 0 W/m 0,7 C 0,0 km/h (0 Bft)
10.10.2016 01:41 1,3 C 1,3 C 96 % 1023,8 hPa 0,0 mm 0,0 km/h (0 Bft) SO 142 0 min 0,000 mm 0,0 UV-I 0 W/m 0,7 C 0,0 km/h (0 Bft)
10.10.2016 01:42 1,3 C 1,3 C 96 % 1023,8 hPa 0,0 mm 0,0 km/h (0 Bft) SO 142 0 min 0,000 mm 0,0 UV-I 0 W/m 0,7 C 0,0 km/h (0 Bft)
10.10.2016 01:43 1,3 C 1,3 C 96 % 1023,8 hPa 0,0 mm 0,0 km/h (0 Bft) SO 142 0 min 0,000 mm 0,0 UV-I 0 W/m 0,7 C 0,0 km/h (0 Bft)
10.10.2016 01:44 1,3 C 1,3 C 96 % 1023,8 hPa 0,0 mm 0,0 km/h (0 Bft) SO 142 0 min 0,000 mm 0,0 UV-I 0 W/m 0,7 C 0,0 km/h (0 Bft)
10.10.2016 01:45 1,3 C 1,3 C 96 % 1023,8 hPa 0,0 mm 0,0 km/h (0 Bft) SO 142 0 min 0,000 mm 0,0 UV-I 0 W/m 0,7 C 0,0 km/h (0 Bft)
10.10.2016 01:46 1,3 C 1,3 C 96 % 1023,8 hPa 0,0 mm 0,0 km/h (0 Bft) SO 142 0 min 0,000 mm 0,0 UV-I 0 W/m 0,7 C 0,0 km/h (0 Bft)
10.10.2016 01:47 1,2 C 1,3 C 96 % 1023,8 hPa 0,0 mm 0,0 km/h (0 Bft) SO 142 0 min 0,000 mm 0,0 UV-I 0 W/m 0,6 C 0,0 km/h (0 Bft)
10.10.2016 01:48 1,2 C 1,2 C 96 % 1023,8 hPa 0,0 mm 0,0 km/h (0 Bft) SO 142 0 min 0,000 mm 0,0 UV-I 0 W/m 0,6 C 0,0 km/h (0 Bft)
10.10.2016 01:49 1,1 C 1,2 C 95 % 1023,8 hPa 0,0 mm 0,0 km/h (0 Bft) SO 142 0 min 0,000 mm 0,0 UV-I 0 W/m 0,4 C 0,0 km/h (0 Bft)
10.10.2016 01:50 1,0 C 1,1 C 95 % 1023,8 hPa 0,0 mm 0,0 km/h (0 Bft) SO 142 0 min 0,000 mm 0,0 UV-I 0 W/m 0,3 C 0,0 km/h (0 Bft)
10.10.2016 01:51 1,0 C 1,1 C 95 % 1023,8 hPa 0,0 mm 0,0 km/h (0 Bft) SO 142 0 min 0,000 mm 0,0 UV-I 0 W/m 0,3 C 0,0 km/h (0 Bft)
10.10.2016 01:52 1,0 C 1,0 C 95 % 1023,8 hPa 0,0 mm 0,0 km/h (0 Bft) SO 142 0 min 0,000 mm 0,0 UV-I 0 W/m 0,3 C 0,0 km/h (0 Bft)
10.10.2016 01:53 1,0 C 1,0 C 95 % 1023,8 hPa 0,0 mm 0,0 km/h (0 Bft) SO 142 0 min 0,000 mm 0,0 UV-I 0 W/m 0,3 C 0,0 km/h (0 Bft)
10.10.2016 01:54 1,0 C 1,0 C 95 % 1023,8 hPa 0,0 mm 0,0 km/h (0 Bft) SO 142 0 min 0,000 mm 0,0 UV-I 0 W/m 0,3 C 0,0 km/h (0 Bft)
10.10.2016 01:55 0,9 C 1,0 C 95 % 1023,8 hPa 0,0 mm 0,0 km/h (0 Bft) SO 142 0 min 0,000 mm 0,0 UV-I 0 W/m 0,2 C 0,0 km/h (0 Bft)
10.10.2016 01:56 0,9 C 1,0 C 95 % 1023,8 hPa 0,0 mm 0,0 km/h (0 Bft) SO 142 0 min 0,000 mm 0,0 UV-I 0 W/m 0,2 C 0,0 km/h (0 Bft)
10.10.2016 01:57 0,9 C 0,9 C 95 % 1023,7 hPa 0,0 mm 0,0 km/h (0 Bft) SO 142 0 min 0,000 mm 0,0 UV-I 0 W/m 0,2 C 0,0 km/h (0 Bft)
10.10.2016 01:58 0,9 C 0,9 C 95 % 1023,7 hPa 0,0 mm 0,0 km/h (0 Bft) SO 142 0 min 0,000 mm 0,0 UV-I 0 W/m 0,2 C 0,0 km/h (0 Bft)
10.10.2016 01:59 0,9 C 0,9 C 95 % 1023,7 hPa 0,0 mm 0,0 km/h (0 Bft) SO 142 0 min 0,000 mm 0,0 UV-I 0 W/m 0,2 C 0,0 km/h (0 Bft)
10.10.2016 02:00 1,1 C 1,1 C 95 % 1023,7 hPa 0,0 mm 1,3 km/h (1 Bft) SO 142 0 min 0,000 mm 0,0 UV-I 0 W/m 0,4 C 3,2 km/h (1 Bft)
10.10.2016 02:01 1,1 C 1,1 C 96 % 1023,7 hPa 0,0 mm 2,3 km/h (1 Bft) SO 142 0 min 0,000 mm 0,0 UV-I 0 W/m 0,5 C 3,2 km/h (1 Bft)
10.10.2016 02:02 1,2 C 1,2 C 96 % 1023,7 hPa 0,0 mm 3,0 km/h (1 Bft) SO 142 0 min 0,000 mm 0,0 UV-I 0 W/m 0,6 C 3,2 km/h (1 Bft)
10.10.2016 02:03 1,3 C 1,3 C 96 % 1023,7 hPa 0,0 mm 3,3 km/h (1 Bft) SO 142 0 min 0,000 mm 0,0 UV-I 0 W/m 0,7 C 4,8 km/h (1 Bft)
10.10.2016 02:04 1,3 C 1,3 C 96 % 1023,7 hPa 0,0 mm 3,0 km/h (1 Bft) SO 142 0 min 0,000 mm 0,0 UV-I 0 W/m 0,7 C 4,8 km/h (1 Bft)
10.10.2016 02:05 1,3 C 1,3 C 96 % 1023,8 hPa 0,0 mm 2,9 km/h (1 Bft) SO 142 0 min 0,000 mm 0,0 UV-I 0 W/m 0,7 C 3,2 km/h (1 Bft)
10.10.2016 02:06 1,3 C 1,3 C 96 % 1023,7 hPa 0,0 mm 3,1 km/h (1 Bft) SO 142 0 min 0,000 mm 0,0 UV-I 0 W/m 0,7 C 3,2 km/h (1 Bft)
10.10.2016 02:07 1,3 C 1,3 C 96 % 1023,7 hPa 0,0 mm 2,7 km/h (1 Bft) SO 142 0 min 0,000 mm 0,0 UV-I 0 W/m 0,7 C 3,2 km/h (1 Bft)
10.10.2016 02:08 1,3 C 1,3 C 96 % 1023,7 hPa 0,0 mm 2,3 km/h (1 Bft) SO 142 0 min 0,000 mm 0,0 UV-I 0 W/m 0,7 C 3,2 km/h (1 Bft)
10.10.2016 02:09 1,3 C 1,3 C 96 % 1023,7 hPa 0,0 mm 1,3 km/h (1 Bft) SO 142 0 min 0,000 mm 0,0 UV-I 0 W/m 0,7 C 3,2 km/h (1 Bft)
10.10.2016 02:10 1,3 C 1,3 C 96 % 1023,7 hPa 0,0 mm 1,4 km/h (1 Bft) SO 142 0 min 0,000 mm 0,0 UV-I 0 W/m 0,7 C 1,6 km/h (1 Bft)
10.10.2016 02:11 1,3 C 1,3 C 96 % 1023,7 hPa 0,0 mm 1,6 km/h (1 Bft) SO 142 0 min 0,000 mm 0,0 UV-I 0 W/m 0,7 C 1,6 km/h (1 Bft)
10.10.2016 02:12 1,3 C 1,3 C 96 % 1023,7 hPa 0,0 mm 1,4 km/h (1 Bft) SO 142 0 min 0,000 mm 0,0 UV-I 0 W/m 0,7 C 1,6 km/h (1 Bft)
10.10.2016 02:13 1,3 C 1,3 C 96 % 1023,7 hPa 0,0 mm 2,1 km/h (1 Bft) SO 142 0 min 0,000 mm 0,0 UV-I 0 W/m 0,7 C 3,2 km/h (1 Bft)
10.10.2016 02:14 1,3 C 1,3 C 96 % 1023,7 hPa 0,0 mm 2,4 km/h (1 Bft) SO 142 0 min 0,000 mm 0,0 UV-I 0 W/m 0,7 C 3,2 km/h (1 Bft)
10.10.2016 02:15 1,3 C 1,3 C 96 % 1023,7 hPa 0,0 mm 2,9 km/h (1 Bft) SO 142 0 min 0,000 mm 0,0 UV-I 0 W/m 0,7 C 4,8 km/h (1 Bft)
10.10.2016 02:16 1,3 C 1,3 C 96 % 1023,7 hPa 0,0 mm 2,7 km/h (1 Bft) SO 142 0 min 0,000 mm 0,0 UV-I 0 W/m 0,7 C 3,2 km/h (1 Bft)
10.10.2016 02:17 1,3 C 1,3 C 95 % 1023,7 hPa 0,0 mm 2,9 km/h (1 Bft) SO 142 0 min 0,000 mm 0,0 UV-I 0 W/m 0,6 C 3,2 km/h (1 Bft)
10.10.2016 02:18 1,3 C 1,3 C 96 % 1023,7 hPa 0,0 mm 3,4 km/h (1 Bft) SO 142 0 min 0,000 mm 0,0 UV-I 0 W/m 0,7 C 4,8 km/h (1 Bft)
10.10.2016 02:19 1,3 C 1,3 C 95 % 1023,7 hPa 0,0 mm 3,2 km/h (1 Bft) SO 142 0 min 0,000 mm 0,0 UV-I 0 W/m 0,6 C 3,2 km/h (1 Bft)
10.10.2016 02:20 1,4 C 1,4 C 95 % 1023,7 hPa 0,0 mm 3,0 km/h (1 Bft) SO 142 0 min 0,000 mm 0,0 UV-I 0 W/m 0,7 C 3,2 km/h (1 Bft)
10.10.2016 02:21 1,4 C 1,4 C 95 % 1023,7 hPa 0,0 mm 3,0 km/h (1 Bft) SO 142 0 min 0,000 mm 0,0 UV-I 0 W/m 0,7 C 3,2 km/h (1 Bft)
10.10.2016 02:22 1,4 C 1,4 C 95 % 1023,7 hPa 0,0 mm 2,9 km/h (1 Bft) SO 142 0 min 0,000 mm 0,0 UV-I 0 W/m 0,7 C 3,2 km/h (1 Bft)
10.10.2016 02:23 1,4 C 1,4 C 95 % 1023,7 hPa 0,0 mm 3,2 km/h (1 Bft) SO 142 0 min 0,000 mm 0,0 UV-I 0 W/m 0,7 C 3,2 km/h (1 Bft)
10.10.2016 02:24 1,4 C 1,4 C 95 % 1023,7 hPa 0,0 mm 3,0 km/h (1 Bft) SO 142 0 min 0,000 mm 0,0 UV-I 0 W/m 0,7 C 4,8 km/h (1 Bft)
10.10.2016 02:25 1,3 C 1,4 C 95 % 1023,7 hPa 0,0 mm 3,1 km/h (1 Bft) SO 142 0 min 0,000 mm 0,0 UV-I 0 W/m 0,6 C 4,8 km/h (1 Bft)
10.10.2016 02:26 1,3 C 1,3 C 95 % 1023,7 hPa 0,0 mm 2,5 km/h (1 Bft) SO 142 0 min 0,000 mm 0,0 UV-I 0 W/m 0,6 C 4,8 km/h (1 Bft)
10.10.2016 02:27 1,3 C 1,3 C 95 % 1023,7 hPa 0,0 mm 2,0 km/h (1 Bft) SO 142 0 min 0,000 mm 0,0 UV-I 0 W/m 0,6 C 3,2 km/h (1 Bft)
10.10.2016 02:28 1,3 C 1,3 C 95 % 1023,7 hPa 0,0 mm 1,6 km/h (1 Bft) SO 142 0 min 0,000 mm 0,0 UV-I 0 W/m 0,6 C 3,2 km/h (1 Bft)
10.10.2016 02:29 1,3 C 1,3 C 95 % 1023,7 hPa 0,0 mm 0,7 km/h (0 Bft) SO 142 0 min 0,000 mm 0,0 UV-I 0 W/m 0,6 C 1,6 km/h (1 Bft)
10.10.2016 02:30 1,3 C 1,3 C 95 % 1023,7 hPa 0,0 mm 0,6 km/h (0 Bft) SO 142 0 min 0,000 mm 0,0 UV-I 0 W/m 0,6 C 1,6 km/h (1 Bft)
10.10.2016 02:31 1,3 C 1,3 C 95 % 1023,7 hPa 0,0 mm 0,0 km/h (0 Bft) SO 142 0 min 0,000 mm 0,0 UV-I 0 W/m 0,6 C 0,0 km/h (0 Bft)
10.10.2016 02:32 1,3 C 1,3 C 95 % 1023,7 hPa 0,0 mm 0,0 km/h (0 Bft) SO 142 0 min 0,000 mm 0,0 UV-I 0 W/m 0,6 C 0,0 km/h (0 Bft)
10.10.2016 02:33 1,1 C 1,3 C 95 % 1023,7 hPa 0,0 mm 0,0 km/h (0 Bft) SO 142 0 min 0,000 mm 0,0 UV-I 0 W/m 0,4 C 0,0 km/h (0 Bft)
10.10.2016 02:34 0,9 C 1,1 C 94 % 1023,7 hPa 0,0 mm 0,0 km/h (0 Bft) SO 142 0 min 0,000 mm 0,0 UV-I 0 W/m 0,0 C 0,0 km/h (0 Bft)
10.10.2016 02:35 0,8 C 0,9 C 94 % 1023,6 hPa 0,0 mm 0,2 km/h (0 Bft) SO 142 0 min 0,000 mm 0,0 UV-I 0 W/m -0,1 C 1,6 km/h (1 Bft)
10.10.2016 02:36 0,8 C 0,8 C 94 % 1023,6 hPa 0,0 mm 1,1 km/h (1 Bft) SO 142 0 min 0,000 mm 0,0 UV-I 0 W/m -0,1 C 1,6 km/h (1 Bft)
10.10.2016 02:37 0,8 C 0,8 C 95 % 1023,6 hPa 0,0 mm 1,5 km/h (1 Bft) SO 142 0 min 0,000 mm 0,0 UV-I 0 W/m 0,1 C 1,6 km/h (1 Bft)
10.10.2016 02:38 0,8 C 0,8 C 95 % 1023,6 hPa 0,0 mm 1,7 km/h (1 Bft) SO 142 0 min 0,000 mm 0,0 UV-I 0 W/m 0,1 C 3,2 km/h (1 Bft)
10.10.2016 02:39 0,8 C 0,8 C 95 % 1023,6 hPa 0,0 mm 1,7 km/h (1 Bft) SO 142 0 min 0,000 mm 0,0 UV-I 0 W/m 0,1 C 3,2 km/h (1 Bft)
10.10.2016 02:40 0,8 C 0,8 C 95 % 1023,7 hPa 0,0 mm 1,5 km/h (1 Bft) SO 142 0 min 0,000 mm 0,0 UV-I 0 W/m 0,1 C 3,2 km/h (1 Bft)
10.10.2016 02:41 0,9 C 0,9 C 95 % 1023,6 hPa 0,0 mm 0,1 km/h (0 Bft) SO 142 0 min 0,000 mm 0,0 UV-I 0 W/m 0,2 C 1,6 km/h (1 Bft)
10.10.2016 02:42 0,9 C 0,9 C 95 % 1023,7 hPa 0,0 mm 0,0 km/h (0 Bft) SO 142 0 min 0,000 mm 0,0 UV-I 0 W/m 0,2 C 0,0 km/h (0 Bft)
10.10.2016 02:43 0,8 C 0,9 C 95 % 1023,7 hPa 0,0 mm 0,2 km/h (0 Bft) SO 142 0 min 0,000 mm 0,0 UV-I 0 W/m 0,1 C 1,6 km/h (1 Bft)
10.10.2016 02:44 0,7 C 0,8 C 95 % 1023,7 hPa 0,0 mm 0,3 km/h (0 Bft) SO 142 0 min 0,000 mm 0,0 UV-I 0 W/m -0,0 C 1,6 km/h (1 Bft)
10.10.2016 02:45 0,7 C 0,7 C 95 % 1023,7 hPa 0,0 mm 1,3 km/h (1 Bft) SO 142 0 min 0,000 mm 0,0 UV-I 0 W/m -0,0 C 1,6 km/h (1 Bft)
10.10.2016 02:46 0,7 C 0,7 C 95 % 1023,6 hPa 0,0 mm 0,6 km/h (0 Bft) SO 142 0 min 0,000 mm 0,0 UV-I 0 W/m -0,0 C 1,6 km/h (1 Bft)
10.10.2016 02:47 0,7 C 0,8 C 95 % 1023,6 hPa 0,0 mm 1,1 km/h (1 Bft) SO 142 0 min 0,000 mm 0,0 UV-I 0 W/m -0,0 C 1,6 km/h (1 Bft)
10.10.2016 02:48 0,8 C 0,8 C 95 % 1023,6 hPa 0,0 mm 0,3 km/h (0 Bft) SO 142 0 min 0,000 mm 0,0 UV-I 0 W/m 0,1 C 1,6 km/h (1 Bft)
10.10.2016 02:49 0,8 C 0,8 C 95 % 1023,6 hPa 0,0 mm 0,1 km/h (0 Bft) SO 142 0 min 0,000 mm 0,0 UV-I 0 W/m 0,1 C 1,6 km/h (1 Bft)
10.10.2016 02:50 0,8 C 0,8 C 95 % 1023,6 hPa 0,0 mm 0,0 km/h (0 Bft) SO 142 0 min 0,000 mm 0,0 UV-I 0 W/m 0,1 C 0,0 km/h (0 Bft)
10.10.2016 02:51 0,6 C 0,8 C 95 % 1023,6 hPa 0,0 mm 0,0 km/h (0 Bft) SO 142 0 min 0,000 mm 0,0 UV-I 0 W/m -0,1 C 0,0 km/h (0 Bft)
10.10.2016 02:52 0,5 C 0,6 C 94 % 1023,6 hPa 0,0 mm 0,0 km/h (0 Bft) SO 142 0 min 0,000 mm 0,0 UV-I 0 W/m -0,4 C 0,0 km/h (0 Bft)
10.10.2016 02:53 0,4 C 0,5 C 94 % 1023,6 hPa 0,0 mm 0,0 km/h (0 Bft) SO 142 0 min 0,000 mm 0,0 UV-I 0 W/m -0,5 C 0,0 km/h (0 Bft)
10.10.2016 02:54 0,3 C 0,4 C 94 % 1023,6 hPa 0,0 mm 0,0 km/h (0 Bft) SO 142 0 min 0,000 mm 0,0 UV-I 0 W/m -0,5 C 0,0 km/h (0 Bft)
10.10.2016 02:55 0,3 C 0,3 C 95 % 1023,6 hPa 0,0 mm 0,0 km/h (0 Bft) SO 142 0 min 0,000 mm 0,0 UV-I 0 W/m -0,4 C 0,0 km/h (0 Bft)
10.10.2016 02:56 0,4 C 0,4 C 95 % 1023,6 hPa 0,0 mm 0,0 km/h (0 Bft) SO 142 0 min 0,000 mm 0,0 UV-I 0 W/m -0,3 C 0,0 km/h (0 Bft)
10.10.2016 02:57 0,4 C 0,4 C 95 % 1023,6 hPa 0,0 mm 0,0 km/h (0 Bft) SO 142 0 min 0,000 mm 0,0 UV-I 0 W/m -0,3 C 0,0 km/h (0 Bft)
10.10.2016 02:58 0,4 C 0,4 C 95 % 1023,5 hPa 0,0 mm 0,3 km/h (0 Bft) SO 142 0 min 0,000 mm 0,0 UV-I 0 W/m -0,3 C 1,6 km/h (1 Bft)
10.10.2016 02:59 0,4 C 0,4 C 95 % 1023,6 hPa 0,0 mm 1,1 km/h (1 Bft) SO 142 0 min 0,000 mm 0,0 UV-I 0 W/m -0,3 C 1,6 km/h (1 Bft)
10.10.2016 03:00 0,4 C 0,4 C 95 % 1023,5 hPa 0,0 mm 1,0 km/h (0 Bft) SO 142 0 min 0,000 mm 0,0 UV-I 0 W/m -0,3 C 3,2 km/h (1 Bft)
10.10.2016 03:01 0,3 C 0,4 C 95 % 1023,5 hPa 0,0 mm 0,4 km/h (0 Bft) SO 142 0 min 0,000 mm 0,0 UV-I 0 W/m -0,4 C 1,6 km/h (1 Bft)
10.10.2016 03:02 0,4 C 0,4 C 95 % 1023,5 hPa 0,0 mm 0,2 km/h (0 Bft) SO 142 0 min 0,000 mm 0,0 UV-I 0 W/m -0,3 C 1,6 km/h (1 Bft)
10.10.2016 03:03 0,3 C 0,4 C 95 % 1023,5 hPa 0,0 mm 0,0 km/h (0 Bft) SO 142 0 min 0,000 mm 0,0 UV-I 0 W/m -0,4 C 0,0 km/h (0 Bft)
10.10.2016 03:04 0,2 C 0,3 C 95 % 1023,5 hPa 0,0 mm 0,0 km/h (0 Bft) SO 142 0 min 0,000 mm 0,0 UV-I 0 W/m -0,5 C 0,0 km/h (0 Bft)
10.10.2016 03:05 0,1 C 0,2 C 95 % 1023,5 hPa 0,0 mm 0,0 km/h (0 Bft) SO 142 0 min 0,000 mm 0,0 UV-I 0 W/m -0,6 C 0,0 km/h (0 Bft)
10.10.2016 03:06 0,1 C 0,2 C 95 % 1023,5 hPa 0,0 mm 0,0 km/h (0 Bft) SO 142 0 min 0,000 mm 0,0 UV-I 0 W/m -0,6 C 0,0 km/h (0 Bft)
10.10.2016 03:07 0,1 C 0,1 C 95 % 1023,5 hPa 0,0 mm 0,0 km/h (0 Bft) SO 142 0 min 0,000 mm 0,0 UV-I 0 W/m -0,6 C 0,0 km/h (0 Bft)
10.10.2016 03:08 0,1 C 0,1 C 95 % 1023,5 hPa 0,0 mm 0,0 km/h (0 Bft) SO 142 0 min 0,000 mm 0,0 UV-I 0 W/m -0,6 C 0,0 km/h (0 Bft)
10.10.2016 03:09 0,1 C 0,1 C 95 % 1023,4 hPa 0,0 mm 0,0 km/h (0 Bft) SO 142 0 min 0,000 mm 0,0 UV-I 0 W/m -0,6 C 0,0 km/h (0 Bft)
10.10.2016 03:10 0,1 C 0,2 C 95 % 1023,5 hPa 0,0 mm 0,0 km/h (0 Bft) SO 142 0 min 0,000 mm 0,0 UV-I 0 W/m -0,6 C 0,0 km/h (0 Bft)
10.10.2016 03:11 0,2 C 0,2 C 95 % 1023,4 hPa 0,0 mm 0,0 km/h (0 Bft) SO 142 0 min 0,000 mm 0,0 UV-I 0 W/m -0,5 C 0,0 km/h (0 Bft)
10.10.2016 03:12 0,2 C 0,2 C 95 % 1023,4 hPa 0,0 mm 0,0 km/h (0 Bft) SO 142 0 min 0,000 mm 0,0 UV-I 0 W/m -0,5 C 0,0 km/h (0 Bft)
10.10.2016 03:13 0,2 C 0,2 C 95 % 1023,4 hPa 0,0 mm 0,0 km/h (0 Bft) SO 142 0 min 0,000 mm 0,0 UV-I 0 W/m -0,5 C 0,0 km/h (0 Bft)
10.10.2016 03:14 0,1 C 0,2 C 95 % 1023,4 hPa 0,0 mm 0,0 km/h (0 Bft) SO 142 0 min 0,000 mm 0,0 UV-I 0 W/m -0,6 C 0,0 km/h (0 Bft)
10.10.2016 03:15 0,1 C 0,1 C 95 % 1023,4 hPa 0,0 mm 0,0 km/h (0 Bft) SO 142 0 min 0,000 mm 0,0 UV-I 0 W/m -0,6 C 0,0 km/h (0 Bft)
10.10.2016 03:16 0,0 C 0,1 C 95 % 1023,5 hPa 0,0 mm 0,0 km/h (0 Bft) SO 142 0 min 0,000 mm 0,0 UV-I 0 W/m -0,7 C 0,0 km/h (0 Bft)
10.10.2016 03:17 -0,1 C 0,0 C 95 % 1023,5 hPa 0,0 mm 0,0 km/h (0 Bft) SO 142 0 min 0,000 mm 0,0 UV-I 0 W/m -0,8 C 0,0 km/h (0 Bft)
10.10.2016 03:18 -0,2 C -0,1 C 95 % 1023,4 hPa 0,0 mm 0,1 km/h (0 Bft) SO 142 0 min 0,000 mm 0,0 UV-I 0 W/m -0,9 C 1,6 km/h (1 Bft)
10.10.2016 03:19 -0,2 C -0,2 C 95 % 1023,4 hPa 0,0 mm 1,3 km/h (1 Bft) SO 142 0 min 0,000 mm 0,0 UV-I 0 W/m -0,9 C 1,6 km/h (1 Bft)
10.10.2016 03:20 -0,2 C -0,2 C 95 % 1023,4 hPa 0,0 mm 0,6 km/h (0 Bft) SO 142 0 min 0,000 mm 0,0 UV-I 0 W/m -0,9 C 1,6 km/h (1 Bft)
10.10.2016 03:21 -0,2 C -0,2 C 95 % 1023,4 hPa 0,0 mm 1,0 km/h (0 Bft) SO 142 0 min 0,000 mm 0,0 UV-I 0 W/m -0,9 C 1,6 km/h (1 Bft)
10.10.2016 03:22 -0,2 C -0,2 C 95 % 1023,5 hPa 0,0 mm 0,2 km/h (0 Bft) SO 142 0 min 0,000 mm 0,0 UV-I 0 W/m -0,9 C 1,6 km/h (1 Bft)
10.10.2016 03:23 -0,3 C -0,2 C 95 % 1023,4 hPa 0,0 mm 0,0 km/h (0 Bft) SO 142 0 min 0,000 mm 0,0 UV-I 0 W/m -1,0 C 0,0 km/h (0 Bft)
10.10.2016 03:24 -0,3 C -0,2 C 95 % 1023,4 hPa 0,0 mm 0,0 km/h (0 Bft) SO 142 0 min 0,000 mm 0,0 UV-I 0 W/m -1,0 C 0,0 km/h (0 Bft)
10.10.2016 03:25 -0,2 C -0,2 C 95 % 1023,4 hPa 0,0 mm 0,0 km/h (0 Bft) SO 142 0 min 0,000 mm 0,0 UV-I 0 W/m -0,9 C 0,0 km/h (0 Bft)
10.10.2016 03:26 -0,3 C -0,2 C 95 % 1023,4 hPa 0,0 mm 0,0 km/h (0 Bft) SO 142 0 min 0,000 mm 0,0 UV-I 0 W/m -1,0 C 0,0 km/h (0 Bft)
10.10.2016 03:27 -0,3 C -0,3 C 95 % 1023,4 hPa 0,0 mm 0,0 km/h (0 Bft) SO 142 0 min 0,000 mm 0,0 UV-I 0 W/m -1,0 C 0,0 km/h (0 Bft)
10.10.2016 03:28 -0,3 C -0,3 C 95 % 1023,4 hPa 0,0 mm 0,0 km/h (0 Bft) SO 142 0 min 0,000 mm 0,0 UV-I 0 W/m -1,0 C 0,0 km/h (0 Bft)
10.10.2016 03:29 -0,3 C -0,3 C 95 % 1023,4 hPa 0,0 mm 0,0 km/h (0 Bft) SO 142 0 min 0,000 mm 0,0 UV-I 0 W/m -1,0 C 0,0 km/h (0 Bft)
10.10.2016 03:30 -0,2 C -0,2 C 95 % 1023,4 hPa 0,0 mm 0,0 km/h (0 Bft) SO 142 0 min 0,000 mm 0,0 UV-I 0 W/m -0,9 C 0,0 km/h (0 Bft)
10.10.2016 03:31 -0,2 C -0,2 C 95 % 1023,4 hPa 0,0 mm 0,0 km/h (0 Bft) SO 142 0 min 0,000 mm 0,0 UV-I 0 W/m -0,9 C 0,0 km/h (0 Bft)
10.10.2016 03:32 -0,2 C -0,2 C 95 % 1023,4 hPa 0,0 mm 0,0 km/h (0 Bft) SO 142 0 min 0,000 mm 0,0 UV-I 0 W/m -0,9 C 0,0 km/h (0 Bft)
10.10.2016 03:33 -0,2 C -0,2 C 95 % 1023,4 hPa 0,0 mm 0,0 km/h (0 Bft) SO 142 0 min 0,000 mm 0,0 UV-I 0 W/m -0,9 C 0,0 km/h (0 Bft)
10.10.2016 03:34 -0,3 C -0,2 C 95 % 1023,4 hPa 0,0 mm 0,0 km/h (0 Bft) SO 142 0 min 0,000 mm 0,0 UV-I 0 W/m -1,0 C 0,0 km/h (0 Bft)
10.10.2016 03:35 -0,3 C -0,3 C 95 % 1023,4 hPa 0,0 mm 0,0 km/h (0 Bft) SO 142 0 min 0,000 mm 0,0 UV-I 0 W/m -1,0 C 0,0 km/h (0 Bft)
10.10.2016 03:36 -0,4 C -0,3 C 95 % 1023,4 hPa 0,0 mm 0,0 km/h (0 Bft) SO 142 0 min 0,000 mm 0,0 UV-I 0 W/m -1,1 C 0,0 km/h (0 Bft)
10.10.2016 03:37 -0,3 C -0,3 C 95 % 1023,3 hPa 0,0 mm 0,0 km/h (0 Bft) SO 142 0 min 0,000 mm 0,0 UV-I 0 W/m -1,0 C 0,0 km/h (0 Bft)
10.10.2016 03:38 -0,2 C -0,2 C 96 % 1023,4 hPa 0,0 mm 0,0 km/h (0 Bft) SO 142 0 min 0,000 mm 0,0 UV-I 0 W/m -0,8 C 0,0 km/h (0 Bft)
10.10.2016 03:39 -0,2 C -0,2 C 96 % 1023,4 hPa 0,0 mm 0,0 km/h (0 Bft) SO 142 0 min 0,000 mm 0,0 UV-I 0 W/m -0,8 C 0,0 km/h (0 Bft)
10.10.2016 03:40 -0,1 C -0,1 C 96 % 1023,4 hPa 0,0 mm 0,0 km/h (0 Bft) SO 142 0 min 0,000 mm 0,0 UV-I 0 W/m -0,7 C 0,0 km/h (0 Bft)
10.10.2016 03:41 -0,2 C -0,1 C 96 % 1023,4 hPa 0,0 mm 0,0 km/h (0 Bft) SO 142 0 min 0,000 mm 0,0 UV-I 0 W/m -0,8 C 0,0 km/h (0 Bft)
10.10.2016 03:42 -0,2 C -0,2 C 95 % 1023,4 hPa 0,0 mm 0,0 km/h (0 Bft) SO 142 0 min 0,000 mm 0,0 UV-I 0 W/m -0,9 C 0,0 km/h (0 Bft)
10.10.2016 03:43 -0,3 C -0,2 C 95 % 1023,4 hPa 0,0 mm 0,0 km/h (0 Bft) SO 142 0 min 0,000 mm 0,0 UV-I 0 W/m -1,0 C 0,0 km/h (0 Bft)
10.10.2016 03:44 -0,4 C -0,3 C 95 % 1023,4 hPa 0,0 mm 0,0 km/h (0 Bft) SO 142 0 min 0,000 mm 0,0 UV-I 0 W/m -1,1 C 0,0 km/h (0 Bft)
10.10.2016 03:45 -0,4 C -0,3 C 95 % 1023,4 hPa 0,0 mm 0,0 km/h (0 Bft) SO 142 0 min 0,000 mm 0,0 UV-I 0 W/m -1,1 C 0,0 km/h (0 Bft)
10.10.2016 03:46 -0,4 C -0,4 C 95 % 1023,4 hPa 0,0 mm 0,0 km/h (0 Bft) SO 142 0 min 0,000 mm 0,0 UV-I 0 W/m -1,1 C 0,0 km/h (0 Bft)
10.10.2016 03:47 -0,3 C -0,3 C 95 % 1023,4 hPa 0,0 mm 0,0 km/h (0 Bft) SO 142 0 min 0,000 mm 0,0 UV-I 0 W/m -1,0 C 0,0 km/h (0 Bft)
10.10.2016 03:48 -0,2 C -0,2 C 96 % 1023,4 hPa 0,0 mm 0,0 km/h (0 Bft) SO 142 0 min 0,000 mm 0,0 UV-I 0 W/m -0,8 C 0,0 km/h (0 Bft)
10.10.2016 03:49 -0,2 C -0,2 C 96 % 1023,4 hPa 0,0 mm 0,0 km/h (0 Bft) SO 142 0 min 0,000 mm 0,0 UV-I 0 W/m -0,8 C 0,0 km/h (0 Bft)
10.10.2016 03:50 -0,1 C -0,1 C 96 % 1023,4 hPa 0,0 mm 0,0 km/h (0 Bft) SO 142 0 min 0,000 mm 0,0 UV-I 0 W/m -0,7 C 0,0 km/h (0 Bft)
10.10.2016 03:51 -0,1 C -0,1 C 96 % 1023,3 hPa 0,0 mm 0,0 km/h (0 Bft) SO 142 0 min 0,000 mm 0,0 UV-I 0 W/m -0,7 C 0,0 km/h (0 Bft)
10.10.2016 03:52 -0,1 C 0,0 C 96 % 1023,3 hPa 0,0 mm 0,0 km/h (0 Bft) SO 142 0 min 0,000 mm 0,0 UV-I 0 W/m -0,7 C 0,0 km/h (0 Bft)
10.10.2016 03:53 -0,1 C -0,1 C 96 % 1023,3 hPa 0,0 mm 0,0 km/h (0 Bft) SO 142 0 min 0,000 mm 0,0 UV-I 0 W/m -0,7 C 0,0 km/h (0 Bft)
10.10.2016 03:54 -0,1 C -0,1 C 96 % 1023,3 hPa 0,0 mm 0,0 km/h (0 Bft) SO 142 0 min 0,000 mm 0,0 UV-I 0 W/m -0,7 C 0,0 km/h (0 Bft)
10.10.2016 03:55 -0,2 C -0,1 C 95 % 1023,3 hPa 0,0 mm 0,0 km/h (0 Bft) SO 142 0 min 0,000 mm 0,0 UV-I 0 W/m -0,9 C 0,0 km/h (0 Bft)
10.10.2016 03:56 -0,3 C -0,2 C 95 % 1023,3 hPa 0,0 mm 0,0 km/h (0 Bft) SO 142 0 min 0,000 mm 0,0 UV-I 0 W/m -1,0 C 0,0 km/h (0 Bft)
10.10.2016 03:57 -0,3 C -0,3 C 95 % 1023,3 hPa 0,0 mm 0,1 km/h (0 Bft) SO 142 0 min 0,000 mm 0,0 UV-I 0 W/m -1,0 C 1,6 km/h (1 Bft)
10.10.2016 03:58 -0,3 C -0,3 C 95 % 1023,3 hPa 0,0 mm 0,5 km/h (0 Bft) SO 142 0 min 0,000 mm 0,0 UV-I 0 W/m -1,0 C 1,6 km/h (1 Bft)
10.10.2016 03:59 -0,2 C -0,2 C 96 % 1023,3 hPa 0,0 mm 0,0 km/h (0 Bft) SO 142 0 min 0,000 mm 0,0 UV-I 0 W/m -0,8 C 0,0 km/h (0 Bft)
10.10.2016 04:00 -0,1 C -0,1 C 96 % 1023,3 hPa 0,0 mm 0,0 km/h (0 Bft) SO 142 0 min 0,000 mm 0,0 UV-I 0 W/m -0,7 C 0,0 km/h (0 Bft)
10.10.2016 04:01 -0,2 C -0,1 C 96 % 1023,3 hPa 0,0 mm 0,0 km/h (0 Bft) SO 142 0 min 0,000 mm 0,0 UV-I 0 W/m -0,8 C 0,0 km/h (0 Bft)
10.10.2016 04:02 -0,3 C -0,2 C 96 % 1023,3 hPa 0,0 mm 0,0 km/h (0 Bft) SO 142 0 min 0,000 mm 0,0 UV-I 0 W/m -0,9 C 0,0 km/h (0 Bft)
10.10.2016 04:03 -0,4 C -0,3 C 95 % 1023,4 hPa 0,0 mm 0,0 km/h (0 Bft) SO 142 0 min 0,000 mm 0,0 UV-I 0 W/m -1,1 C 0,0 km/h (0 Bft)
10.10.2016 04:04 -0,5 C -0,4 C 95 % 1023,4 hPa 0,0 mm 0,0 km/h (0 Bft) SO 142 0 min 0,000 mm 0,0 UV-I 0 W/m -1,2 C 0,0 km/h (0 Bft)
10.10.2016 04:05 -0,6 C -0,5 C 95 % 1023,4 hPa 0,0 mm 0,0 km/h (0 Bft) SO 142 0 min 0,000 mm 0,0 UV-I 0 W/m -1,3 C 0,0 km/h (0 Bft)
10.10.2016 04:06 -0,6 C -0,6 C 95 % 1023,4 hPa 0,0 mm 0,0 km/h (0 Bft) SO 142 0 min 0,000 mm 0,0 UV-I 0 W/m -1,3 C 0,0 km/h (0 Bft)
10.10.2016 04:07 -0,6 C -0,6 C 95 % 1023,4 hPa 0,0 mm 0,0 km/h (0 Bft) SO 142 0 min 0,000 mm 0,0 UV-I 0 W/m -1,3 C 0,0 km/h (0 Bft)
10.10.2016 04:08 -0,6 C -0,6 C 95 % 1023,4 hPa 0,0 mm 0,0 km/h (0 Bft) SO 142 0 min 0,000 mm 0,0 UV-I 0 W/m -1,3 C 0,0 km/h (0 Bft)
10.10.2016 04:09 -0,6 C -0,6 C 95 % 1023,4 hPa 0,0 mm 0,0 km/h (0 Bft) SO 142 0 min 0,000 mm 0,0 UV-I 0 W/m -1,3 C 0,0 km/h (0 Bft)
10.10.2016 04:10 -0,6 C -0,6 C 95 % 1023,3 hPa 0,0 mm 0,0 km/h (0 Bft) SO 142 0 min 0,000 mm 0,0 UV-I 0 W/m -1,3 C 0,0 km/h (0 Bft)
10.10.2016 04:11 -0,6 C -0,5 C 95 % 1023,3 hPa 0,0 mm 0,0 km/h (0 Bft) SO 142 0 min 0,000 mm 0,0 UV-I 0 W/m -1,3 C 0,0 km/h (0 Bft)
10.10.2016 04:12 -0,6 C -0,6 C 95 % 1023,3 hPa 0,0 mm 0,2 km/h (0 Bft) SO 142 0 min 0,000 mm 0,0 UV-I 0 W/m -1,3 C 1,6 km/h (1 Bft)
10.10.2016 04:13 -0,5 C -0,5 C 95 % 1023,4 hPa 0,0 mm 0,0 km/h (0 Bft) SO 142 0 min 0,000 mm 0,0 UV-I 0 W/m -1,2 C 0,0 km/h (0 Bft)
10.10.2016 04:14 -0,5 C -0,5 C 96 % 1023,4 hPa 0,0 mm 0,0 km/h (0 Bft) SO 142 0 min 0,000 mm 0,0 UV-I 0 W/m -1,1 C 0,0 km/h (0 Bft)
10.10.2016 04:15 -0,3 C -0,3 C 96 % 1023,3 hPa 0,0 mm 0,0 km/h (0 Bft) SO 142 0 min 0,000 mm 0,0 UV-I 0 W/m -0,9 C 0,0 km/h (0 Bft)
10.10.2016 04:16 -0,3 C -0,3 C 96 % 1023,3 hPa 0,0 mm 0,1 km/h (0 Bft) SO 142 0 min 0,000 mm 0,0 UV-I 0 W/m -0,9 C 1,6 km/h (1 Bft)
10.10.2016 04:17 -0,3 C -0,3 C 96 % 1023,3 hPa 0,0 mm 0,1 km/h (0 Bft) SO 142 0 min 0,000 mm 0,0 UV-I 0 W/m -0,9 C 1,6 km/h (1 Bft)
10.10.2016 04:18 -0,4 C -0,3 C 96 % 1023,3 hPa 0,0 mm 0,0 km/h (0 Bft) SO 142 0 min 0,000 mm 0,0 UV-I 0 W/m -1,0 C 0,0 km/h (0 Bft)
10.10.2016 04:19 -0,4 C -0,3 C 96 % 1023,3 hPa 0,0 mm 0,0 km/h (0 Bft) SO 142 0 min 0,000 mm 0,0 UV-I 0 W/m -1,0 C 0,0 km/h (0 Bft)
10.10.2016 04:20 -0,3 C -0,3 C 96 % 1023,3 hPa 0,0 mm 0,0 km/h (0 Bft) SO 142 0 min 0,000 mm 0,0 UV-I 0 W/m -0,9 C 0,0 km/h (0 Bft)
10.10.2016 04:21 -0,3 C -0,3 C 96 % 1023,4 hPa 0,0 mm 0,0 km/h (0 Bft) SO 142 0 min 0,000 mm 0,0 UV-I 0 W/m -0,9 C 0,0 km/h (0 Bft)
10.10.2016 04:22 -0,4 C -0,3 C 96 % 1023,3 hPa 0,0 mm 0,3 km/h (0 Bft) SO 142 0 min 0,000 mm 0,0 UV-I 0 W/m -1,0 C 1,6 km/h (1 Bft)
10.10.2016 04:23 -0,4 C -0,4 C 96 % 1023,3 hPa 0,0 mm 0,0 km/h (0 Bft) SO 142 0 min 0,000 mm 0,0 UV-I 0 W/m -1,0 C 0,0 km/h (0 Bft)
10.10.2016 04:24 -0,4 C -0,4 C 95 % 1023,4 hPa 0,0 mm 0,6 km/h (0 Bft) SO 142 0 min 0,000 mm 0,0 UV-I 0 W/m -1,1 C 1,6 km/h (1 Bft)
10.10.2016 04:25 -0,5 C -0,4 C 95 % 1023,4 hPa 0,0 mm 0,3 km/h (0 Bft) SO 142 0 min 0,000 mm 0,0 UV-I 0 W/m -1,2 C 1,6 km/h (1 Bft)
10.10.2016 04:26 -0,5 C -0,5 C 95 % 1023,4 hPa 0,0 mm 0,0 km/h (0 Bft) SO 142 0 min 0,000 mm 0,0 UV-I 0 W/m -1,2 C 0,0 km/h (0 Bft)
10.10.2016 04:27 -0,6 C -0,5 C 95 % 1023,4 hPa 0,0 mm 0,0 km/h (0 Bft) SO 142 0 min 0,000 mm 0,0 UV-I 0 W/m -1,3 C 0,0 km/h (0 Bft)
10.10.2016 04:28 -0,7 C -0,6 C 95 % 1023,4 hPa 0,0 mm 0,0 km/h (0 Bft) SO 142 0 min 0,000 mm 0,0 UV-I 0 W/m -1,4 C 0,0 km/h (0 Bft)
10.10.2016 04:29 -0,7 C -0,6 C 95 % 1023,4 hPa 0,0 mm 0,0 km/h (0 Bft) SO 142 0 min 0,000 mm 0,0 UV-I 0 W/m -1,4 C 0,0 km/h (0 Bft)
10.10.2016 04:30 -0,7 C -0,7 C 95 % 1023,4 hPa 0,0 mm 0,0 km/h (0 Bft) SO 142 0 min 0,000 mm 0,0 UV-I 0 W/m -1,4 C 0,0 km/h (0 Bft)
10.10.2016 04:31 -0,7 C -0,7 C 95 % 1023,4 hPa 0,0 mm 0,0 km/h (0 Bft) SO 142 0 min 0,000 mm 0,0 UV-I 0 W/m -1,4 C 0,0 km/h (0 Bft)
10.10.2016 04:32 -0,7 C -0,7 C 95 % 1023,4 hPa 0,0 mm 0,0 km/h (0 Bft) SO 142 0 min 0,000 mm 0,0 UV-I 0 W/m -1,4 C 0,0 km/h (0 Bft)
10.10.2016 04:33 -0,7 C -0,7 C 95 % 1023,4 hPa 0,0 mm 0,0 km/h (0 Bft) SO 142 0 min 0,000 mm 0,0 UV-I 0 W/m -1,4 C 0,0 km/h (0 Bft)
10.10.2016 04:34 -0,7 C -0,7 C 95 % 1023,4 hPa 0,0 mm 0,0 km/h (0 Bft) SO 142 0 min 0,000 mm 0,0 UV-I 0 W/m -1,4 C 0,0 km/h (0 Bft)
10.10.2016 04:35 -0,7 C -0,7 C 96 % 1023,4 hPa 0,0 mm 0,0 km/h (0 Bft) SO 142 0 min 0,000 mm 0,0 UV-I 0 W/m -1,3 C 0,0 km/h (0 Bft)
10.10.2016 04:36 -0,6 C -0,6 C 95 % 1023,4 hPa 0,0 mm 0,0 km/h (0 Bft) SO 142 0 min 0,000 mm 0,0 UV-I 0 W/m -1,3 C 0,0 km/h (0 Bft)
10.10.2016 04:37 -0,6 C -0,6 C 96 % 1023,3 hPa 0,0 mm 0,0 km/h (0 Bft) SO 142 0 min 0,000 mm 0,0 UV-I 0 W/m -1,2 C 0,0 km/h (0 Bft)
10.10.2016 04:38 -0,4 C -0,4 C 96 % 1023,4 hPa 0,0 mm 1,2 km/h (1 Bft) SO 142 0 min 0,000 mm 0,0 UV-I 0 W/m -1,0 C 3,2 km/h (1 Bft)
10.10.2016 04:39 -0,2 C -0,2 C 96 % 1023,4 hPa 0,0 mm 2,1 km/h (1 Bft) SO 142 0 min 0,000 mm 0,0 UV-I 0 W/m -0,8 C 3,2 km/h (1 Bft)
10.10.2016 04:40 -0,1 C -0,1 C 96 % 1023,4 hPa 0,0 mm 2,1 km/h (1 Bft) SO 142 0 min 0,000 mm 0,0 UV-I 0 W/m -0,7 C 3,2 km/h (1 Bft)
10.10.2016 04:41 0,1 C 0,1 C 96 % 1023,4 hPa 0,0 mm 1,9 km/h (1 Bft) SO 142 0 min 0,000 mm 0,0 UV-I 0 W/m -0,5 C 3,2 km/h (1 Bft)
10.10.2016 04:42 0,2 C 0,2 C 96 % 1023,3 hPa 0,0 mm 1,7 km/h (1 Bft) SO 142 0 min 0,000 mm 0,0 UV-I 0 W/m -0,4 C 3,2 km/h (1 Bft)
10.10.2016 04:43 0,3 C 0,3 C 96 % 1023,3 hPa 0,0 mm 1,4 km/h (1 Bft) SO 142 0 min 0,000 mm 0,0 UV-I 0 W/m -0,3 C 1,6 km/h (1 Bft)
10.10.2016 04:44 0,4 C 0,4 C 96 % 1023,3 hPa 0,0 mm 1,8 km/h (1 Bft) SO 142 0 min 0,000 mm 0,0 UV-I 0 W/m -0,2 C 3,2 km/h (1 Bft)
10.10.2016 04:45 0,4 C 0,4 C 96 % 1023,3 hPa 0,0 mm 2,0 km/h (1 Bft) SO 142 0 min 0,000 mm 0,0 UV-I 0 W/m -0,2 C 3,2 km/h (1 Bft)
10.10.2016 04:46 0,4 C 0,5 C 96 % 1023,3 hPa 0,0 mm 2,1 km/h (1 Bft) SO 142 0 min 0,000 mm 0,0 UV-I 0 W/m -0,2 C 3,2 km/h (1 Bft)
10.10.2016 04:47 0,5 C 0,5 C 96 % 1023,3 hPa 0,0 mm 1,6 km/h (1 Bft) SO 142 0 min 0,000 mm 0,0 UV-I 0 W/m -0,1 C 3,2 km/h (1 Bft)
10.10.2016 04:48 0,5 C 0,6 C 96 % 1023,3 hPa 0,0 mm 1,7 km/h (1 Bft) SO 142 0 min 0,000 mm 0,0 UV-I 0 W/m -0,1 C 3,2 km/h (1 Bft)
10.10.2016 04:49 0,4 C 0,5 C 96 % 1023,3 hPa 0,0 mm 1,3 km/h (1 Bft) SO 142 0 min 0,000 mm 0,0 UV-I 0 W/m -0,2 C 3,2 km/h (1 Bft)
10.10.2016 04:50 0,4 C 0,4 C 96 % 1023,3 hPa 0,0 mm 0,1 km/h (0 Bft) SO 142 0 min 0,000 mm 0,0 UV-I 0 W/m -0,2 C 1,6 km/h (1 Bft)
10.10.2016 04:51 0,4 C 0,4 C 96 % 1023,4 hPa 0,0 mm 0,0 km/h (0 Bft) SO 142 0 min 0,000 mm 0,0 UV-I 0 W/m -0,2 C 0,0 km/h (0 Bft)
10.10.2016 04:52 0,3 C 0,4 C 96 % 1023,3 hPa 0,0 mm 0,0 km/h (0 Bft) SO 142 0 min 0,000 mm 0,0 UV-I 0 W/m -0,3 C 0,0 km/h (0 Bft)
10.10.2016 04:53 0,1 C 0,3 C 96 % 1023,3 hPa 0,0 mm 0,0 km/h (0 Bft) SO 142 0 min 0,000 mm 0,0 UV-I 0 W/m -0,5 C 0,0 km/h (0 Bft)
10.10.2016 04:54 0,0 C 0,1 C 95 % 1023,3 hPa 0,0 mm 0,0 km/h (0 Bft) SO 142 0 min 0,000 mm 0,0 UV-I 0 W/m -0,7 C 0,0 km/h (0 Bft)
10.10.2016 04:55 -0,1 C 0,0 C 95 % 1023,3 hPa 0,0 mm 0,0 km/h (0 Bft) SO 142 0 min 0,000 mm 0,0 UV-I 0 W/m -0,8 C 0,0 km/h (0 Bft)
10.10.2016 04:56 -0,2 C -0,1 C 95 % 1023,3 hPa 0,0 mm 0,0 km/h (0 Bft) SO 142 0 min 0,000 mm 0,0 UV-I 0 W/m -0,9 C 0,0 km/h (0 Bft)
10.10.2016 04:57 -0,3 C -0,2 C 95 % 1023,3 hPa 0,0 mm 0,0 km/h (0 Bft) SO 142 0 min 0,000 mm 0,0 UV-I 0 W/m -1,0 C 0,0 km/h (0 Bft)
10.10.2016 04:58 -0,3 C -0,3 C 95 % 1023,3 hPa 0,0 mm 0,0 km/h (0 Bft) SO 142 0 min 0,000 mm 0,0 UV-I 0 W/m -1,0 C 0,0 km/h (0 Bft)
10.10.2016 04:59 -0,3 C -0,3 C 95 % 1023,4 hPa 0,0 mm 0,0 km/h (0 Bft) SO 142 0 min 0,000 mm 0,0 UV-I 0 W/m -1,0 C 0,0 km/h (0 Bft)
10.10.2016 05:00 -0,4 C -0,3 C 95 % 1023,4 hPa 0,0 mm 0,0 km/h (0 Bft) SO 142 0 min 0,000 mm 0,0 UV-I 0 W/m -1,1 C 0,0 km/h (0 Bft)
10.10.2016 05:01 -0,4 C -0,4 C 95 % 1023,3 hPa 0,0 mm 0,0 km/h (0 Bft) SO 142 0 min 0,000 mm 0,0 UV-I 0 W/m -1,1 C 0,0 km/h (0 Bft)
10.10.2016 05:02 -0,3 C -0,3 C 95 % 1023,4 hPa 0,0 mm 0,0 km/h (0 Bft) SO 142 0 min 0,000 mm 0,0 UV-I 0 W/m -1,0 C 0,0 km/h (0 Bft)
10.10.2016 05:03 -0,3 C -0,3 C 96 % 1023,4 hPa 0,0 mm 0,0 km/h (0 Bft) SO 142 0 min 0,000 mm 0,0 UV-I 0 W/m -0,9 C 0,0 km/h (0 Bft)
10.10.2016 05:04 -0,2 C -0,2 C 96 % 1023,4 hPa 0,0 mm 0,0 km/h (0 Bft) SO 142 0 min 0,000 mm 0,0 UV-I 0 W/m -0,8 C 0,0 km/h (0 Bft)
10.10.2016 05:05 -0,2 C -0,1 C 96 % 1023,4 hPa 0,0 mm 0,0 km/h (0 Bft) SO 142 0 min 0,000 mm 0,0 UV-I 0 W/m -0,8 C 0,0 km/h (0 Bft)
10.10.2016 05:06 -0,2 C -0,1 C 96 % 1023,4 hPa 0,0 mm 0,0 km/h (0 Bft) SO 142 0 min 0,000 mm 0,0 UV-I 0 W/m -0,8 C 0,0 km/h (0 Bft)
10.10.2016 05:07 -0,1 C -0,1 C 96 % 1023,4 hPa 0,0 mm 0,0 km/h (0 Bft) SO 142 0 min 0,000 mm 0,0 UV-I 0 W/m -0,7 C 0,0 km/h (0 Bft)
10.10.2016 05:08 -0,1 C -0,1 C 96 % 1023,4 hPa 0,0 mm 0,0 km/h (0 Bft) SO 142 0 min 0,000 mm 0,0 UV-I 0 W/m -0,7 C 0,0 km/h (0 Bft)
10.10.2016 05:09 0,0 C 0,0 C 96 % 1023,4 hPa 0,0 mm 0,0 km/h (0 Bft) SO 142 0 min 0,000 mm 0,0 UV-I 0 W/m -0,6 C 0,0 km/h (0 Bft)
10.10.2016 05:10 0,1 C 0,1 C 96 % 1023,4 hPa 0,0 mm 0,0 km/h (0 Bft) SO 142 0 min 0,000 mm 0,0 UV-I 0 W/m -0,5 C 0,0 km/h (0 Bft)
10.10.2016 05:11 0,1 C 0,1 C 96 % 1023,4 hPa 0,0 mm 0,0 km/h (0 Bft) SO 142 0 min 0,000 mm 0,0 UV-I 0 W/m -0,5 C 0,0 km/h (0 Bft)
10.10.2016 05:12 0,1 C 0,1 C 96 % 1023,4 hPa 0,0 mm 0,0 km/h (0 Bft) SO 142 0 min 0,000 mm 0,0 UV-I 0 W/m -0,5 C 0,0 km/h (0 Bft)
10.10.2016 05:13 0,1 C 0,1 C 96 % 1023,4 hPa 0,0 mm 0,0 km/h (0 Bft) SO 142 0 min 0,000 mm 0,0 UV-I 0 W/m -0,5 C 0,0 km/h (0 Bft)
10.10.2016 05:14 0,1 C 0,1 C 96 % 1023,4 hPa 0,0 mm 0,0 km/h (0 Bft) SO 142 0 min 0,000 mm 0,0 UV-I 0 W/m -0,5 C 0,0 km/h (0 Bft)
10.10.2016 05:15 -0,1 C 0,1 C 96 % 1023,4 hPa 0,0 mm 0,0 km/h (0 Bft) SO 142 0 min 0,000 mm 0,0 UV-I 0 W/m -0,7 C 0,0 km/h (0 Bft)
10.10.2016 05:16 -0,1 C -0,1 C 95 % 1023,4 hPa 0,0 mm 0,0 km/h (0 Bft) SO 142 0 min 0,000 mm 0,0 UV-I 0 W/m -0,8 C 0,0 km/h (0 Bft)
10.10.2016 05:17 -0,1 C 0,0 C 96 % 1023,4 hPa 0,0 mm 0,0 km/h (0 Bft) SO 142 0 min 0,000 mm 0,0 UV-I 0 W/m -0,7 C 0,0 km/h (0 Bft)
10.10.2016 05:18 0,0 C 0,0 C 96 % 1023,4 hPa 0,0 mm 0,0 km/h (0 Bft) SO 142 0 min 0,000 mm 0,0 UV-I 0 W/m -0,6 C 0,0 km/h (0 Bft)
10.10.2016 05:19 0,1 C 0,1 C 96 % 1023,4 hPa 0,0 mm 0,0 km/h (0 Bft) SO 142 0 min 0,000 mm 0,0 UV-I 0 W/m -0,5 C 0,0 km/h (0 Bft)
10.10.2016 05:20 0,1 C 0,1 C 96 % 1023,4 hPa 0,0 mm 0,0 km/h (0 Bft) SO 142 0 min 0,000 mm 0,0 UV-I 0 W/m -0,5 C 0,0 km/h (0 Bft)
10.10.2016 05:21 0,1 C 0,1 C 96 % 1023,4 hPa 0,0 mm 0,0 km/h (0 Bft) SO 142 0 min 0,000 mm 0,0 UV-I 0 W/m -0,5 C 0,0 km/h (0 Bft)
10.10.2016 05:22 0,1 C 0,1 C 96 % 1023,4 hPa 0,0 mm 0,0 km/h (0 Bft) SO 142 0 min 0,000 mm 0,0 UV-I 0 W/m -0,5 C 0,0 km/h (0 Bft)
10.10.2016 05:23 0,0 C 0,1 C 96 % 1023,4 hPa 0,0 mm 0,0 km/h (0 Bft) SO 142 0 min 0,000 mm 0,0 UV-I 0 W/m -0,6 C 0,0 km/h (0 Bft)
10.10.2016 05:24 -0,1 C 0,0 C 96 % 1023,4 hPa 0,0 mm 0,0 km/h (0 Bft) SO 142 0 min 0,000 mm 0,0 UV-I 0 W/m -0,7 C 0,0 km/h (0 Bft)
10.10.2016 05:25 -0,2 C -0,1 C 96 % 1023,4 hPa 0,0 mm 0,0 km/h (0 Bft) SO 142 0 min 0,000 mm 0,0 UV-I 0 W/m -0,8 C 0,0 km/h (0 Bft)
10.10.2016 05:26 -0,3 C -0,2 C 95 % 1023,5 hPa 0,0 mm 0,0 km/h (0 Bft) SO 142 0 min 0,000 mm 0,0 UV-I 0 W/m -1,0 C 0,0 km/h (0 Bft)
10.10.2016 05:27 -0,3 C -0,3 C 95 % 1023,5 hPa 0,0 mm 0,0 km/h (0 Bft) SO 142 0 min 0,000 mm 0,0 UV-I 0 W/m -1,0 C 0,0 km/h (0 Bft)
10.10.2016 05:28 -0,4 C -0,3 C 95 % 1023,5 hPa 0,0 mm 0,0 km/h (0 Bft) SO 142 0 min 0,000 mm 0,0 UV-I 0 W/m -1,1 C 0,0 km/h (0 Bft)
10.10.2016 05:29 -0,5 C -0,4 C 95 % 1023,5 hPa 0,0 mm 0,0 km/h (0 Bft) SO 142 0 min 0,000 mm 0,0 UV-I 0 W/m -1,2 C 0,0 km/h (0 Bft)
10.10.2016 05:30 -0,6 C -0,5 C 95 % 1023,5 hPa 0,0 mm 0,0 km/h (0 Bft) SO 142 0 min 0,000 mm 0,0 UV-I 0 W/m -1,3 C 0,0 km/h (0 Bft)
10.10.2016 05:31 -0,7 C -0,6 C 95 % 1023,5 hPa 0,0 mm 0,0 km/h (0 Bft) SO 142 0 min 0,000 mm 0,0 UV-I 0 W/m -1,4 C 0,0 km/h (0 Bft)
10.10.2016 05:32 -0,7 C -0,6 C 95 % 1023,4 hPa 0,0 mm 0,5 km/h (0 Bft) SO 142 0 min 0,000 mm 0,0 UV-I 0 W/m -1,4 C 3,2 km/h (1 Bft)
10.10.2016 05:33 -0,7 C -0,7 C 95 % 1023,5 hPa 0,0 mm 2,4 km/h (1 Bft) SO 142 0 min 0,000 mm 0,0 UV-I 0 W/m -1,4 C 3,2 km/h (1 Bft)
10.10.2016 05:34 -0,7 C -0,7 C 95 % 1023,4 hPa 0,0 mm 1,9 km/h (1 Bft) SO 142 0 min 0,000 mm 0,0 UV-I 0 W/m -1,4 C 3,2 km/h (1 Bft)
10.10.2016 05:35 -0,7 C -0,6 C 95 % 1023,4 hPa 0,0 mm 1,9 km/h (1 Bft) SO 142 0 min 0,000 mm 0,0 UV-I 0 W/m -1,4 C 3,2 km/h (1 Bft)
10.10.2016 05:36 -0,7 C -0,7 C 95 % 1023,4 hPa 0,0 mm 0,3 km/h (0 Bft) SO 142 0 min 0,000 mm 0,0 UV-I 0 W/m -1,4 C 1,6 km/h (1 Bft)
10.10.2016 05:37 -0,7 C -0,6 C 95 % 1023,4 hPa 0,0 mm 0,0 km/h (0 Bft) SO 142 0 min 0,000 mm 0,0 UV-I 0 W/m -1,4 C 0,0 km/h (0 Bft)
10.10.2016 05:38 -0,6 C -0,6 C 95 % 1023,4 hPa 0,0 mm 0,0 km/h (0 Bft) SO 142 0 min 0,000 mm 0,0 UV-I 0 W/m -1,3 C 0,0 km/h (0 Bft)
10.10.2016 05:39 -0,6 C -0,6 C 95 % 1023,4 hPa 0,0 mm 0,3 km/h (0 Bft) SO 142 0 min 0,000 mm 0,0 UV-I 0 W/m -1,3 C 1,6 km/h (1 Bft)
10.10.2016 05:40 -0,5 C -0,5 C 96 % 1023,4 hPa 0,0 mm 0,5 km/h (0 Bft) SO 142 0 min 0,000 mm 0,0 UV-I 0 W/m -1,1 C 1,6 km/h (1 Bft)
10.10.2016 05:41 -0,4 C -0,4 C 96 % 1023,4 hPa 0,0 mm 1,4 km/h (1 Bft) SO 142 0 min 0,000 mm 0,0 UV-I 0 W/m -1,0 C 1,6 km/h (1 Bft)
10.10.2016 05:42 -0,3 C -0,3 C 96 % 1023,4 hPa 0,0 mm 1,5 km/h (1 Bft) SO 142 0 min 0,000 mm 0,0 UV-I 0 W/m -0,9 C 3,2 km/h (1 Bft)
10.10.2016 05:43 -0,3 C -0,3 C 96 % 1023,4 hPa 0,0 mm 0,8 km/h (0 Bft) SO 142 0 min 0,000 mm 0,0 UV-I 0 W/m -0,9 C 1,6 km/h (1 Bft)
10.10.2016 05:44 -0,2 C -0,2 C 96 % 1023,4 hPa 0,0 mm 0,7 km/h (0 Bft) SO 142 0 min 0,000 mm 0,0 UV-I 0 W/m -0,8 C 1,6 km/h (1 Bft)
10.10.2016 05:45 -0,1 C -0,1 C 96 % 1023,4 hPa 0,0 mm 0,1 km/h (0 Bft) SO 142 0 min 0,000 mm 0,0 UV-I 0 W/m -0,7 C 1,6 km/h (1 Bft)
10.10.2016 05:46 -0,1 C -0,1 C 96 % 1023,5 hPa 0,0 mm 0,3 km/h (0 Bft) SO 142 0 min 0,000 mm 0,0 UV-I 0 W/m -0,7 C 1,6 km/h (1 Bft)
10.10.2016 05:47 -0,1 C -0,1 C 96 % 1023,4 hPa 0,0 mm 1,3 km/h (1 Bft) SO 142 0 min 0,000 mm 0,0 UV-I 0 W/m -0,7 C 1,6 km/h (1 Bft)
10.10.2016 05:48 -0,1 C -0,1 C 96 % 1023,5 hPa 0,0 mm 1,1 km/h (1 Bft) SO 142 0 min 0,000 mm 0,0 UV-I 0 W/m -0,7 C 1,6 km/h (1 Bft)
10.10.2016 05:49 -0,1 C -0,1 C 96 % 1023,5 hPa 0,0 mm 0,6 km/h (0 Bft) SO 142 0 min 0,000 mm 0,0 UV-I 0 W/m -0,7 C 1,6 km/h (1 Bft)
10.10.2016 05:50 -0,1 C -0,1 C 96 % 1023,5 hPa 0,0 mm 1,3 km/h (1 Bft) SO 142 0 min 0,000 mm 0,0 UV-I 0 W/m -0,7 C 3,2 km/h (1 Bft)
10.10.2016 05:51 -0,1 C -0,1 C 96 % 1023,4 hPa 0,0 mm 1,7 km/h (1 Bft) SO 142 0 min 0,000 mm 0,0 UV-I 0 W/m -0,7 C 3,2 km/h (1 Bft)
10.10.2016 05:52 0,0 C 0,0 C 96 % 1023,4 hPa 0,0 mm 1,3 km/h (1 Bft) SO 142 0 min 0,000 mm 0,0 UV-I 0 W/m -0,6 C 3,2 km/h (1 Bft)
10.10.2016 05:53 0,0 C 0,0 C 96 % 1023,4 hPa 0,0 mm 2,0 km/h (1 Bft) SO 142 0 min 0,000 mm 0,0 UV-I 0 W/m -0,6 C 3,2 km/h (1 Bft)
10.10.2016 05:54 0,1 C 0,1 C 96 % 1023,4 hPa 0,0 mm 1,6 km/h (1 Bft) SO 142 0 min 0,000 mm 0,0 UV-I 0 W/m -0,5 C 3,2 km/h (1 Bft)
10.10.2016 05:55 0,1 C 0,1 C 96 % 1023,4 hPa 0,0 mm 1,4 km/h (1 Bft) SO 142 0 min 0,000 mm 0,0 UV-I 0 W/m -0,5 C 1,6 km/h (1 Bft)
10.10.2016 05:56 0,1 C 0,1 C 96 % 1023,4 hPa 0,0 mm 1,1 km/h (1 Bft) SO 142 0 min 0,000 mm 0,0 UV-I 0 W/m -0,5 C 1,6 km/h (1 Bft)
10.10.2016 05:57 0,2 C 0,2 C 96 % 1023,4 hPa 0,0 mm 1,0 km/h (0 Bft) SO 142 0 min 0,000 mm 0,0 UV-I 0 W/m -0,4 C 1,6 km/h (1 Bft)
10.10.2016 05:58 0,2 C 0,2 C 96 % 1023,4 hPa 0,0 mm 0,5 km/h (0 Bft) SO 142 0 min 0,000 mm 0,0 UV-I 0 W/m -0,4 C 1,6 km/h (1 Bft)
10.10.2016 05:59 0,2 C 0,2 C 96 % 1023,3 hPa 0,0 mm 0,3 km/h (0 Bft) SO 142 0 min 0,000 mm 0,0 UV-I 0 W/m -0,4 C 1,6 km/h (1 Bft)
10.10.2016 06:00 0,3 C 0,3 C 96 % 1023,4 hPa 0,0 mm 0,6 km/h (0 Bft) SO 142 0 min 0,000 mm 0,0 UV-I 0 W/m -0,3 C 1,6 km/h (1 Bft)
10.10.2016 06:01 0,3 C 0,3 C 96 % 1023,4 hPa 0,0 mm 0,6 km/h (0 Bft) SO 142 0 min 0,000 mm 0,0 UV-I 0 W/m -0,3 C 1,6 km/h (1 Bft)
10.10.2016 06:02 0,3 C 0,4 C 96 % 1023,3 hPa 0,0 mm 0,2 km/h (0 Bft) SO 142 0 min 0,000 mm 0,0 UV-I 0 W/m -0,3 C 1,6 km/h (1 Bft)
10.10.2016 06:03 0,4 C 0,4 C 96 % 1023,3 hPa 0,0 mm 0,0 km/h (0 Bft) SO 142 0 min 0,000 mm 0,0 UV-I 0 W/m -0,2 C 0,0 km/h (0 Bft)
10.10.2016 06:04 0,3 C 0,4 C 96 % 1023,3 hPa 0,0 mm 0,0 km/h (0 Bft) SO 142 0 min 0,000 mm 0,0 UV-I 0 W/m -0,3 C 0,0 km/h (0 Bft)
10.10.2016 06:05 0,2 C 0,3 C 96 % 1023,3 hPa 0,0 mm 0,1 km/h (0 Bft) SO 142 0 min 0,000 mm 0,0 UV-I 0 W/m -0,4 C 1,6 km/h (1 Bft)
10.10.2016 06:06 0,1 C 0,2 C 95 % 1023,3 hPa 0,0 mm 0,0 km/h (0 Bft) SO 142 0 min 0,000 mm 0,0 UV-I 0 W/m -0,6 C 0,0 km/h (0 Bft)
10.10.2016 06:07 -0,1 C 0,1 C 95 % 1023,4 hPa 0,0 mm 0,0 km/h (0 Bft) SO 142 0 min 0,000 mm 0,0 UV-I 0 W/m -0,8 C 0,0 km/h (0 Bft)
10.10.2016 06:08 -0,1 C 0,0 C 95 % 1023,3 hPa 0,0 mm 0,0 km/h (0 Bft) SO 142 0 min 0,000 mm 0,0 UV-I 0 W/m -0,8 C 0,0 km/h (0 Bft)
10.10.2016 06:09 -0,1 C -0,1 C 95 % 1023,4 hPa 0,0 mm 0,0 km/h (0 Bft) SO 142 0 min 0,000 mm 0,0 UV-I 0 W/m -0,8 C 0,0 km/h (0 Bft)
10.10.2016 06:10 -0,1 C -0,1 C 95 % 1023,3 hPa 0,0 mm 0,0 km/h (0 Bft) SO 142 0 min 0,000 mm 0,0 UV-I 0 W/m -0,8 C 0,0 km/h (0 Bft)
10.10.2016 06:11 -0,1 C -0,1 C 95 % 1023,3 hPa 0,0 mm 0,0 km/h (0 Bft) SO 142 0 min 0,000 mm 0,0 UV-I 0 W/m -0,8 C 0,0 km/h (0 Bft)
10.10.2016 06:12 -0,1 C -0,1 C 95 % 1023,3 hPa 0,0 mm 0,0 km/h (0 Bft) SO 142 0 min 0,000 mm 0,0 UV-I 0 W/m -0,8 C 0,0 km/h (0 Bft)
10.10.2016 06:13 -0,2 C -0,1 C 95 % 1023,3 hPa 0,0 mm 0,0 km/h (0 Bft) SO 142 0 min 0,000 mm 0,0 UV-I 0 W/m -0,9 C 0,0 km/h (0 Bft)
10.10.2016 06:14 -0,2 C -0,2 C 95 % 1023,3 hPa 0,0 mm 0,0 km/h (0 Bft) SO 142 0 min 0,000 mm 0,0 UV-I 0 W/m -0,9 C 0,0 km/h (0 Bft)
10.10.2016 06:15 -0,2 C -0,2 C 95 % 1023,4 hPa 0,0 mm 0,0 km/h (0 Bft) SO 142 0 min 0,000 mm 0,0 UV-I 0 W/m -0,9 C 0,0 km/h (0 Bft)
10.10.2016 06:16 -0,2 C -0,2 C 95 % 1023,4 hPa 0,0 mm 0,0 km/h (0 Bft) SO 142 0 min 0,000 mm 0,0 UV-I 0 W/m -0,9 C 0,0 km/h (0 Bft)
10.10.2016 06:17 -0,2 C -0,2 C 95 % 1023,3 hPa 0,0 mm 0,0 km/h (0 Bft) SO 142 0 min 0,000 mm 0,0 UV-I 0 W/m -0,9 C 0,0 km/h (0 Bft)
10.10.2016 06:18 -0,1 C -0,1 C 95 % 1023,4 hPa 0,0 mm 0,0 km/h (0 Bft) SO 142 0 min 0,000 mm 0,0 UV-I 0 W/m -0,8 C 0,0 km/h (0 Bft)
10.10.2016 06:19 -0,1 C -0,1 C 95 % 1023,3 hPa 0,0 mm 0,0 km/h (0 Bft) SO 142 0 min 0,000 mm 0,0 UV-I 0 W/m -0,8 C 0,0 km/h (0 Bft)
10.10.2016 06:20 -0,1 C -0,1 C 96 % 1023,3 hPa 0,0 mm 0,0 km/h (0 Bft) SO 142 0 min 0,000 mm 0,0 UV-I 0 W/m -0,7 C 0,0 km/h (0 Bft)
10.10.2016 06:21 0,0 C 0,0 C 96 % 1023,3 hPa 0,0 mm 0,0 km/h (0 Bft) SO 142 0 min 0,000 mm 0,0 UV-I 0 W/m -0,6 C 0,0 km/h (0 Bft)
10.10.2016 06:22 0,0 C 0,0 C 96 % 1023,3 hPa 0,0 mm 0,0 km/h (0 Bft) SO 142 0 min 0,000 mm 0,0 UV-I 0 W/m -0,6 C 0,0 km/h (0 Bft)
10.10.2016 06:23 0,0 C 0,0 C 96 % 1023,3 hPa 0,0 mm 0,0 km/h (0 Bft) SO 142 0 min 0,000 mm 0,0 UV-I 0 W/m -0,6 C 0,0 km/h (0 Bft)
10.10.2016 06:24 0,0 C 0,1 C 96 % 1023,3 hPa 0,0 mm 0,0 km/h (0 Bft) SO 142 0 min 0,000 mm 0,0 UV-I 0 W/m -0,6 C 0,0 km/h (0 Bft)
10.10.2016 06:25 0,0 C 0,1 C 96 % 1023,3 hPa 0,0 mm 0,0 km/h (0 Bft) SO 142 0 min 0,000 mm 0,0 UV-I 0 W/m -0,6 C 0,0 km/h (0 Bft)
10.10.2016 06:26 0,1 C 0,1 C 96 % 1023,3 hPa 0,0 mm 0,0 km/h (0 Bft) SO 142 0 min 0,000 mm 0,0 UV-I 0 W/m -0,5 C 0,0 km/h (0 Bft)
10.10.2016 06:27 0,1 C 0,1 C 96 % 1023,3 hPa 0,0 mm 0,0 km/h (0 Bft) SO 142 0 min 0,000 mm 0,0 UV-I 0 W/m -0,5 C 0,0 km/h (0 Bft)
10.10.2016 06:28 0,1 C 0,1 C 96 % 1023,3 hPa 0,0 mm 0,0 km/h (0 Bft) SO 142 0 min 0,000 mm 0,0 UV-I 0 W/m -0,5 C 0,0 km/h (0 Bft)
10.10.2016 06:29 0,1 C 0,1 C 96 % 1023,3 hPa 0,0 mm 0,4 km/h (0 Bft) SO 142 0 min 0,000 mm 0,0 UV-I 0 W/m -0,5 C 3,2 km/h (1 Bft)
10.10.2016 06:30 0,2 C 0,2 C 96 % 1023,3 hPa 0,0 mm 1,6 km/h (1 Bft) SO 142 0 min 0,000 mm 0,0 UV-I 0 W/m -0,4 C 3,2 km/h (1 Bft)
10.10.2016 06:31 0,3 C 0,3 C 96 % 1023,2 hPa 0,0 mm 0,3 km/h (0 Bft) SO 142 0 min 0,000 mm 0,0 UV-I 0 W/m -0,3 C 1,6 km/h (1 Bft)
10.10.2016 06:32 0,6 C 0,6 C 96 % 1023,2 hPa 0,0 mm 0,7 km/h (0 Bft) SO 142 0 min 0,000 mm 0,0 UV-I 0 W/m 0,0 C 1,6 km/h (1 Bft)
10.10.2016 06:33 0,7 C 0,7 C 96 % 1023,3 hPa 0,0 mm 0,9 km/h (0 Bft) SO 142 0 min 0,000 mm 0,0 UV-I 0 W/m 0,1 C 1,6 km/h (1 Bft)
10.10.2016 06:34 0,8 C 0,8 C 96 % 1023,2 hPa 0,0 mm 0,1 km/h (0 Bft) SO 142 0 min 0,000 mm 0,0 UV-I 0 W/m 0,2 C 1,6 km/h (1 Bft)
10.10.2016 06:35 0,9 C 0,9 C 96 % 1023,2 hPa 0,0 mm 1,3 km/h (1 Bft) SO 142 0 min 0,000 mm 0,0 UV-I 0 W/m 0,3 C 3,2 km/h (1 Bft)
10.10.2016 06:36 0,9 C 0,9 C 96 % 1023,2 hPa 0,0 mm 2,5 km/h (1 Bft) S-SO 150 0 min 0,000 mm 0,0 UV-I 0 W/m 0,3 C 4,8 km/h (1 Bft)
10.10.2016 06:37 1,0 C 1,0 C 96 % 1023,2 hPa 0,0 mm 2,1 km/h (1 Bft) S-SO 150 0 min 0,000 mm 0,0 UV-I 0 W/m 0,4 C 3,2 km/h (1 Bft)
10.10.2016 06:38 1,1 C 1,1 C 96 % 1023,2 hPa 0,0 mm 1,1 km/h (1 Bft) S-SO 150 0 min 0,000 mm 0,0 UV-I 0 W/m 0,5 C 1,6 km/h (1 Bft)
10.10.2016 06:39 1,1 C 1,1 C 96 % 1023,2 hPa 0,0 mm 0,1 km/h (0 Bft) S-SO 150 0 min 0,000 mm 0,0 UV-I 0 W/m 0,5 C 1,6 km/h (1 Bft)
10.10.2016 06:40 1,2 C 1,2 C 96 % 1023,2 hPa 0,0 mm 0,0 km/h (0 Bft) S-SO 150 0 min 0,000 mm 0,0 UV-I 0 W/m 0,6 C 0,0 km/h (0 Bft)
10.10.2016 06:41 1,2 C 1,2 C 96 % 1023,2 hPa 0,0 mm 0,0 km/h (0 Bft) S-SO 150 0 min 0,000 mm 0,0 UV-I 0 W/m 0,6 C 0,0 km/h (0 Bft)
10.10.2016 06:42 1,2 C 1,2 C 96 % 1023,2 hPa 0,0 mm 0,0 km/h (0 Bft) S-SO 150 0 min 0,000 mm 0,0 UV-I 0 W/m 0,6 C 0,0 km/h (0 Bft)
10.10.2016 06:43 1,2 C 1,2 C 96 % 1023,2 hPa 0,0 mm 0,6 km/h (0 Bft) S-SO 150 0 min 0,000 mm 0,0 UV-I 0 W/m 0,6 C 3,2 km/h (1 Bft)
10.10.2016 06:44 1,1 C 1,2 C 96 % 1023,2 hPa 0,0 mm 1,6 km/h (1 Bft) S-SO 150 0 min 0,000 mm 0,0 UV-I 0 W/m 0,5 C 1,6 km/h (1 Bft)
10.10.2016 06:45 1,0 C 1,1 C 96 % 1023,1 hPa 0,0 mm 0,5 km/h (0 Bft) S-SO 150 0 min 0,000 mm 0,0 UV-I 0 W/m 0,4 C 1,6 km/h (1 Bft)
10.10.2016 06:46 0,9 C 1,0 C 96 % 1023,2 hPa 0,0 mm 0,2 km/h (0 Bft) S-SO 150 0 min 0,000 mm 0,0 UV-I 0 W/m 0,3 C 1,6 km/h (1 Bft)
10.10.2016 06:47 0,8 C 0,9 C 95 % 1023,2 hPa 0,0 mm 0,0 km/h (0 Bft) S-SO 150 0 min 0,000 mm 0,0 UV-I 0 W/m 0,1 C 0,0 km/h (0 Bft)
10.10.2016 06:48 0,8 C 0,8 C 95 % 1023,1 hPa 0,0 mm 0,3 km/h (0 Bft) S-SO 150 0 min 0,000 mm 0,0 UV-I 0 W/m 0,1 C 1,6 km/h (1 Bft)
10.10.2016 06:49 0,7 C 0,8 C 95 % 1023,1 hPa 0,0 mm 1,3 km/h (1 Bft) S-SO 150 0 min 0,000 mm 0,0 UV-I 0 W/m -0,0 C 1,6 km/h (1 Bft)
10.10.2016 06:50 0,7 C 0,7 C 95 % 1023,1 hPa 0,0 mm 0,2 km/h (0 Bft) S-SO 150 0 min 0,000 mm 0,0 UV-I 0 W/m -0,0 C 1,6 km/h (1 Bft)
10.10.2016 06:51 0,7 C 0,7 C 95 % 1023,1 hPa 0,0 mm 0,0 km/h (0 Bft) S-SO 150 0 min 0,000 mm 0,0 UV-I 0 W/m -0,0 C 0,0 km/h (0 Bft)
10.10.2016 06:52 0,7 C 0,7 C 95 % 1023,1 hPa 0,0 mm 0,0 km/h (0 Bft) S-SO 150 0 min 0,000 mm 0,0 UV-I 0 W/m -0,0 C 0,0 km/h (0 Bft)
10.10.2016 06:53 0,7 C 0,7 C 96 % 1023,2 hPa 0,0 mm 0,0 km/h (0 Bft) S-SO 150 0 min 0,000 mm 0,0 UV-I 0 W/m 0,1 C 0,0 km/h (0 Bft)
10.10.2016 06:54 0,7 C 0,7 C 96 % 1023,1 hPa 0,0 mm 0,0 km/h (0 Bft) S-SO 150 0 min 0,000 mm 0,0 UV-I 0 W/m 0,1 C 0,0 km/h (0 Bft)
10.10.2016 06:55 0,8 C 0,8 C 96 % 1023,1 hPa 0,0 mm 0,0 km/h (0 Bft) S-SO 150 0 min 0,000 mm 0,0 UV-I 0 W/m 0,2 C 0,0 km/h (0 Bft)
10.10.2016 06:56 0,8 C 0,8 C 96 % 1023,2 hPa 0,0 mm 1,5 km/h (1 Bft) S-SO 149 0 min 0,000 mm 0,0 UV-I 0 W/m 0,2 C 3,2 km/h (1 Bft)
10.10.2016 06:57 0,8 C 0,8 C 96 % 1023,1 hPa 0,0 mm 2,2 km/h (1 Bft) SO 134 0 min 0,000 mm 0,0 UV-I 0 W/m 0,2 C 3,2 km/h (1 Bft)
10.10.2016 06:58 0,8 C 0,8 C 96 % 1023,2 hPa 0,0 mm 1,4 km/h (1 Bft) SO 134 0 min 0,000 mm 0,0 UV-I 0 W/m 0,2 C 1,6 km/h (1 Bft)
10.10.2016 06:59 0,8 C 0,8 C 96 % 1023,1 hPa 0,0 mm 0,1 km/h (0 Bft) SO 134 0 min 0,000 mm 0,0 UV-I 0 W/m 0,2 C 1,6 km/h (1 Bft)
10.10.2016 07:00 0,8 C 0,8 C 96 % 1023,1 hPa 0,0 mm 0,0 km/h (0 Bft) SO 134 0 min 0,000 mm 0,0 UV-I 0 W/m 0,2 C 0,0 km/h (0 Bft)
10.10.2016 07:01 0,8 C 0,8 C 96 % 1023,1 hPa 0,0 mm 0,7 km/h (0 Bft) SO 134 0 min 0,000 mm 0,0 UV-I 0 W/m 0,2 C 1,6 km/h (1 Bft)
10.10.2016 07:02 0,8 C 0,8 C 96 % 1023,1 hPa 0,0 mm 0,3 km/h (0 Bft) SO 134 0 min 0,000 mm 0,0 UV-I 0 W/m 0,2 C 1,6 km/h (1 Bft)
10.10.2016 07:03 0,8 C 0,8 C 96 % 1023,1 hPa 0,0 mm 0,0 km/h (0 Bft) SO 134 0 min 0,000 mm 0,0 UV-I 0 W/m 0,2 C 0,0 km/h (0 Bft)
10.10.2016 07:04 0,8 C 0,8 C 96 % 1023,1 hPa 0,0 mm 0,0 km/h (0 Bft) SO 134 0 min 0,000 mm 0,0 UV-I 0 W/m 0,2 C 0,0 km/h (0 Bft)
10.10.2016 07:05 0,8 C 0,8 C 96 % 1023,1 hPa 0,0 mm 0,0 km/h (0 Bft) SO 134 0 min 0,000 mm 0,0 UV-I 0 W/m 0,2 C 0,0 km/h (0 Bft)
10.10.2016 07:06 0,9 C 0,9 C 96 % 1023,1 hPa 0,0 mm 0,0 km/h (0 Bft) SO 134 0 min 0,000 mm 0,0 UV-I 0 W/m 0,3 C 0,0 km/h (0 Bft)
10.10.2016 07:07 0,9 C 0,9 C 96 % 1023,1 hPa 0,0 mm 0,0 km/h (0 Bft) SO 134 0 min 0,000 mm 0,0 UV-I 0 W/m 0,3 C 0,0 km/h (0 Bft)
10.10.2016 07:08 0,9 C 0,9 C 96 % 1023,1 hPa 0,0 mm 0,0 km/h (0 Bft) SO 134 0 min 0,000 mm 0,0 UV-I 0 W/m 0,3 C 0,0 km/h (0 Bft)
10.10.2016 07:09 1,0 C 1,0 C 96 % 1023,1 hPa 0,0 mm 0,1 km/h (0 Bft) SO 134 0 min 0,000 mm 0,0 UV-I 0 W/m 0,4 C 1,6 km/h (1 Bft)
10.10.2016 07:10 1,0 C 1,0 C 96 % 1023,1 hPa 0,0 mm 0,5 km/h (0 Bft) SO 134 0 min 0,000 mm 0,0 UV-I 0 W/m 0,4 C 1,6 km/h (1 Bft)
10.10.2016 07:11 1,0 C 1,0 C 96 % 1023,1 hPa 0,0 mm 0,0 km/h (0 Bft) SO 134 0 min 0,000 mm 0,0 UV-I 0 W/m 0,4 C 0,0 km/h (0 Bft)
10.10.2016 07:12 1,0 C 1,0 C 96 % 1023,1 hPa 0,0 mm 0,0 km/h (0 Bft) SO 134 0 min 0,000 mm 0,0 UV-I 0 W/m 0,4 C 0,0 km/h (0 Bft)
10.10.2016 07:13 1,1 C 1,1 C 96 % 1023,2 hPa 0,0 mm 0,1 km/h (0 Bft) SO 134 0 min 0,000 mm 0,0 UV-I 0 W/m 0,5 C 1,6 km/h (1 Bft)
10.10.2016 07:14 1,1 C 1,1 C 96 % 1023,2 hPa 0,0 mm 0,3 km/h (0 Bft) SO 134 0 min 0,000 mm 0,0 UV-I 0 W/m 0,5 C 1,6 km/h (1 Bft)
10.10.2016 07:15 1,1 C 1,1 C 96 % 1023,1 hPa 0,0 mm 0,0 km/h (0 Bft) SO 134 0 min 0,000 mm 0,0 UV-I 0 W/m 0,5 C 0,0 km/h (0 Bft)
10.10.2016 07:16 1,1 C 1,1 C 96 % 1023,1 hPa 0,0 mm 0,0 km/h (0 Bft) SO 134 0 min 0,000 mm 0,0 UV-I 0 W/m 0,5 C 0,0 km/h (0 Bft)
10.10.2016 07:17 1,1 C 1,2 C 96 % 1023,2 hPa 0,0 mm 0,0 km/h (0 Bft) SO 134 0 min 0,000 mm 0,0 UV-I 0 W/m 0,5 C 0,0 km/h (0 Bft)
10.10.2016 07:18 1,1 C 1,2 C 96 % 1023,2 hPa 0,0 mm 0,0 km/h (0 Bft) SO 134 0 min 0,000 mm 0,0 UV-I 0 W/m 0,5 C 0,0 km/h (0 Bft)
10.10.2016 07:19 1,2 C 1,2 C 96 % 1023,2 hPa 0,0 mm 0,0 km/h (0 Bft) SO 134 0 min 0,000 mm 0,0 UV-I 0 W/m 0,6 C 0,0 km/h (0 Bft)
10.10.2016 07:20 1,2 C 1,2 C 96 % 1023,2 hPa 0,0 mm 0,0 km/h (0 Bft) SO 134 0 min 0,000 mm 0,0 UV-I 0 W/m 0,6 C 0,0 km/h (0 Bft)
10.10.2016 07:21 1,2 C 1,2 C 96 % 1023,2 hPa 0,0 mm 0,0 km/h (0 Bft) SO 134 0 min 0,000 mm 0,0 UV-I 0 W/m 0,6 C 0,0 km/h (0 Bft)
10.10.2016 07:22 1,3 C 1,3 C 96 % 1023,2 hPa 0,0 mm 0,0 km/h (0 Bft) SO 134 0 min 0,000 mm 0,0 UV-I 0 W/m 0,7 C 0,0 km/h (0 Bft)
10.10.2016 07:23 1,3 C 1,3 C 96 % 1023,2 hPa 0,0 mm 0,0 km/h (0 Bft) SO 134 0 min 0,000 mm 0,0 UV-I 0 W/m 0,7 C 0,0 km/h (0 Bft)
10.10.2016 07:24 1,3 C 1,3 C 96 % 1023,2 hPa 0,0 mm 0,0 km/h (0 Bft) SO 134 0 min 0,000 mm 0,0 UV-I 0 W/m 0,7 C 0,0 km/h (0 Bft)
10.10.2016 07:25 1,3 C 1,3 C 96 % 1023,2 hPa 0,0 mm 0,0 km/h (0 Bft) SO 134 0 min 0,000 mm 0,0 UV-I 0 W/m 0,7 C 0,0 km/h (0 Bft)
10.10.2016 07:26 1,4 C 1,4 C 96 % 1023,2 hPa 0,0 mm 0,5 km/h (0 Bft) SO 134 0 min 0,000 mm 0,0 UV-I 0 W/m 0,8 C 1,6 km/h (1 Bft)
10.10.2016 07:27 1,4 C 1,4 C 96 % 1023,2 hPa 0,0 mm 0,3 km/h (0 Bft) SO 134 0 min 0,000 mm 0,0 UV-I 0 W/m 0,8 C 1,6 km/h (1 Bft)
10.10.2016 07:28 1,4 C 1,4 C 96 % 1023,2 hPa 0,0 mm 0,0 km/h (0 Bft) SO 134 0 min 0,000 mm 0,0 UV-I 0 W/m 0,8 C 0,0 km/h (0 Bft)
10.10.2016 07:29 1,4 C 1,4 C 96 % 1023,2 hPa 0,0 mm 0,0 km/h (0 Bft) SO 134 0 min 0,000 mm 0,0 UV-I 0 W/m 0,8 C 0,0 km/h (0 Bft)
10.10.2016 07:30 1,4 C 1,5 C 96 % 1023,3 hPa 0,0 mm 0,1 km/h (0 Bft) SO 134 0 min 0,000 mm 0,0 UV-I 0 W/m 0,8 C 1,6 km/h (1 Bft)
10.10.2016 07:31 1,6 C 1,6 C 96 % 1023,2 hPa 0,0 mm 3,2 km/h (1 Bft) O-NO 66 0 min 0,000 mm 0,0 UV-I 0 W/m 1,0 C 4,8 km/h (1 Bft)
10.10.2016 07:32 1,6 C 1,6 C 96 % 1023,3 hPa 0,0 mm 1,1 km/h (1 Bft) O-NO 66 0 min 0,000 mm 0,0 UV-I 0 W/m 1,0 C 3,2 km/h (1 Bft)
10.10.2016 07:33 1,5 C 1,6 C 96 % 1023,3 hPa 0,0 mm 0,0 km/h (0 Bft) O-NO 66 0 min 0,000 mm 0,0 UV-I 0 W/m 0,9 C 0,0 km/h (0 Bft)
10.10.2016 07:34 1,4 C 1,5 C 96 % 1023,3 hPa 0,0 mm 0,0 km/h (0 Bft) O-NO 66 0 min 0,000 mm 0,0 UV-I 0 W/m 0,8 C 0,0 km/h (0 Bft)
10.10.2016 07:35 1,5 C 1,5 C 96 % 1023,2 hPa 0,0 mm 0,0 km/h (0 Bft) O-NO 66 0 min 0,000 mm 0,0 UV-I 0 W/m 0,9 C 0,0 km/h (0 Bft)
10.10.2016 07:36 1,4 C 1,5 C 96 % 1023,3 hPa 0,0 mm 0,1 km/h (0 Bft) O-NO 66 0 min 0,000 mm 0,0 UV-I 0 W/m 0,8 C 1,6 km/h (1 Bft)
10.10.2016 07:37 1,5 C 1,5 C 96 % 1023,3 hPa 0,0 mm 0,7 km/h (0 Bft) O-NO 66 0 min 0,000 mm 0,0 UV-I 0 W/m 0,9 C 1,6 km/h (1 Bft)
10.10.2016 07:38 1,5 C 1,5 C 96 % 1023,3 hPa 0,0 mm 0,4 km/h (0 Bft) O-NO 66 0 min 0,000 mm 0,0 UV-I 0 W/m 0,9 C 1,6 km/h (1 Bft)
10.10.2016 07:39 1,5 C 1,5 C 96 % 1023,3 hPa 0,0 mm 0,0 km/h (0 Bft) O-NO 66 0 min 0,000 mm 0,0 UV-I 0 W/m 0,9 C 0,0 km/h (0 Bft)
10.10.2016 07:40 1,5 C 1,5 C 96 % 1023,3 hPa 0,0 mm 0,0 km/h (0 Bft) O-NO 66 0 min 0,000 mm 0,0 UV-I 0 W/m 0,9 C 0,0 km/h (0 Bft)
10.10.2016 07:41 1,5 C 1,5 C 96 % 1023,3 hPa 0,0 mm 0,0 km/h (0 Bft) O-NO 66 0 min 0,000 mm 0,0 UV-I 0 W/m 0,9 C 0,0 km/h (0 Bft)
10.10.2016 07:42 1,6 C 1,6 C 96 % 1023,3 hPa 0,0 mm 0,0 km/h (0 Bft) O-NO 66 0 min 0,000 mm 0,0 UV-I 0 W/m 1,0 C 0,0 km/h (0 Bft)
10.10.2016 07:43 1,6 C 1,6 C 96 % 1023,3 hPa 0,0 mm 0,0 km/h (0 Bft) O-NO 66 0 min 0,000 mm 0,0 UV-I 0 W/m 1,0 C 0,0 km/h (0 Bft)
10.10.2016 07:44 1,6 C 1,6 C 96 % 1023,3 hPa 0,0 mm 0,0 km/h (0 Bft) O-NO 66 0 min 0,000 mm 0,0 UV-I 0 W/m 1,0 C 0,0 km/h (0 Bft)
10.10.2016 07:45 1,6 C 1,6 C 96 % 1023,2 hPa 0,0 mm 0,0 km/h (0 Bft) O-NO 66 0 min 0,000 mm 0,0 UV-I 0 W/m 1,0 C 0,0 km/h (0 Bft)
10.10.2016 07:46 1,6 C 1,6 C 96 % 1023,3 hPa 0,0 mm 0,0 km/h (0 Bft) O-NO 66 0 min 0,000 mm 0,0 UV-I 0 W/m 1,0 C 0,0 km/h (0 Bft)
10.10.2016 07:47 1,6 C 1,6 C 96 % 1023,3 hPa 0,0 mm 0,0 km/h (0 Bft) O-NO 66 0 min 0,000 mm 0,0 UV-I 0 W/m 1,0 C 0,0 km/h (0 Bft)
10.10.2016 07:48 1,7 C 1,7 C 96 % 1023,3 hPa 0,0 mm 0,0 km/h (0 Bft) O-NO 66 0 min 0,000 mm 0,0 UV-I 0 W/m 1,1 C 0,0 km/h (0 Bft)
10.10.2016 07:49 1,7 C 1,7 C 96 % 1023,3 hPa 0,0 mm 0,0 km/h (0 Bft) O-NO 66 0 min 0,000 mm 0,0 UV-I 0 W/m 1,1 C 0,0 km/h (0 Bft)
10.10.2016 07:50 1,7 C 1,7 C 96 % 1023,3 hPa 0,0 mm 0,0 km/h (0 Bft) O-NO 66 0 min 0,000 mm 0,0 UV-I 0 W/m 1,1 C 0,0 km/h (0 Bft)
10.10.2016 07:51 1,7 C 1,7 C 96 % 1023,3 hPa 0,0 mm 0,0 km/h (0 Bft) O-NO 66 0 min 0,000 mm 0,0 UV-I 0 W/m 1,1 C 0,0 km/h (0 Bft)
10.10.2016 07:52 1,7 C 1,7 C 96 % 1023,3 hPa 0,0 mm 0,0 km/h (0 Bft) O-NO 66 0 min 0,000 mm 0,0 UV-I 0 W/m 1,1 C 0,0 km/h (0 Bft)
10.10.2016 07:53 1,7 C 1,7 C 96 % 1023,3 hPa 0,0 mm 0,0 km/h (0 Bft) O-NO 66 0 min 0,000 mm 0,0 UV-I 0 W/m 1,1 C 0,0 km/h (0 Bft)
10.10.2016 07:54 1,8 C 1,8 C 96 % 1023,3 hPa 0,0 mm 0,0 km/h (0 Bft) O-NO 66 0 min 0,000 mm 0,0 UV-I 0 W/m 1,2 C 0,0 km/h (0 Bft)
10.10.2016 07:55 1,8 C 1,8 C 96 % 1023,3 hPa 0,0 mm 0,0 km/h (0 Bft) O-NO 66 0 min 0,000 mm 0,0 UV-I 0 W/m 1,2 C 0,0 km/h (0 Bft)
10.10.2016 07:56 1,8 C 1,8 C 96 % 1023,3 hPa 0,0 mm 0,0 km/h (0 Bft) O-NO 66 0 min 0,000 mm 0,0 UV-I 5 W/m 1,2 C 0,0 km/h (0 Bft)
10.10.2016 07:57 1,8 C 1,8 C 96 % 1023,3 hPa 0,0 mm 0,0 km/h (0 Bft) O-NO 66 0 min 0,000 mm 0,0 UV-I 5 W/m 1,2 C 0,0 km/h (0 Bft)
10.10.2016 07:58 1,8 C 1,8 C 96 % 1023,2 hPa 0,0 mm 0,0 km/h (0 Bft) O-NO 66 0 min 0,000 mm 0,0 UV-I 5 W/m 1,2 C 0,0 km/h (0 Bft)
10.10.2016 07:59 1,8 C 1,8 C 96 % 1023,3 hPa 0,0 mm 0,0 km/h (0 Bft) O-NO 66 0 min 0,000 mm 0,0 UV-I 5 W/m 1,2 C 0,0 km/h (0 Bft)
10.10.2016 08:00 1,8 C 1,9 C 96 % 1023,2 hPa 0,0 mm 0,0 km/h (0 Bft) O-NO 66 0 min 0,000 mm 0,0 UV-I 7 W/m 1,2 C 0,0 km/h (0 Bft)
10.10.2016 08:01 1,9 C 1,9 C 96 % 1023,3 hPa 0,0 mm 0,0 km/h (0 Bft) O-NO 66 0 min 0,000 mm 0,0 UV-I 7 W/m 1,3 C 0,0 km/h (0 Bft)
10.10.2016 08:02 1,9 C 1,9 C 96 % 1023,3 hPa 0,0 mm 0,0 km/h (0 Bft) O-NO 66 0 min 0,000 mm 0,0 UV-I 11 W/m 1,3 C 0,0 km/h (0 Bft)
10.10.2016 08:03 1,9 C 1,9 C 96 % 1023,2 hPa 0,0 mm 0,0 km/h (0 Bft) O-NO 66 0 min 0,000 mm 0,0 UV-I 11 W/m 1,3 C 0,0 km/h (0 Bft)
10.10.2016 08:04 2,0 C 2,0 C 96 % 1023,3 hPa 0,0 mm 0,0 km/h (0 Bft) O-NO 66 0 min 0,000 mm 0,0 UV-I 12 W/m 1,4 C 0,0 km/h (0 Bft)
10.10.2016 08:05 2,0 C 2,0 C 96 % 1023,2 hPa 0,0 mm 0,0 km/h (0 Bft) O-NO 66 0 min 0,000 mm 0,0 UV-I 12 W/m 1,4 C 0,0 km/h (0 Bft)
10.10.2016 08:06 2,1 C 2,1 C 96 % 1023,2 hPa 0,0 mm 0,0 km/h (0 Bft) O-NO 66 0 min 0,000 mm 0,0 UV-I 14 W/m 1,5 C 0,0 km/h (0 Bft)
10.10.2016 08:07 2,1 C 2,1 C 96 % 1023,3 hPa 0,0 mm 0,0 km/h (0 Bft) O-NO 66 0 min 0,000 mm 0,0 UV-I 14 W/m 1,5 C 0,0 km/h (0 Bft)
10.10.2016 08:08 2,2 C 2,2 C 96 % 1023,2 hPa 0,0 mm 0,0 km/h (0 Bft) O-NO 66 0 min 0,000 mm 0,0 UV-I 16 W/m 1,6 C 0,0 km/h (0 Bft)
10.10.2016 08:09 2,2 C 2,2 C 96 % 1023,3 hPa 0,0 mm 0,1 km/h (0 Bft) O-NO 66 0 min 0,000 mm 0,0 UV-I 16 W/m 1,6 C 1,6 km/h (1 Bft)
10.10.2016 08:10 2,2 C 2,2 C 96 % 1023,2 hPa 0,0 mm 0,7 km/h (0 Bft) O-NO 66 0 min 0,000 mm 0,0 UV-I 16 W/m 1,6 C 1,6 km/h (1 Bft)
10.10.2016 08:11 2,2 C 2,2 C 96 % 1023,2 hPa 0,0 mm 0,5 km/h (0 Bft) O-NO 66 0 min 0,000 mm 0,0 UV-I 16 W/m 1,6 C 1,6 km/h (1 Bft)
10.10.2016 08:12 2,2 C 2,2 C 96 % 1023,2 hPa 0,0 mm 0,5 km/h (0 Bft) O-NO 66 0 min 0,000 mm 0,0 UV-I 16 W/m 1,6 C 1,6 km/h (1 Bft)
10.10.2016 08:13 2,2 C 2,2 C 96 % 1023,2 hPa 0,0 mm 0,9 km/h (0 Bft) O-NO 66 0 min 0,000 mm 0,0 UV-I 16 W/m 1,6 C 1,6 km/h (1 Bft)
10.10.2016 08:14 2,2 C 2,2 C 96 % 1023,2 hPa 0,0 mm 0,1 km/h (0 Bft) O-NO 66 0 min 0,000 mm 0,0 UV-I 19 W/m 1,6 C 1,6 km/h (1 Bft)
10.10.2016 08:15 2,2 C 2,2 C 96 % 1023,2 hPa 0,0 mm 0,0 km/h (0 Bft) O-NO 66 0 min 0,000 mm 0,0 UV-I 21 W/m 1,6 C 0,0 km/h (0 Bft)
10.10.2016 08:16 2,2 C 2,2 C 96 % 1023,2 hPa 0,0 mm 0,0 km/h (0 Bft) O-NO 66 0 min 0,000 mm 0,0 UV-I 21 W/m 1,6 C 0,0 km/h (0 Bft)
10.10.2016 08:17 2,2 C 2,2 C 96 % 1023,2 hPa 0,0 mm 0,0 km/h (0 Bft) O-NO 66 0 min 0,000 mm 0,0 UV-I 21 W/m 1,6 C 0,0 km/h (0 Bft)
10.10.2016 08:18 2,2 C 2,2 C 96 % 1023,2 hPa 0,0 mm 0,0 km/h (0 Bft) O-NO 66 0 min 0,000 mm 0,0 UV-I 21 W/m 1,6 C 0,0 km/h (0 Bft)
10.10.2016 08:19 2,2 C 2,2 C 96 % 1023,2 hPa 0,0 mm 0,0 km/h (0 Bft) O-NO 66 0 min 0,000 mm 0,0 UV-I 21 W/m 1,6 C 0,0 km/h (0 Bft)
10.10.2016 08:20 2,2 C 2,2 C 96 % 1023,2 hPa 0,0 mm 0,0 km/h (0 Bft) O-NO 66 0 min 0,000 mm 0,0 UV-I 21 W/m 1,6 C 0,0 km/h (0 Bft)
10.10.2016 08:21 2,2 C 2,2 C 96 % 1023,3 hPa 0,0 mm 0,0 km/h (0 Bft) O-NO 66 0 min 0,000 mm 0,0 UV-I 21 W/m 1,6 C 0,0 km/h (0 Bft)
10.10.2016 08:22 2,2 C 2,2 C 96 % 1023,3 hPa 0,0 mm 0,0 km/h (0 Bft) O-NO 66 0 min 0,000 mm 0,0 UV-I 21 W/m 1,6 C 0,0 km/h (0 Bft)
10.10.2016 08:23 2,2 C 2,2 C 96 % 1023,3 hPa 0,0 mm 0,0 km/h (0 Bft) O-NO 66 0 min 0,000 mm 0,0 UV-I 19 W/m 1,6 C 0,0 km/h (0 Bft)
10.10.2016 08:24 2,2 C 2,2 C 96 % 1023,3 hPa 0,0 mm 0,0 km/h (0 Bft) O-NO 66 0 min 0,000 mm 0,0 UV-I 19 W/m 1,6 C 0,0 km/h (0 Bft)
10.10.2016 08:25 2,2 C 2,2 C 96 % 1023,3 hPa 0,0 mm 0,0 km/h (0 Bft) O-NO 66 0 min 0,000 mm 0,0 UV-I 21 W/m 1,6 C 0,0 km/h (0 Bft)
10.10.2016 08:26 2,3 C 2,3 C 96 % 1023,3 hPa 0,0 mm 0,0 km/h (0 Bft) O-NO 66 0 min 0,000 mm 0,0 UV-I 23 W/m 1,7 C 0,0 km/h (0 Bft)
10.10.2016 08:27 2,3 C 2,3 C 97 % 1023,3 hPa 0,0 mm 0,0 km/h (0 Bft) O-NO 66 0 min 0,000 mm 0,0 UV-I 23 W/m 1,9 C 0,0 km/h (0 Bft)
10.10.2016 08:28 2,3 C 2,3 C 96 % 1023,3 hPa 0,0 mm 0,0 km/h (0 Bft) O-NO 66 0 min 0,000 mm 0,0 UV-I 23 W/m 1,7 C 0,0 km/h (0 Bft)
10.10.2016 08:29 2,3 C 2,3 C 96 % 1023,3 hPa 0,0 mm 0,0 km/h (0 Bft) O-NO 66 0 min 0,000 mm 0,0 UV-I 23 W/m 1,7 C 0,0 km/h (0 Bft)
10.10.2016 08:30 2,4 C 2,4 C 96 % 1023,3 hPa 0,0 mm 0,0 km/h (0 Bft) O-NO 66 0 min 0,000 mm 0,0 UV-I 23 W/m 1,8 C 0,0 km/h (0 Bft)
10.10.2016 08:31 2,3 C 2,4 C 96 % 1023,3 hPa 0,0 mm 0,0 km/h (0 Bft) O-NO 66 0 min 0,000 mm 0,0 UV-I 23 W/m 1,7 C 0,0 km/h (0 Bft)
10.10.2016 08:32 2,4 C 2,4 C 96 % 1023,3 hPa 0,0 mm 0,0 km/h (0 Bft) O-NO 66 0 min 0,000 mm 0,0 UV-I 23 W/m 1,8 C 0,0 km/h (0 Bft)
10.10.2016 08:33 2,3 C 2,4 C 96 % 1023,3 hPa 0,0 mm 0,0 km/h (0 Bft) O-NO 66 0 min 0,000 mm 0,0 UV-I 23 W/m 1,7 C 0,0 km/h (0 Bft)
10.10.2016 08:34 2,4 C 2,4 C 96 % 1023,3 hPa 0,0 mm 0,0 km/h (0 Bft) O-NO 66 0 min 0,000 mm 0,0 UV-I 23 W/m 1,8 C 0,0 km/h (0 Bft)
10.10.2016 08:35 2,4 C 2,4 C 96 % 1023,3 hPa 0,0 mm 0,0 km/h (0 Bft) O-NO 66 0 min 0,000 mm 0,0 UV-I 23 W/m 1,8 C 0,0 km/h (0 Bft)
10.10.2016 08:36 2,4 C 2,4 C 96 % 1023,3 hPa 0,0 mm 0,0 km/h (0 Bft) O-NO 66 0 min 0,000 mm 0,0 UV-I 23 W/m 1,8 C 0,0 km/h (0 Bft)
10.10.2016 08:37 2,4 C 2,4 C 96 % 1023,3 hPa 0,0 mm 0,0 km/h (0 Bft) O-NO 66 0 min 0,000 mm 0,0 UV-I 23 W/m 1,8 C 0,0 km/h (0 Bft)
10.10.2016 08:38 2,4 C 2,4 C 96 % 1023,3 hPa 0,0 mm 0,0 km/h (0 Bft) O-NO 66 0 min 0,000 mm 0,0 UV-I 23 W/m 1,8 C 0,0 km/h (0 Bft)
10.10.2016 08:39 2,4 C 2,4 C 96 % 1023,3 hPa 0,0 mm 0,0 km/h (0 Bft) O-NO 66 0 min 0,000 mm 0,0 UV-I 23 W/m 1,8 C 0,0 km/h (0 Bft)
10.10.2016 08:40 2,4 C 2,5 C 96 % 1023,3 hPa 0,0 mm 0,0 km/h (0 Bft) O-NO 66 0 min 0,000 mm 0,0 UV-I 23 W/m 1,8 C 0,0 km/h (0 Bft)
10.10.2016 08:41 2,6 C 2,6 C 97 % 1023,3 hPa 0,0 mm 0,0 km/h (0 Bft) O-NO 66 0 min 0,000 mm 0,0 UV-I 25 W/m 2,2 C 0,0 km/h (0 Bft)
10.10.2016 08:42 2,6 C 2,6 C 97 % 1023,3 hPa 0,0 mm 0,0 km/h (0 Bft) O-NO 66 0 min 0,000 mm 0,0 UV-I 26 W/m 2,2 C 0,0 km/h (0 Bft)
10.10.2016 08:43 2,6 C 2,6 C 97 % 1023,3 hPa 0,0 mm 0,0 km/h (0 Bft) O-NO 66 0 min 0,000 mm 0,0 UV-I 28 W/m 2,2 C 0,0 km/h (0 Bft)
10.10.2016 08:44 2,6 C 2,6 C 97 % 1023,3 hPa 0,0 mm 0,0 km/h (0 Bft) O-NO 66 0 min 0,000 mm 0,0 UV-I 28 W/m 2,2 C 0,0 km/h (0 Bft)
10.10.2016 08:45 2,6 C 2,6 C 97 % 1023,4 hPa 0,0 mm 0,0 km/h (0 Bft) O-NO 66 0 min 0,000 mm 0,0 UV-I 26 W/m 2,2 C 0,0 km/h (0 Bft)
10.10.2016 08:46 2,7 C 2,7 C 97 % 1023,3 hPa 0,0 mm 0,0 km/h (0 Bft) O-NO 66 0 min 0,000 mm 0,0 UV-I 26 W/m 2,3 C 0,0 km/h (0 Bft)
10.10.2016 08:47 2,7 C 2,7 C 97 % 1023,3 hPa 0,0 mm 0,0 km/h (0 Bft) O-NO 66 0 min 0,000 mm 0,0 UV-I 26 W/m 2,3 C 0,0 km/h (0 Bft)
10.10.2016 08:48 2,7 C 2,7 C 97 % 1023,3 hPa 0,0 mm 0,0 km/h (0 Bft) O-NO 66 0 min 0,000 mm 0,0 UV-I 26 W/m 2,3 C 0,0 km/h (0 Bft)
10.10.2016 08:49 2,7 C 2,7 C 97 % 1023,4 hPa 0,0 mm 0,0 km/h (0 Bft) O-NO 66 0 min 0,000 mm 0,0 UV-I 26 W/m 2,3 C 0,0 km/h (0 Bft)
10.10.2016 08:50 2,7 C 2,7 C 97 % 1023,3 hPa 0,0 mm 0,0 km/h (0 Bft) O-NO 66 0 min 0,000 mm 0,0 UV-I 28 W/m 2,3 C 0,0 km/h (0 Bft)
10.10.2016 08:51 2,7 C 2,7 C 97 % 1023,3 hPa 0,0 mm 0,0 km/h (0 Bft) O-NO 66 0 min 0,000 mm 0,0 UV-I 28 W/m 2,3 C 0,0 km/h (0 Bft)
10.10.2016 08:52 2,8 C 2,8 C 97 % 1023,4 hPa 0,0 mm 0,0 km/h (0 Bft) O-NO 66 0 min 0,000 mm 0,0 UV-I 28 W/m 2,4 C 0,0 km/h (0 Bft)
10.10.2016 08:53 2,8 C 2,8 C 97 % 1023,3 hPa 0,0 mm 0,0 km/h (0 Bft) O-NO 66 0 min 0,000 mm 0,0 UV-I 28 W/m 2,4 C 0,0 km/h (0 Bft)
10.10.2016 08:54 2,8 C 2,8 C 97 % 1023,3 hPa 0,0 mm 0,0 km/h (0 Bft) O-NO 66 0 min 0,000 mm 0,0 UV-I 28 W/m 2,4 C 0,0 km/h (0 Bft)
10.10.2016 08:55 2,9 C 2,9 C 97 % 1023,3 hPa 0,0 mm 0,0 km/h (0 Bft) O-NO 66 0 min 0,000 mm 0,0 UV-I 26 W/m 2,5 C 0,0 km/h (0 Bft)
10.10.2016 08:56 2,8 C 2,9 C 97 % 1023,3 hPa 0,0 mm 0,0 km/h (0 Bft) O-NO 66 0 min 0,000 mm 0,0 UV-I 25 W/m 2,4 C 0,0 km/h (0 Bft)
10.10.2016 08:57 2,9 C 2,9 C 97 % 1023,3 hPa 0,0 mm 0,0 km/h (0 Bft) O-NO 66 0 min 0,000 mm 0,0 UV-I 26 W/m 2,5 C 0,0 km/h (0 Bft)
10.10.2016 08:58 2,9 C 2,9 C 97 % 1023,2 hPa 0,0 mm 0,2 km/h (0 Bft) O-NO 66 0 min 0,000 mm 0,0 UV-I 26 W/m 2,5 C 1,6 km/h (1 Bft)
10.10.2016 08:59 2,9 C 2,9 C 97 % 1023,2 hPa 0,0 mm 2,4 km/h (1 Bft) O-NO 65 0 min 0,000 mm 0,0 UV-I 28 W/m 2,5 C 3,2 km/h (1 Bft)
10.10.2016 09:00 2,9 C 2,9 C 97 % 1023,3 hPa 0,0 mm 1,0 km/h (0 Bft) O-NO 65 0 min 0,000 mm 0,0 UV-I 35 W/m 2,5 C 1,6 km/h (1 Bft)
10.10.2016 09:01 2,9 C 2,9 C 97 % 1023,3 hPa 0,0 mm 2,0 km/h (1 Bft) O-NO 65 0 min 0,000 mm 0,0 UV-I 35 W/m 2,5 C 3,2 km/h (1 Bft)
10.10.2016 09:02 2,9 C 2,9 C 97 % 1023,3 hPa 0,0 mm 0,2 km/h (0 Bft) O-NO 65 0 min 0,000 mm 0,0 UV-I 37 W/m 2,5 C 1,6 km/h (1 Bft)
10.10.2016 09:03 3,0 C 3,0 C 97 % 1023,3 hPa 0,0 mm 0,0 km/h (0 Bft) O-NO 65 0 min 0,000 mm 0,0 UV-I 40 W/m 2,6 C 0,0 km/h (0 Bft)
10.10.2016 09:04 3,0 C 3,0 C 97 % 1023,2 hPa 0,0 mm 0,0 km/h (0 Bft) O-NO 65 0 min 0,000 mm 0,0 UV-I 40 W/m 2,6 C 0,0 km/h (0 Bft)
10.10.2016 09:05 3,1 C 3,1 C 97 % 1023,3 hPa 0,0 mm 0,9 km/h (0 Bft) O-NO 65 0 min 0,000 mm 0,0 UV-I 40 W/m 2,7 C 3,2 km/h (1 Bft)
10.10.2016 09:06 3,1 C 3,1 C 97 % 1023,3 hPa 0,0 mm 2,5 km/h (1 Bft) O-NO 65 0 min 0,000 mm 0,0 UV-I 42 W/m 2,7 C 3,2 km/h (1 Bft)
10.10.2016 09:07 3,1 C 3,1 C 97 % 1023,3 hPa 0,0 mm 1,1 km/h (1 Bft) O-NO 65 0 min 0,000 mm 0,0 UV-I 44 W/m 2,7 C 3,2 km/h (1 Bft)
10.10.2016 09:08 3,1 C 3,1 C 97 % 1023,2 hPa 0,0 mm 0,8 km/h (0 Bft) O-NO 65 0 min 0,000 mm 0,0 UV-I 44 W/m 2,7 C 1,6 km/h (1 Bft)
10.10.2016 09:09 3,1 C 3,1 C 97 % 1023,3 hPa 0,0 mm 0,0 km/h (0 Bft) O-NO 65 0 min 0,000 mm 0,0 UV-I 44 W/m 2,7 C 0,0 km/h (0 Bft)
10.10.2016 09:10 3,0 C 3,1 C 97 % 1023,3 hPa 0,0 mm 0,7 km/h (0 Bft) O-NO 65 0 min 0,000 mm 0,0 UV-I 44 W/m 2,6 C 3,2 km/h (1 Bft)
10.10.2016 09:11 3,1 C 3,1 C 97 % 1023,3 hPa 0,0 mm 0,4 km/h (0 Bft) O-NO 65 0 min 0,000 mm 0,0 UV-I 42 W/m 2,7 C 1,6 km/h (1 Bft)
10.10.2016 09:12 3,1 C 3,1 C 97 % 1023,2 hPa 0,0 mm 1,4 km/h (1 Bft) O-NO 65 0 min 0,000 mm 0,0 UV-I 44 W/m 2,7 C 3,2 km/h (1 Bft)
10.10.2016 09:13 3,1 C 3,1 C 97 % 1023,2 hPa 0,0 mm 2,0 km/h (1 Bft) O-NO 65 0 min 0,000 mm 0,0 UV-I 46 W/m 2,7 C 3,2 km/h (1 Bft)
10.10.2016 09:14 3,1 C 3,1 C 97 % 1023,2 hPa 0,0 mm 1,2 km/h (1 Bft) O-NO 65 0 min 0,000 mm 0,0 UV-I 47 W/m 2,7 C 3,2 km/h (1 Bft)
10.10.2016 09:15 3,1 C 3,1 C 97 % 1023,3 hPa 0,0 mm 3,2 km/h (1 Bft) NO 47 0 min 0,000 mm 0,0 UV-I 51 W/m 2,7 C 6,4 km/h (2 Bft)
10.10.2016 09:16 3,1 C 3,1 C 97 % 1023,2 hPa 0,0 mm 3,7 km/h (1 Bft) O-NO 61 0 min 0,000 mm 0,0 UV-I 51 W/m 2,7 C 4,8 km/h (1 Bft)
10.10.2016 09:17 3,1 C 3,1 C 97 % 1023,2 hPa 0,0 mm 2,8 km/h (1 Bft) O-NO 61 0 min 0,000 mm 0,0 UV-I 54 W/m 2,7 C 3,2 km/h (1 Bft)
10.10.2016 09:18 3,1 C 3,1 C 97 % 1023,2 hPa 0,0 mm 1,8 km/h (1 Bft) O-NO 61 0 min 0,000 mm 0,0 UV-I 53 W/m 2,7 C 3,2 km/h (1 Bft)
10.10.2016 09:19 3,1 C 3,1 C 97 % 1023,2 hPa 0,0 mm 2,1 km/h (1 Bft) O-NO 61 0 min 0,000 mm 0,0 UV-I 53 W/m 2,7 C 3,2 km/h (1 Bft)
10.10.2016 09:20 3,1 C 3,1 C 97 % 1023,2 hPa 0,0 mm 2,7 km/h (1 Bft) O 80 0 min 0,000 mm 0,0 UV-I 54 W/m 2,7 C 6,4 km/h (2 Bft)
10.10.2016 09:21 3,2 C 3,2 C 97 % 1023,2 hPa 0,0 mm 4,2 km/h (1 Bft) O-NO 61 0 min 0,000 mm 0,0 UV-I 54 W/m 2,8 C 4,8 km/h (1 Bft)
10.10.2016 09:22 3,2 C 3,2 C 97 % 1023,2 hPa 0,0 mm 3,1 km/h (1 Bft) O 80 0 min 0,000 mm 0,0 UV-I 54 W/m 2,8 C 4,8 km/h (1 Bft)
10.10.2016 09:23 3,2 C 3,2 C 97 % 1023,2 hPa 0,0 mm 3,3 km/h (1 Bft) O-SO 113 0 min 0,000 mm 0,0 UV-I 56 W/m 2,8 C 4,8 km/h (1 Bft)
10.10.2016 09:24 3,2 C 3,2 C 97 % 1023,1 hPa 0,0 mm 2,1 km/h (1 Bft) O 87 0 min 0,000 mm 0,0 UV-I 58 W/m 2,8 C 3,2 km/h (1 Bft)
10.10.2016 09:25 3,2 C 3,2 C 97 % 1023,2 hPa 0,0 mm 1,5 km/h (1 Bft) O 87 0 min 0,000 mm 0,0 UV-I 62 W/m 2,8 C 1,6 km/h (1 Bft)
10.10.2016 09:26 3,2 C 3,2 C 97 % 1023,1 hPa 0,0 mm 1,1 km/h (1 Bft) O 87 0 min 0,000 mm 0,0 UV-I 63 W/m 2,8 C 1,6 km/h (1 Bft)
10.10.2016 09:27 3,2 C 3,2 C 97 % 1023,1 hPa 0,0 mm 2,1 km/h (1 Bft) O 85 0 min 0,000 mm 0,0 UV-I 63 W/m 2,8 C 3,2 km/h (1 Bft)
10.10.2016 09:28 3,2 C 3,2 C 97 % 1023,2 hPa 0,0 mm 1,7 km/h (1 Bft) O-NO 76 0 min 0,000 mm 0,0 UV-I 62 W/m 2,8 C 3,2 km/h (1 Bft)
10.10.2016 09:29 3,2 C 3,2 C 97 % 1023,1 hPa 0,0 mm 3,0 km/h (1 Bft) O-NO 76 0 min 0,000 mm 0,0 UV-I 60 W/m 2,8 C 4,8 km/h (1 Bft)
10.10.2016 09:30 3,3 C 3,3 C 97 % 1023,2 hPa 0,0 mm 0,5 km/h (0 Bft) O-NO 76 0 min 0,000 mm 0,0 UV-I 58 W/m 2,9 C 1,6 km/h (1 Bft)
10.10.2016 09:31 3,3 C 3,3 C 97 % 1023,2 hPa 0,0 mm 2,6 km/h (1 Bft) O-NO 76 0 min 0,000 mm 0,0 UV-I 60 W/m 2,9 C 3,2 km/h (1 Bft)
10.10.2016 09:32 3,3 C 3,3 C 97 % 1023,2 hPa 0,0 mm 2,5 km/h (1 Bft) O-NO 76 0 min 0,000 mm 0,0 UV-I 62 W/m 2,9 C 3,2 km/h (1 Bft)
10.10.2016 09:33 3,3 C 3,3 C 97 % 1023,2 hPa 0,0 mm 2,9 km/h (1 Bft) NO 52 0 min 0,000 mm 0,0 UV-I 63 W/m 2,9 C 4,8 km/h (1 Bft)
10.10.2016 09:34 3,3 C 3,3 C 97 % 1023,2 hPa 0,0 mm 0,5 km/h (0 Bft) NO 52 0 min 0,000 mm 0,5 UV-I 67 W/m 2,9 C 1,6 km/h (1 Bft)
10.10.2016 09:35 3,3 C 3,3 C 97 % 1023,1 hPa 0,0 mm 2,5 km/h (1 Bft) NO 52 0 min 0,000 mm 0,5 UV-I 67 W/m 2,9 C 4,8 km/h (1 Bft)
10.10.2016 09:36 3,3 C 3,3 C 97 % 1023,1 hPa 0,0 mm 1,8 km/h (1 Bft) NO 52 0 min 0,000 mm 0,0 UV-I 67 W/m 2,9 C 3,2 km/h (1 Bft)
10.10.2016 09:37 3,3 C 3,3 C 97 % 1023,1 hPa 0,0 mm 1,1 km/h (1 Bft) NO 52 0 min 0,000 mm 0,0 UV-I 67 W/m 2,9 C 1,6 km/h (1 Bft)
10.10.2016 09:38 3,3 C 3,3 C 97 % 1023,2 hPa 0,0 mm 3,0 km/h (1 Bft) O-NO 58 0 min 0,000 mm 0,0 UV-I 69 W/m 2,9 C 4,8 km/h (1 Bft)
10.10.2016 09:39 3,3 C 3,3 C 97 % 1023,2 hPa 0,0 mm 3,3 km/h (1 Bft) O-NO 58 0 min 0,000 mm 0,0 UV-I 69 W/m 2,9 C 4,8 km/h (1 Bft)
10.10.2016 09:40 3,3 C 3,3 C 97 % 1023,2 hPa 0,0 mm 2,3 km/h (1 Bft) O-NO 58 0 min 0,000 mm 0,0 UV-I 70 W/m 2,9 C 3,2 km/h (1 Bft)
10.10.2016 09:41 3,3 C 3,3 C 97 % 1023,2 hPa 0,0 mm 3,6 km/h (1 Bft) NO 56 0 min 0,000 mm 0,0 UV-I 70 W/m 2,9 C 4,8 km/h (1 Bft)
10.10.2016 09:42 3,3 C 3,3 C 97 % 1023,2 hPa 0,0 mm 3,2 km/h (1 Bft) O-NO 61 0 min 0,000 mm 0,0 UV-I 67 W/m 2,9 C 4,8 km/h (1 Bft)
10.10.2016 09:43 3,3 C 3,3 C 97 % 1023,2 hPa 0,0 mm 2,4 km/h (1 Bft) O-NO 59 0 min 0,000 mm 0,0 UV-I 65 W/m 2,9 C 3,2 km/h (1 Bft)
10.10.2016 09:44 3,3 C 3,3 C 97 % 1023,2 hPa 0,0 mm 3,0 km/h (1 Bft) O-NO 59 0 min 0,000 mm 0,0 UV-I 63 W/m 2,9 C 4,8 km/h (1 Bft)
10.10.2016 09:45 3,3 C 3,3 C 97 % 1023,2 hPa 0,0 mm 3,2 km/h (1 Bft) N-NO 26 0 min 0,000 mm 0,0 UV-I 60 W/m 2,9 C 4,8 km/h (1 Bft)
10.10.2016 09:46 3,3 C 3,3 C 97 % 1023,1 hPa 0,0 mm 3,8 km/h (1 Bft) O-NO 59 0 min 0,000 mm 0,0 UV-I 62 W/m 2,9 C 6,4 km/h (2 Bft)
10.10.2016 09:47 3,3 C 3,3 C 97 % 1023,2 hPa 0,0 mm 2,5 km/h (1 Bft) O-NO 59 0 min 0,000 mm 0,0 UV-I 67 W/m 2,9 C 4,8 km/h (1 Bft)
10.10.2016 09:48 3,4 C 3,4 C 97 % 1023,1 hPa 0,0 mm 1,5 km/h (1 Bft) O-NO 59 0 min 0,000 mm 0,5 UV-I 70 W/m 3,0 C 3,2 km/h (1 Bft)
10.10.2016 09:49 3,4 C 3,4 C 97 % 1023,2 hPa 0,0 mm 3,0 km/h (1 Bft) N-NO 26 0 min 0,000 mm 0,5 UV-I 72 W/m 3,0 C 4,8 km/h (1 Bft)
10.10.2016 09:50 3,4 C 3,4 C 97 % 1023,1 hPa 0,0 mm 2,9 km/h (1 Bft) NO 47 0 min 0,000 mm 0,5 UV-I 70 W/m 3,0 C 6,4 km/h (2 Bft)
10.10.2016 09:51 3,4 C 3,4 C 97 % 1023,1 hPa 0,0 mm 2,3 km/h (1 Bft) O-NO 57 0 min 0,000 mm 0,5 UV-I 70 W/m 3,0 C 4,8 km/h (1 Bft)
10.10.2016 09:52 3,4 C 3,4 C 97 % 1023,1 hPa 0,0 mm 2,7 km/h (1 Bft) O-NO 65 0 min 0,000 mm 0,5 UV-I 70 W/m 3,0 C 3,2 km/h (1 Bft)
10.10.2016 09:53 3,4 C 3,4 C 97 % 1023,1 hPa 0,0 mm 3,4 km/h (1 Bft) O-NO 72 0 min 0,000 mm 0,5 UV-I 63 W/m 3,0 C 6,4 km/h (2 Bft)
10.10.2016 09:54 3,4 C 3,4 C 97 % 1023,1 hPa 0,0 mm 1,6 km/h (1 Bft) O-NO 71 0 min 0,000 mm 0,5 UV-I 63 W/m 3,0 C 4,8 km/h (1 Bft)
10.10.2016 09:55 3,3 C 3,4 C 97 % 1023,1 hPa 0,0 mm 2,8 km/h (1 Bft) O-NO 59 0 min 0,000 mm 0,5 UV-I 60 W/m 2,9 C 4,8 km/h (1 Bft)
10.10.2016 09:56 3,3 C 3,4 C 97 % 1023,1 hPa 0,0 mm 1,2 km/h (1 Bft) O-NO 59 0 min 0,000 mm 0,5 UV-I 58 W/m 2,9 C 3,2 km/h (1 Bft)
10.10.2016 09:57 3,4 C 3,4 C 97 % 1023,1 hPa 0,0 mm 2,1 km/h (1 Bft) O-NO 59 0 min 0,000 mm 0,5 UV-I 58 W/m 3,0 C 3,2 km/h (1 Bft)
10.10.2016 09:58 3,4 C 3,4 C 97 % 1023,1 hPa 0,0 mm 1,7 km/h (1 Bft) O-NO 59 0 min 0,000 mm 0,5 UV-I 58 W/m 3,0 C 3,2 km/h (1 Bft)
10.10.2016 09:59 3,4 C 3,4 C 97 % 1023,1 hPa 0,0 mm 2,3 km/h (1 Bft) O-NO 61 0 min 0,000 mm 0,5 UV-I 56 W/m 3,0 C 4,8 km/h (1 Bft)
10.10.2016 10:00 3,4 C 3,4 C 97 % 1023,1 hPa 0,0 mm 3,2 km/h (1 Bft) O-NO 66 0 min 0,000 mm 0,0 UV-I 54 W/m 3,0 C 4,8 km/h (1 Bft)
10.10.2016 10:01 3,4 C 3,4 C 97 % 1023,0 hPa 0,0 mm 1,9 km/h (1 Bft) O-NO 66 0 min 0,025 mm 0,0 UV-I 53 W/m 3,0 C 3,2 km/h (1 Bft)
10.10.2016 10:02 3,4 C 3,4 C 97 % 1023,0 hPa 0,0 mm 0,5 km/h (0 Bft) O-NO 66 0 min 0,000 mm 0,0 UV-I 51 W/m 3,0 C 1,6 km/h (1 Bft)
10.10.2016 10:03 3,4 C 3,4 C 97 % 1023,0 hPa 0,0 mm 1,5 km/h (1 Bft) O-NO 66 0 min 0,000 mm 0,0 UV-I 53 W/m 3,0 C 3,2 km/h (1 Bft)
10.10.2016 10:04 3,4 C 3,4 C 97 % 1023,0 hPa 0,0 mm 1,4 km/h (1 Bft) O-NO 66 0 min 0,000 mm 0,5 UV-I 60 W/m 3,0 C 3,2 km/h (1 Bft)
10.10.2016 10:05 3,5 C 3,5 C 97 % 1023,0 hPa 0,0 mm 1,5 km/h (1 Bft) O-NO 66 0 min 0,000 mm 0,6 UV-I 72 W/m 3,1 C 3,2 km/h (1 Bft)
10.10.2016 10:06 3,5 C 3,5 C 97 % 1023,0 hPa 0,0 mm 0,9 km/h (0 Bft) O-NO 66 0 min 0,000 mm 0,6 UV-I 86 W/m 3,1 C 1,6 km/h (1 Bft)
10.10.2016 10:07 3,5 C 3,6 C 97 % 1023,0 hPa 0,0 mm 1,3 km/h (1 Bft) O-NO 66 0 min 0,000 mm 0,7 UV-I 118 W/m 3,1 C 3,2 km/h (1 Bft)
10.10.2016 10:08 3,6 C 3,6 C 97 % 1022,9 hPa 0,0 mm 2,5 km/h (1 Bft) N-NO 18 0 min 0,000 mm 0,8 UV-I 128 W/m 3,2 C 4,8 km/h (1 Bft)
10.10.2016 10:09 3,5 C 3,6 C 97 % 1023,0 hPa 0,0 mm 3,4 km/h (1 Bft) NO 47 0 min 0,000 mm 0,7 UV-I 120 W/m 3,1 C 4,8 km/h (1 Bft)
10.10.2016 10:10 3,6 C 3,6 C 97 % 1022,9 hPa 0,0 mm 3,3 km/h (1 Bft) NO 46 0 min 0,000 mm 0,7 UV-I 116 W/m 3,2 C 4,8 km/h (1 Bft)
10.10.2016 10:11 3,6 C 3,6 C 97 % 1022,9 hPa 0,0 mm 2,8 km/h (1 Bft) NO 46 0 min 0,000 mm 0,7 UV-I 120 W/m 3,2 C 4,8 km/h (1 Bft)
10.10.2016 10:12 3,6 C 3,6 C 97 % 1022,9 hPa 0,0 mm 3,1 km/h (1 Bft) NO 46 0 min 0,000 mm 0,7 UV-I 120 W/m 3,2 C 4,8 km/h (1 Bft)
10.10.2016 10:13 3,6 C 3,6 C 97 % 1022,9 hPa 0,0 mm 0,6 km/h (0 Bft) NO 46 0 min 0,000 mm 0,7 UV-I 118 W/m 3,2 C 1,6 km/h (1 Bft)
10.10.2016 10:14 3,6 C 3,6 C 97 % 1022,9 hPa 0,0 mm 3,2 km/h (1 Bft) NO 44 0 min 0,000 mm 0,7 UV-I 109 W/m 3,2 C 3,2 km/h (1 Bft)
10.10.2016 10:15 3,7 C 3,7 C 97 % 1022,9 hPa 0,0 mm 1,9 km/h (1 Bft) NO 44 0 min 0,000 mm 0,6 UV-I 98 W/m 3,3 C 3,2 km/h (1 Bft)
10.10.2016 10:16 3,7 C 3,7 C 97 % 1022,9 hPa 0,0 mm 1,0 km/h (0 Bft) NO 44 0 min 0,000 mm 0,6 UV-I 90 W/m 3,3 C 3,2 km/h (1 Bft)
10.10.2016 10:17 3,7 C 3,7 C 97 % 1022,9 hPa 0,0 mm 1,3 km/h (1 Bft) NO 44 0 min 0,000 mm 0,6 UV-I 83 W/m 3,3 C 3,2 km/h (1 Bft)
10.10.2016 10:18 3,7 C 3,7 C 97 % 1022,9 hPa 0,0 mm 2,4 km/h (1 Bft) NO 36 0 min 0,000 mm 0,6 UV-I 84 W/m 3,3 C 4,8 km/h (1 Bft)
10.10.2016 10:19 3,8 C 3,8 C 97 % 1022,9 hPa 0,0 mm 3,3 km/h (1 Bft) NO 36 0 min 0,000 mm 0,6 UV-I 86 W/m 3,4 C 4,8 km/h (1 Bft)
10.10.2016 10:20 3,8 C 3,8 C 97 % 1023,0 hPa 0,0 mm 2,6 km/h (1 Bft) NO 36 0 min 0,000 mm 0,6 UV-I 86 W/m 3,4 C 3,2 km/h (1 Bft)
10.10.2016 10:21 3,8 C 3,8 C 97 % 1023,0 hPa 0,0 mm 2,4 km/h (1 Bft) NO 36 0 min 0,000 mm 0,6 UV-I 84 W/m 3,4 C 3,2 km/h (1 Bft)
10.10.2016 10:22 3,8 C 3,8 C 97 % 1022,9 hPa 0,0 mm 2,1 km/h (1 Bft) NO 36 0 min 0,000 mm 0,6 UV-I 81 W/m 3,4 C 3,2 km/h (1 Bft)
10.10.2016 10:23 3,8 C 3,8 C 97 % 1022,9 hPa 0,0 mm 3,5 km/h (1 Bft) NO 37 0 min 0,000 mm 0,6 UV-I 72 W/m 3,4 C 4,8 km/h (1 Bft)
10.10.2016 10:24 3,8 C 3,9 C 97 % 1022,9 hPa 0,0 mm 1,5 km/h (1 Bft) NO 37 0 min 0,000 mm 0,6 UV-I 72 W/m 3,4 C 3,2 km/h (1 Bft)
10.10.2016 10:25 3,8 C 3,9 C 97 % 1022,9 hPa 0,0 mm 1,3 km/h (1 Bft) NO 37 0 min 0,000 mm 0,6 UV-I 79 W/m 3,4 C 3,2 km/h (1 Bft)
10.10.2016 10:26 3,9 C 3,9 C 97 % 1022,8 hPa 0,0 mm 3,2 km/h (1 Bft) NO 45 0 min 0,000 mm 0,6 UV-I 83 W/m 3,5 C 6,4 km/h (2 Bft)
10.10.2016 10:27 3,9 C 3,9 C 97 % 1022,9 hPa 0,0 mm 4,9 km/h (1 Bft) O-NO 67 0 min 0,000 mm 0,7 UV-I 86 W/m 3,5 C 6,4 km/h (2 Bft)
10.10.2016 10:28 3,9 C 3,9 C 97 % 1022,8 hPa 0,0 mm 4,1 km/h (1 Bft) O 82 0 min 0,000 mm 0,7 UV-I 88 W/m 3,5 C 6,4 km/h (2 Bft)
10.10.2016 10:29 3,9 C 3,9 C 97 % 1022,8 hPa 0,0 mm 4,3 km/h (1 Bft) O-NO 59 0 min 0,000 mm 0,7 UV-I 90 W/m 3,5 C 4,8 km/h (1 Bft)
10.10.2016 10:30 3,9 C 3,9 C 97 % 1022,9 hPa 0,0 mm 4,6 km/h (1 Bft) O-NO 58 0 min 0,000 mm 0,7 UV-I 88 W/m 3,5 C 6,4 km/h (2 Bft)
10.10.2016 10:31 3,9 C 3,9 C 97 % 1022,8 hPa 0,0 mm 6,3 km/h (2 Bft) O 82 0 min 0,000 mm 0,8 UV-I 90 W/m 3,5 C 9,7 km/h (2 Bft)
10.10.2016 10:32 3,8 C 3,9 C 97 % 1022,8 hPa 0,0 mm 3,2 km/h (1 Bft) O 96 0 min 0,000 mm 0,8 UV-I 98 W/m 3,4 C 6,4 km/h (2 Bft)
10.10.2016 10:33 3,8 C 3,8 C 97 % 1022,8 hPa 0,0 mm 2,0 km/h (1 Bft) O-NO 58 0 min 0,000 mm 0,9 UV-I 123 W/m 3,4 C 4,8 km/h (1 Bft)
10.10.2016 10:34 3,9 C 3,9 C 97 % 1022,9 hPa 0,0 mm 4,8 km/h (1 Bft) O-NO 66 0 min 0,000 mm 1,1 UV-I 153 W/m 3,5 C 6,4 km/h (2 Bft)
10.10.2016 10:35 3,9 C 3,9 C 97 % 1022,9 hPa 0,0 mm 1,8 km/h (1 Bft) O 79 0 min 0,000 mm 1,1 UV-I 148 W/m 3,5 C 3,2 km/h (1 Bft)
10.10.2016 10:36 3,9 C 3,9 C 97 % 1022,8 hPa 0,0 mm 3,8 km/h (1 Bft) O-NO 59 0 min 0,000 mm 1,2 UV-I 144 W/m 3,5 C 6,4 km/h (2 Bft)
10.10.2016 10:37 3,9 C 3,9 C 96 % 1022,8 hPa 0,0 mm 5,4 km/h (1 Bft) O-NO 76 0 min 0,000 mm 1,2 UV-I 146 W/m 3,3 C 8,0 km/h (2 Bft)
10.10.2016 10:38 3,9 C 3,9 C 96 % 1022,8 hPa 0,0 mm 3,0 km/h (1 Bft) O 99 0 min 0,000 mm 1,2 UV-I 144 W/m 3,3 C 4,8 km/h (1 Bft)
10.10.2016 10:39 3,9 C 4,0 C 96 % 1022,8 hPa 0,0 mm 2,1 km/h (1 Bft) O 97 0 min 0,000 mm 1,2 UV-I 137 W/m 3,3 C 3,2 km/h (1 Bft)
10.10.2016 10:40 4,1 C 4,1 C 96 % 1022,8 hPa 0,0 mm 5,4 km/h (1 Bft) O 81 0 min 0,000 mm 1,1 UV-I 141 W/m 3,5 C 8,0 km/h (2 Bft)
10.10.2016 10:41 4,1 C 4,1 C 96 % 1022,8 hPa 0,0 mm 5,8 km/h (2 Bft) O 86 0 min 0,000 mm 1,1 UV-I 149 W/m 3,5 C 8,0 km/h (2 Bft)
10.10.2016 10:42 4,1 C 4,1 C 96 % 1022,8 hPa 0,0 mm 4,5 km/h (1 Bft) O-NO 65 0 min 0,000 mm 1,1 UV-I 156 W/m 3,5 C 8,0 km/h (2 Bft)
10.10.2016 10:43 4,1 C 4,1 C 96 % 1022,8 hPa 0,0 mm 6,3 km/h (2 Bft) O-NO 63 0 min 0,000 mm 1,2 UV-I 162 W/m 3,5 C 8,0 km/h (2 Bft)
10.10.2016 10:44 4,1 C 4,1 C 95 % 1022,8 hPa 0,0 mm 5,7 km/h (1 Bft) O-NO 74 0 min 0,000 mm 1,1 UV-I 162 W/m 3,4 C 9,7 km/h (2 Bft)
10.10.2016 10:45 4,1 C 4,1 C 95 % 1022,8 hPa 0,0 mm 3,0 km/h (1 Bft) O-NO 74 0 min 0,000 mm 1,1 UV-I 156 W/m 3,4 C 4,8 km/h (1 Bft)
10.10.2016 10:46 4,1 C 4,2 C 95 % 1022,8 hPa 0,0 mm 4,1 km/h (1 Bft) O-NO 74 0 min 0,000 mm 1,1 UV-I 169 W/m 3,4 C 4,8 km/h (1 Bft)
10.10.2016 10:47 4,2 C 4,2 C 95 % 1022,7 hPa 0,0 mm 2,4 km/h (1 Bft) O-NO 71 0 min 0,000 mm 1,2 UV-I 186 W/m 3,5 C 4,8 km/h (1 Bft)
10.10.2016 10:48 4,2 C 4,2 C 95 % 1022,7 hPa 0,0 mm 4,2 km/h (1 Bft) NO 46 0 min 0,000 mm 1,3 UV-I 200 W/m 3,5 C 6,4 km/h (2 Bft)
10.10.2016 10:49 4,3 C 4,3 C 95 % 1022,7 hPa 0,0 mm 5,9 km/h (2 Bft) O 84 0 min 0,000 mm 1,4 UV-I 213 W/m 3,6 C 8,0 km/h (2 Bft)
10.10.2016 10:50 4,3 C 4,3 C 95 % 1022,7 hPa 0,0 mm 4,4 km/h (1 Bft) NO 48 0 min 0,000 mm 1,4 UV-I 213 W/m 3,6 C 6,4 km/h (2 Bft)
10.10.2016 10:51 4,3 C 4,3 C 94 % 1022,7 hPa 0,0 mm 4,2 km/h (1 Bft) NO 39 0 min 0,000 mm 1,4 UV-I 207 W/m 3,4 C 6,4 km/h (2 Bft)
10.10.2016 10:52 4,3 C 4,3 C 94 % 1022,7 hPa 0,0 mm 5,1 km/h (1 Bft) O-NO 59 0 min 0,000 mm 1,4 UV-I 220 W/m 3,4 C 8,0 km/h (2 Bft)
10.10.2016 10:53 4,3 C 4,4 C 94 % 1022,7 hPa 0,0 mm 6,7 km/h (2 Bft) O-NO 68 0 min 0,000 mm 1,4 UV-I 220 W/m 3,4 C 11,3 km/h (2 Bft)
10.10.2016 10:54 4,4 C 4,4 C 93 % 1022,8 hPa 0,0 mm 4,5 km/h (1 Bft) NO 53 0 min 0,000 mm 1,5 UV-I 223 W/m 3,4 C 8,0 km/h (2 Bft)
10.10.2016 10:55 4,4 C 4,4 C 93 % 1022,7 hPa 0,0 mm 2,7 km/h (1 Bft) NO 39 0 min 0,000 mm 1,5 UV-I 221 W/m 3,4 C 3,2 km/h (1 Bft)
10.10.2016 10:56 4,4 C 4,4 C 93 % 1022,7 hPa 0,0 mm 4,4 km/h (1 Bft) NO 55 0 min 0,000 mm 1,4 UV-I 214 W/m 3,4 C 6,4 km/h (2 Bft)
10.10.2016 10:57 4,5 C 4,5 C 93 % 1022,7 hPa 0,0 mm 2,7 km/h (1 Bft) NO 51 0 min 0,000 mm 1,3 UV-I 193 W/m 3,5 C 4,8 km/h (1 Bft)
10.10.2016 10:58 4,6 C 4,6 C 93 % 1022,7 hPa 0,0 mm 3,6 km/h (1 Bft) NO 56 0 min 0,000 mm 1,3 UV-I 181 W/m 3,6 C 4,8 km/h (1 Bft)
10.10.2016 10:59 4,6 C 4,6 C 93 % 1022,7 hPa 0,0 mm 4,3 km/h (1 Bft) NO 46 0 min 0,000 mm 1,3 UV-I 181 W/m 3,6 C 6,4 km/h (2 Bft)
10.10.2016 11:00 4,6 C 4,6 C 92 % 1022,7 hPa 0,0 mm 3,3 km/h (1 Bft) N-NO 32 0 min 0,000 mm 1,3 UV-I 185 W/m 3,4 C 4,8 km/h (1 Bft)
10.10.2016 11:01 4,6 C 4,6 C 92 % 1022,7 hPa 0,0 mm 4,4 km/h (1 Bft) O-NO 74 0 min 0,051 mm 1,3 UV-I 188 W/m 3,4 C 8,0 km/h (2 Bft)
10.10.2016 11:02 4,6 C 4,6 C 92 % 1022,7 hPa 0,0 mm 5,2 km/h (1 Bft) NO 51 0 min 0,000 mm 1,4 UV-I 197 W/m 3,4 C 6,4 km/h (2 Bft)
10.10.2016 11:03 4,6 C 4,6 C 92 % 1022,8 hPa 0,0 mm 4,2 km/h (1 Bft) NO 41 0 min 0,000 mm 1,4 UV-I 209 W/m 3,4 C 6,4 km/h (2 Bft)
10.10.2016 11:04 4,6 C 4,6 C 92 % 1022,7 hPa 0,0 mm 5,3 km/h (1 Bft) NO 52 0 min 0,000 mm 1,4 UV-I 200 W/m 3,4 C 6,4 km/h (2 Bft)
10.10.2016 11:05 4,6 C 4,6 C 92 % 1022,7 hPa 0,0 mm 2,9 km/h (1 Bft) NO 51 0 min 0,000 mm 1,3 UV-I 193 W/m 3,4 C 4,8 km/h (1 Bft)
10.10.2016 11:06 4,7 C 4,7 C 92 % 1022,7 hPa 0,0 mm 4,8 km/h (1 Bft) O-NO 78 0 min 0,000 mm 1,2 UV-I 183 W/m 3,5 C 8,0 km/h (2 Bft)
10.10.2016 11:07 4,7 C 4,7 C 92 % 1022,7 hPa 0,0 mm 4,8 km/h (1 Bft) O 91 0 min 0,000 mm 1,1 UV-I 178 W/m 3,5 C 6,4 km/h (2 Bft)
10.10.2016 11:08 4,7 C 4,7 C 92 % 1022,7 hPa 0,0 mm 3,8 km/h (1 Bft) N-NO 30 0 min 0,000 mm 1,1 UV-I 178 W/m 3,5 C 4,8 km/h (1 Bft)
10.10.2016 11:09 4,7 C 4,8 C 92 % 1022,8 hPa 0,0 mm 4,2 km/h (1 Bft) O-NO 57 0 min 0,000 mm 1,2 UV-I 199 W/m 3,5 C 6,4 km/h (2 Bft)
10.10.2016 11:10 4,8 C 4,8 C 92 % 1022,7 hPa 0,0 mm 1,7 km/h (1 Bft) O 82 0 min 0,000 mm 1,2 UV-I 199 W/m 3,6 C 3,2 km/h (1 Bft)
10.10.2016 11:11 4,8 C 4,8 C 92 % 1022,7 hPa 0,0 mm 2,3 km/h (1 Bft) O-NO 69 0 min 0,000 mm 1,2 UV-I 192 W/m 3,6 C 3,2 km/h (1 Bft)
10.10.2016 11:12 4,8 C 4,8 C 92 % 1022,8 hPa 0,0 mm 4,2 km/h (1 Bft) O-NO 59 0 min 0,000 mm 1,2 UV-I 188 W/m 3,6 C 6,4 km/h (2 Bft)
10.10.2016 11:13 4,9 C 4,9 C 92 % 1022,8 hPa 0,0 mm 3,0 km/h (1 Bft) N-NO 30 0 min 0,000 mm 1,2 UV-I 186 W/m 3,7 C 4,8 km/h (1 Bft)
10.10.2016 11:14 4,8 C 4,9 C 92 % 1022,7 hPa 0,0 mm 6,0 km/h (2 Bft) NO 40 0 min 0,000 mm 1,2 UV-I 186 W/m 3,6 C 8,0 km/h (2 Bft)
10.10.2016 11:15 4,8 C 4,8 C 92 % 1022,7 hPa 0,0 mm 7,1 km/h (2 Bft) N-NO 22 0 min 0,000 mm 1,2 UV-I 181 W/m 3,6 C 12,9 km/h (3 Bft)
10.10.2016 11:16 4,8 C 4,9 C 91 % 1022,7 hPa 0,0 mm 8,7 km/h (2 Bft) O-NO 65 0 min 0,000 mm 1,3 UV-I 188 W/m 3,5 C 14,5 km/h (3 Bft)
10.10.2016 11:17 4,8 C 4,8 C 91 % 1022,7 hPa 0,0 mm 3,5 km/h (1 Bft) O-NO 65 0 min 0,000 mm 1,3 UV-I 188 W/m 3,5 C 4,8 km/h (1 Bft)
10.10.2016 11:18 4,8 C 4,8 C 91 % 1022,7 hPa 0,0 mm 4,7 km/h (1 Bft) O-NO 71 0 min 0,000 mm 1,3 UV-I 185 W/m 3,5 C 8,0 km/h (2 Bft)
10.10.2016 11:19 4,8 C 4,8 C 92 % 1022,7 hPa 0,0 mm 3,7 km/h (1 Bft) NO 40 0 min 0,000 mm 1,2 UV-I 179 W/m 3,6 C 4,8 km/h (1 Bft)
10.10.2016 11:20 4,8 C 4,8 C 92 % 1022,7 hPa 0,0 mm 7,0 km/h (2 Bft) O 79 0 min 0,000 mm 1,2 UV-I 174 W/m 3,6 C 11,3 km/h (2 Bft)
10.10.2016 11:21 4,8 C 4,8 C 91 % 1022,8 hPa 0,0 mm 6,0 km/h (2 Bft) O-NO 69 0 min 0,000 mm 1,1 UV-I 163 W/m 3,5 C 8,0 km/h (2 Bft)
10.10.2016 11:22 4,8 C 4,8 C 92 % 1022,7 hPa 0,0 mm 6,5 km/h (2 Bft) O-NO 68 0 min 0,000 mm 1,2 UV-I 178 W/m 3,6 C 8,0 km/h (2 Bft)
10.10.2016 11:23 4,8 C 4,8 C 92 % 1022,8 hPa 0,0 mm 4,8 km/h (1 Bft) O 97 0 min 0,000 mm 1,3 UV-I 186 W/m 3,6 C 6,4 km/h (2 Bft)
10.10.2016 11:24 4,8 C 4,8 C 92 % 1022,7 hPa 0,0 mm 5,4 km/h (1 Bft) O 92 0 min 0,000 mm 1,2 UV-I 185 W/m 3,6 C 6,4 km/h (2 Bft)
10.10.2016 11:25 4,8 C 4,8 C 92 % 1022,8 hPa 0,0 mm 2,6 km/h (1 Bft) NO 55 0 min 0,000 mm 1,2 UV-I 178 W/m 3,6 C 4,8 km/h (1 Bft)
10.10.2016 11:26 4,9 C 4,9 C 92 % 1022,7 hPa 0,0 mm 5,3 km/h (1 Bft) N-NO 24 0 min 0,000 mm 1,1 UV-I 174 W/m 3,7 C 8,0 km/h (2 Bft)
10.10.2016 11:27 4,9 C 4,9 C 92 % 1022,8 hPa 0,0 mm 4,4 km/h (1 Bft) N-NO 19 0 min 0,000 mm 1,1 UV-I 174 W/m 3,7 C 6,4 km/h (2 Bft)
10.10.2016 11:28 4,9 C 4,9 C 92 % 1022,7 hPa 0,0 mm 5,4 km/h (1 Bft) O-NO 59 0 min 0,000 mm 1,2 UV-I 176 W/m 3,7 C 8,0 km/h (2 Bft)
10.10.2016 11:29 4,9 C 4,9 C 92 % 1022,7 hPa 0,0 mm 5,0 km/h (1 Bft) O 79 0 min 0,000 mm 1,2 UV-I 178 W/m 3,7 C 6,4 km/h (2 Bft)
10.10.2016 11:30 4,9 C 4,9 C 91 % 1022,7 hPa 0,0 mm 6,4 km/h (2 Bft) O-NO 69 0 min 0,000 mm 1,2 UV-I 172 W/m 3,6 C 12,9 km/h (3 Bft)
10.10.2016 11:31 4,9 C 4,9 C 91 % 1022,7 hPa 0,0 mm 5,7 km/h (1 Bft) O-NO 62 0 min 0,000 mm 1,2 UV-I 167 W/m 3,6 C 8,0 km/h (2 Bft)
10.10.2016 11:32 4,9 C 4,9 C 91 % 1022,7 hPa 0,0 mm 4,5 km/h (1 Bft) O 100 0 min 0,000 mm 1,2 UV-I 169 W/m 3,6 C 6,4 km/h (2 Bft)
10.10.2016 11:33 4,9 C 4,9 C 92 % 1022,7 hPa 0,0 mm 4,7 km/h (1 Bft) O-NO 58 0 min 0,000 mm 1,2 UV-I 171 W/m 3,7 C 6,4 km/h (2 Bft)
10.10.2016 11:34 4,9 C 4,9 C 91 % 1022,7 hPa 0,0 mm 6,4 km/h (2 Bft) O-NO 69 0 min 0,000 mm 1,1 UV-I 169 W/m 3,6 C 8,0 km/h (2 Bft)
10.10.2016 11:35 4,9 C 4,9 C 91 % 1022,7 hPa 0,0 mm 7,2 km/h (2 Bft) O-NO 72 0 min 0,000 mm 1,1 UV-I 165 W/m 3,6 C 11,3 km/h (2 Bft)
10.10.2016 11:36 4,9 C 4,9 C 91 % 1022,7 hPa 0,0 mm 6,6 km/h (2 Bft) O 101 0 min 0,000 mm 1,0 UV-I 155 W/m 3,6 C 8,0 km/h (2 Bft)
10.10.2016 11:37 4,9 C 4,9 C 91 % 1022,7 hPa 0,0 mm 5,0 km/h (1 Bft) O-NO 73 0 min 0,000 mm 1,0 UV-I 148 W/m 3,6 C 8,0 km/h (2 Bft)
10.10.2016 11:38 5,0 C 5,0 C 92 % 1022,7 hPa 0,0 mm 2,7 km/h (1 Bft) NO 52 0 min 0,000 mm 0,9 UV-I 144 W/m 3,8 C 4,8 km/h (1 Bft)
10.10.2016 11:39 5,1 C 5,1 C 92 % 1022,7 hPa 0,0 mm 6,6 km/h (2 Bft) NO 55 0 min 0,000 mm 0,8 UV-I 125 W/m 3,9 C 8,0 km/h (2 Bft)
10.10.2016 11:40 5,1 C 5,1 C 91 % 1022,7 hPa 0,0 mm 5,7 km/h (1 Bft) NO 45 0 min 0,000 mm 0,8 UV-I 127 W/m 3,8 C 8,0 km/h (2 Bft)
10.10.2016 11:41 5,1 C 5,1 C 91 % 1022,7 hPa 0,0 mm 5,0 km/h (1 Bft) O-NO 65 0 min 0,000 mm 0,9 UV-I 134 W/m 3,8 C 6,4 km/h (2 Bft)
10.10.2016 11:42 5,0 C 5,1 C 91 % 1022,7 hPa 0,0 mm 5,0 km/h (1 Bft) O-NO 59 0 min 0,000 mm 0,9 UV-I 144 W/m 3,7 C 6,4 km/h (2 Bft)
10.10.2016 11:43 5,0 C 5,0 C 91 % 1022,7 hPa 0,0 mm 3,9 km/h (1 Bft) O-SO 105 0 min 0,000 mm 1,0 UV-I 148 W/m 3,7 C 9,7 km/h (2 Bft)
10.10.2016 11:44 4,9 C 5,0 C 91 % 1022,7 hPa 0,0 mm 3,4 km/h (1 Bft) O-NO 74 0 min 0,000 mm 1,0 UV-I 155 W/m 3,6 C 6,4 km/h (2 Bft)
10.10.2016 11:45 5,0 C 5,0 C 91 % 1022,7 hPa 0,0 mm 3,6 km/h (1 Bft) O-NO 61 0 min 0,000 mm 1,1 UV-I 162 W/m 3,7 C 6,4 km/h (2 Bft)
10.10.2016 11:46 5,0 C 5,1 C 91 % 1022,7 hPa 0,0 mm 6,6 km/h (2 Bft) O 86 0 min 0,000 mm 1,1 UV-I 169 W/m 3,7 C 8,0 km/h (2 Bft)
10.10.2016 11:47 5,0 C 5,1 C 90 % 1022,7 hPa 0,0 mm 4,8 km/h (1 Bft) NO 54 0 min 0,000 mm 1,2 UV-I 181 W/m 3,5 C 6,4 km/h (2 Bft)
10.10.2016 11:48 5,1 C 5,1 C 90 % 1022,6 hPa 0,0 mm 3,6 km/h (1 Bft) NO 36 0 min 0,000 mm 1,3 UV-I 195 W/m 3,6 C 6,4 km/h (2 Bft)
10.10.2016 11:49 5,1 C 5,1 C 90 % 1022,6 hPa 0,0 mm 5,2 km/h (1 Bft) O-NO 72 0 min 0,000 mm 1,4 UV-I 213 W/m 3,6 C 8,0 km/h (2 Bft)
10.10.2016 11:50 5,1 C 5,2 C 89 % 1022,6 hPa 0,0 mm 5,6 km/h (1 Bft) O-NO 67 0 min 0,000 mm 1,5 UV-I 227 W/m 3,4 C 8,0 km/h (2 Bft)
10.10.2016 11:51 5,1 C 5,2 C 89 % 1022,6 hPa 0,0 mm 3,6 km/h (1 Bft) O-NO 69 0 min 0,000 mm 1,5 UV-I 227 W/m 3,4 C 6,4 km/h (2 Bft)
10.10.2016 11:52 5,2 C 5,2 C 90 % 1022,6 hPa 0,0 mm 4,4 km/h (1 Bft) N-NO 26 0 min 0,000 mm 1,6 UV-I 229 W/m 3,7 C 6,4 km/h (2 Bft)
10.10.2016 11:53 5,2 C 5,2 C 91 % 1022,6 hPa 0,0 mm 4,4 km/h (1 Bft) NO 40 0 min 0,000 mm 1,6 UV-I 234 W/m 3,9 C 8,0 km/h (2 Bft)
10.10.2016 11:54 5,2 C 5,2 C 90 % 1022,6 hPa 0,0 mm 6,2 km/h (2 Bft) NO 46 0 min 0,000 mm 1,6 UV-I 230 W/m 3,7 C 8,0 km/h (2 Bft)
10.10.2016 11:55 5,2 C 5,2 C 89 % 1022,6 hPa 0,0 mm 5,6 km/h (1 Bft) NO 35 0 min 0,000 mm 1,6 UV-I 225 W/m 3,5 C 8,0 km/h (2 Bft)
10.10.2016 11:56 5,2 C 5,2 C 90 % 1022,6 hPa 0,0 mm 5,0 km/h (1 Bft) NO 35 0 min 0,000 mm 1,6 UV-I 234 W/m 3,7 C 6,4 km/h (2 Bft)
10.10.2016 11:57 5,2 C 5,2 C 90 % 1022,6 hPa 0,0 mm 4,7 km/h (1 Bft) NO 53 0 min 0,000 mm 1,6 UV-I 236 W/m 3,7 C 6,4 km/h (2 Bft)
10.10.2016 11:58 5,3 C 5,3 C 90 % 1022,6 hPa 0,0 mm 2,7 km/h (1 Bft) NO 53 1 min 0,000 mm 1,8 UV-I 315 W/m 3,8 C 6,4 km/h (2 Bft)
10.10.2016 11:59 5,3 C 5,3 C 90 % 1022,5 hPa 0,0 mm 3,3 km/h (1 Bft) O-NO 63 1 min 0,000 mm 2,2 UV-I 315 W/m 3,8 C 4,8 km/h (1 Bft)
10.10.2016 12:00 5,3 C 5,3 C 91 % 1022,5 hPa 0,0 mm 4,6 km/h (1 Bft) NO 36 1 min 0,000 mm 1,3 UV-I 315 W/m 4,0 C 8,0 km/h (2 Bft)
10.10.2016 12:01 5,4 C 5,4 C 90 % 1022,5 hPa 0,0 mm 4,6 km/h (1 Bft) NO 45 0 min 0,076 mm 1,3 UV-I 179 W/m 3,9 C 8,0 km/h (2 Bft)
10.10.2016 12:02 5,4 C 5,4 C 90 % 1022,5 hPa 0,0 mm 2,3 km/h (1 Bft) NO 45 0 min 0,000 mm 1,2 UV-I 165 W/m 3,9 C 3,2 km/h (1 Bft)
10.10.2016 12:03 5,5 C 5,5 C 90 % 1022,6 hPa 0,0 mm 2,9 km/h (1 Bft) NO 44 0 min 0,000 mm 1,2 UV-I 167 W/m 4,0 C 4,8 km/h (1 Bft)
10.10.2016 12:04 5,6 C 5,6 C 90 % 1022,5 hPa 0,0 mm 5,0 km/h (1 Bft) NO 40 0 min 0,000 mm 1,2 UV-I 163 W/m 4,1 C 9,7 km/h (2 Bft)
10.10.2016 12:05 5,6 C 5,6 C 90 % 1022,5 hPa 0,0 mm 6,4 km/h (2 Bft) NO 38 0 min 0,000 mm 1,1 UV-I 160 W/m 4,1 C 9,7 km/h (2 Bft)
10.10.2016 12:06 5,6 C 5,6 C 88 % 1022,5 hPa 0,0 mm 6,4 km/h (2 Bft) O-NO 65 0 min 0,000 mm 1,1 UV-I 158 W/m 3,8 C 8,0 km/h (2 Bft)
10.10.2016 12:07 5,6 C 5,6 C 88 % 1022,6 hPa 0,0 mm 4,9 km/h (1 Bft) O-NO 69 0 min 0,000 mm 1,1 UV-I 155 W/m 3,8 C 8,0 km/h (2 Bft)
10.10.2016 12:08 5,5 C 5,6 C 87 % 1022,5 hPa 0,0 mm 4,1 km/h (1 Bft) O-NO 61 0 min 0,000 mm 1,1 UV-I 148 W/m 3,5 C 8,0 km/h (2 Bft)
10.10.2016 12:09 5,5 C 5,5 C 88 % 1022,5 hPa 0,0 mm 3,0 km/h (1 Bft) O-NO 57 0 min 0,000 mm 1,0 UV-I 144 W/m 3,7 C 4,8 km/h (1 Bft)
10.10.2016 12:10 5,5 C 5,5 C 88 % 1022,5 hPa 0,0 mm 4,6 km/h (1 Bft) O 94 0 min 0,000 mm 1,0 UV-I 142 W/m 3,7 C 6,4 km/h (2 Bft)
10.10.2016 12:11 5,4 C 5,5 C 87 % 1022,5 hPa 0,0 mm 4,2 km/h (1 Bft) O-NO 71 0 min 0,000 mm 1,0 UV-I 142 W/m 3,4 C 9,7 km/h (2 Bft)
10.10.2016 12:12 5,4 C 5,4 C 88 % 1022,6 hPa 0,0 mm 4,6 km/h (1 Bft) O-NO 74 0 min 0,000 mm 1,0 UV-I 144 W/m 3,6 C 6,4 km/h (2 Bft)
10.10.2016 12:13 5,4 C 5,4 C 87 % 1022,6 hPa 0,0 mm 4,4 km/h (1 Bft) N-NO 30 0 min 0,000 mm 1,0 UV-I 149 W/m 3,4 C 8,0 km/h (2 Bft)
10.10.2016 12:14 5,4 C 5,4 C 87 % 1022,5 hPa 0,0 mm 3,3 km/h (1 Bft) O-NO 57 0 min 0,000 mm 1,0 UV-I 156 W/m 3,4 C 6,4 km/h (2 Bft)
10.10.2016 12:15 5,4 C 5,5 C 87 % 1022,5 hPa 0,0 mm 6,4 km/h (2 Bft) SO 125 0 min 0,000 mm 1,0 UV-I 155 W/m 3,4 C 9,7 km/h (2 Bft)
10.10.2016 12:16 5,4 C 5,4 C 87 % 1022,5 hPa 0,0 mm 4,5 km/h (1 Bft) NO 49 0 min 0,000 mm 1,1 UV-I 155 W/m 3,4 C 8,0 km/h (2 Bft)
10.10.2016 12:17 5,5 C 5,5 C 88 % 1022,5 hPa 0,0 mm 3,3 km/h (1 Bft) N-NO 27 0 min 0,000 mm 1,1 UV-I 158 W/m 3,7 C 4,8 km/h (1 Bft)
10.10.2016 12:18 5,4 C 5,5 C 88 % 1022,4 hPa 0,0 mm 0,8 km/h (0 Bft) N-NO 27 0 min 0,000 mm 1,1 UV-I 162 W/m 3,6 C 1,6 km/h (1 Bft)
10.10.2016 12:19 5,5 C 5,5 C 88 % 1022,5 hPa 0,0 mm 2,7 km/h (1 Bft) N-NO 27 0 min 0,000 mm 1,1 UV-I 167 W/m 3,7 C 4,8 km/h (1 Bft)
10.10.2016 12:20 5,6 C 5,6 C 88 % 1022,4 hPa 0,0 mm 2,2 km/h (1 Bft) N-NO 32 0 min 0,000 mm 1,2 UV-I 178 W/m 3,8 C 4,8 km/h (1 Bft)
10.10.2016 12:21 5,6 C 5,6 C 88 % 1022,4 hPa 0,0 mm 4,1 km/h (1 Bft) O-NO 72 0 min 0,000 mm 1,3 UV-I 183 W/m 3,8 C 8,0 km/h (2 Bft)
10.10.2016 12:22 5,6 C 5,6 C 88 % 1022,4 hPa 0,0 mm 5,0 km/h (1 Bft) N-NO 32 0 min 0,000 mm 1,3 UV-I 190 W/m 3,8 C 6,4 km/h (2 Bft)
10.10.2016 12:23 5,6 C 5,6 C 86 % 1022,4 hPa 0,0 mm 3,1 km/h (1 Bft) NO 55 0 min 0,000 mm 1,4 UV-I 197 W/m 3,4 C 6,4 km/h (2 Bft)
10.10.2016 12:24 5,6 C 5,6 C 87 % 1022,4 hPa 0,0 mm 4,0 km/h (1 Bft) O-NO 67 0 min 0,000 mm 1,4 UV-I 204 W/m 3,6 C 4,8 km/h (1 Bft)
10.10.2016 12:25 5,6 C 5,6 C 87 % 1022,4 hPa 0,0 mm 3,1 km/h (1 Bft) O-NO 65 0 min 0,000 mm 1,5 UV-I 221 W/m 3,6 C 4,8 km/h (1 Bft)
10.10.2016 12:26 5,6 C 5,6 C 85 % 1022,3 hPa 0,0 mm 5,0 km/h (1 Bft) O-NO 59 0 min 0,000 mm 1,5 UV-I 225 W/m 3,3 C 6,4 km/h (2 Bft)
10.10.2016 12:27 5,6 C 5,6 C 85 % 1022,3 hPa 0,0 mm 3,1 km/h (1 Bft) O-NO 65 0 min 0,000 mm 1,5 UV-I 227 W/m 3,3 C 6,4 km/h (2 Bft)
10.10.2016 12:28 5,6 C 5,7 C 86 % 1022,4 hPa 0,0 mm 4,4 km/h (1 Bft) NO 44 0 min 0,000 mm 1,5 UV-I 225 W/m 3,4 C 8,0 km/h (2 Bft)
10.10.2016 12:29 5,7 C 5,7 C 87 % 1022,3 hPa 0,0 mm 4,6 km/h (1 Bft) NO 42 0 min 0,000 mm 1,5 UV-I 221 W/m 3,7 C 8,0 km/h (2 Bft)
10.10.2016 12:30 5,7 C 5,7 C 86 % 1022,3 hPa 0,0 mm 3,7 km/h (1 Bft) O-NO 64 0 min 0,000 mm 1,5 UV-I 214 W/m 3,5 C 6,4 km/h (2 Bft)
10.10.2016 12:31 5,8 C 5,8 C 87 % 1022,3 hPa 0,0 mm 5,4 km/h (1 Bft) O-NO 58 0 min 0,000 mm 1,4 UV-I 204 W/m 3,8 C 9,7 km/h (2 Bft)
10.10.2016 12:32 5,8 C 5,8 C 86 % 1022,3 hPa 0,0 mm 5,8 km/h (2 Bft) O-NO 78 0 min 0,000 mm 1,3 UV-I 199 W/m 3,6 C 8,0 km/h (2 Bft)
10.10.2016 12:33 5,7 C 5,8 C 86 % 1022,3 hPa 0,0 mm 6,4 km/h (2 Bft) O-SO 103 0 min 0,000 mm 1,3 UV-I 197 W/m 3,5 C 12,9 km/h (3 Bft)
10.10.2016 12:34 5,7 C 5,8 C 86 % 1022,3 hPa 0,0 mm 6,4 km/h (2 Bft) O-NO 74 0 min 0,000 mm 1,3 UV-I 193 W/m 3,5 C 8,0 km/h (2 Bft)
10.10.2016 12:35 5,7 C 5,7 C 87 % 1022,2 hPa 0,0 mm 5,6 km/h (1 Bft) O 86 0 min 0,000 mm 1,3 UV-I 192 W/m 3,7 C 6,4 km/h (2 Bft)
10.10.2016 12:36 5,7 C 5,7 C 86 % 1022,3 hPa 0,0 mm 2,9 km/h (1 Bft) O-NO 58 0 min 0,000 mm 1,3 UV-I 192 W/m 3,5 C 4,8 km/h (1 Bft)
10.10.2016 12:37 5,7 C 5,7 C 87 % 1022,2 hPa 0,0 mm 3,3 km/h (1 Bft) N-NO 20 0 min 0,000 mm 1,3 UV-I 192 W/m 3,7 C 4,8 km/h (1 Bft)
10.10.2016 12:38 5,7 C 5,7 C 87 % 1022,3 hPa 0,0 mm 2,3 km/h (1 Bft) NO 39 0 min 0,000 mm 1,3 UV-I 190 W/m 3,7 C 3,2 km/h (1 Bft)
10.10.2016 12:39 5,7 C 5,7 C 87 % 1022,3 hPa 0,0 mm 2,8 km/h (1 Bft) O 84 0 min 0,000 mm 1,3 UV-I 186 W/m 3,7 C 8,0 km/h (2 Bft)
10.10.2016 12:40 5,8 C 5,8 C 87 % 1022,2 hPa 0,0 mm 4,4 km/h (1 Bft) O-NO 61 0 min 0,000 mm 1,3 UV-I 188 W/m 3,8 C 6,4 km/h (2 Bft)
10.10.2016 12:41 5,8 C 5,8 C 86 % 1022,2 hPa 0,0 mm 5,4 km/h (1 Bft) O-NO 71 0 min 0,000 mm 1,3 UV-I 190 W/m 3,6 C 8,0 km/h (2 Bft)
10.10.2016 12:42 5,8 C 5,8 C 85 % 1022,2 hPa 0,0 mm 6,6 km/h (2 Bft) O-NO 76 0 min 0,000 mm 1,3 UV-I 190 W/m 3,5 C 11,3 km/h (2 Bft)
10.10.2016 12:43 5,8 C 5,8 C 85 % 1022,2 hPa 0,0 mm 3,8 km/h (1 Bft) NO 45 0 min 0,000 mm 1,3 UV-I 183 W/m 3,5 C 6,4 km/h (2 Bft)
10.10.2016 12:44 5,8 C 5,8 C 86 % 1022,2 hPa 0,0 mm 5,6 km/h (1 Bft) N-NO 26 0 min 0,000 mm 1,3 UV-I 185 W/m 3,6 C 9,7 km/h (2 Bft)
10.10.2016 12:45 5,8 C 5,8 C 85 % 1022,2 hPa 0,0 mm 5,3 km/h (1 Bft) NO 46 0 min 0,000 mm 1,3 UV-I 186 W/m 3,5 C 8,0 km/h (2 Bft)
10.10.2016 12:46 5,8 C 5,8 C 85 % 1022,2 hPa 0,0 mm 4,1 km/h (1 Bft) O-NO 73 0 min 0,000 mm 1,3 UV-I 183 W/m 3,5 C 6,4 km/h (2 Bft)
10.10.2016 12:47 5,8 C 5,8 C 84 % 1022,2 hPa 0,0 mm 6,6 km/h (2 Bft) NO 35 0 min 0,000 mm 1,3 UV-I 181 W/m 3,3 C 9,7 km/h (2 Bft)
10.10.2016 12:48 5,8 C 5,8 C 84 % 1022,2 hPa 0,0 mm 3,1 km/h (1 Bft) N-NO 28 0 min 0,000 mm 1,3 UV-I 181 W/m 3,3 C 8,0 km/h (2 Bft)
10.10.2016 12:49 5,8 C 5,8 C 84 % 1022,2 hPa 0,0 mm 8,4 km/h (2 Bft) NO 42 0 min 0,000 mm 1,3 UV-I 179 W/m 3,3 C 11,3 km/h (2 Bft)
10.10.2016 12:50 5,8 C 5,8 C 84 % 1022,1 hPa 0,0 mm 5,8 km/h (2 Bft) NO 41 0 min 0,000 mm 1,2 UV-I 178 W/m 3,3 C 8,0 km/h (2 Bft)
10.10.2016 12:51 5,8 C 5,8 C 84 % 1022,2 hPa 0,0 mm 4,2 km/h (1 Bft) N-NO 26 0 min 0,000 mm 1,2 UV-I 176 W/m 3,3 C 6,4 km/h (2 Bft)
10.10.2016 12:52 5,8 C 5,8 C 84 % 1022,2 hPa 0,0 mm 7,1 km/h (2 Bft) O 86 0 min 0,000 mm 1,2 UV-I 172 W/m 3,3 C 11,3 km/h (2 Bft)
10.10.2016 12:53 5,8 C 5,8 C 84 % 1022,1 hPa 0,0 mm 5,6 km/h (1 Bft) O-NO 76 0 min 0,000 mm 1,2 UV-I 169 W/m 3,3 C 11,3 km/h (2 Bft)
10.10.2016 12:54 5,8 C 5,8 C 84 % 1022,1 hPa 0,0 mm 4,4 km/h (1 Bft) NO 52 0 min 0,000 mm 1,2 UV-I 165 W/m 3,3 C 9,7 km/h (2 Bft)
10.10.2016 12:55 5,8 C 5,8 C 84 % 1022,1 hPa 0,0 mm 4,8 km/h (1 Bft) O-NO 78 0 min 0,000 mm 1,2 UV-I 165 W/m 3,3 C 6,4 km/h (2 Bft)
10.10.2016 12:56 5,8 C 5,8 C 84 % 1022,1 hPa 0,0 mm 6,7 km/h (2 Bft) O-NO 73 0 min 0,000 mm 1,2 UV-I 169 W/m 3,3 C 9,7 km/h (2 Bft)
10.10.2016 12:57 5,8 C 5,8 C 84 % 1022,1 hPa 0,0 mm 5,6 km/h (1 Bft) N-NO 26 0 min 0,000 mm 1,3 UV-I 171 W/m 3,3 C 6,4 km/h (2 Bft)
10.10.2016 12:58 5,8 C 5,8 C 84 % 1022,1 hPa 0,0 mm 5,2 km/h (1 Bft) NO 34 0 min 0,000 mm 1,3 UV-I 176 W/m 3,3 C 9,7 km/h (2 Bft)
10.10.2016 12:59 5,8 C 5,8 C 84 % 1022,1 hPa 0,0 mm 5,1 km/h (1 Bft) O-NO 62 0 min 0,000 mm 1,4 UV-I 183 W/m 3,3 C 8,0 km/h (2 Bft)
10.10.2016 13:00 5,8 C 5,8 C 85 % 1022,0 hPa 0,0 mm 5,1 km/h (1 Bft) NO 53 0 min 0,000 mm 1,5 UV-I 193 W/m 3,5 C 8,0 km/h (2 Bft)
10.10.2016 13:01 5,8 C 5,9 C 85 % 1022,0 hPa 0,0 mm 5,6 km/h (1 Bft) NO 49 0 min 0,076 mm 1,6 UV-I 216 W/m 3,5 C 9,7 km/h (2 Bft)
10.10.2016 13:02 5,9 C 5,9 C 84 % 1021,9 hPa 0,0 mm 5,2 km/h (1 Bft) NO 43 0 min 0,001 mm 1,7 UV-I 220 W/m 3,4 C 8,0 km/h (2 Bft)
10.10.2016 13:03 5,8 C 5,9 C 84 % 1022,0 hPa 0,0 mm 6,7 km/h (2 Bft) NO 36 0 min 0,000 mm 1,8 UV-I 218 W/m 3,3 C 9,7 km/h (2 Bft)
10.10.2016 13:04 5,8 C 5,8 C 84 % 1021,9 hPa 0,0 mm 4,8 km/h (1 Bft) NO 36 0 min 0,000 mm 1,8 UV-I 218 W/m 3,3 C 6,4 km/h (2 Bft)
10.10.2016 13:05 5,8 C 5,8 C 84 % 1021,9 hPa 0,0 mm 4,2 km/h (1 Bft) N-NO 23 0 min 0,000 mm 1,9 UV-I 211 W/m 3,3 C 4,8 km/h (1 Bft)
10.10.2016 13:06 5,8 C 5,8 C 84 % 1021,9 hPa 0,0 mm 5,5 km/h (1 Bft) O-NO 72 0 min 0,000 mm 1,9 UV-I 216 W/m 3,3 C 8,0 km/h (2 Bft)
10.10.2016 13:07 5,8 C 5,8 C 84 % 1021,9 hPa 0,0 mm 4,8 km/h (1 Bft) O-NO 66 0 min 0,000 mm 2,0 UV-I 221 W/m 3,3 C 6,4 km/h (2 Bft)
10.10.2016 13:08 5,8 C 5,8 C 84 % 1021,9 hPa 0,0 mm 4,4 km/h (1 Bft) O-NO 66 0 min 0,000 mm 2,0 UV-I 223 W/m 3,3 C 6,4 km/h (2 Bft)
10.10.2016 13:09 5,7 C 5,8 C 85 % 1021,9 hPa 0,0 mm 3,8 km/h (1 Bft) O 88 0 min 0,000 mm 2,1 UV-I 229 W/m 3,4 C 4,8 km/h (1 Bft)
10.10.2016 13:10 5,7 C 5,8 C 84 % 1021,9 hPa 0,0 mm 3,3 km/h (1 Bft) O 88 0 min 0,000 mm 2,1 UV-I 255 W/m 3,2 C 4,8 km/h (1 Bft)
10.10.2016 13:11 5,7 C 5,7 C 84 % 1021,8 hPa 0,0 mm 2,8 km/h (1 Bft) O 88 0 min 0,000 mm 2,3 UV-I 288 W/m 3,2 C 4,8 km/h (1 Bft)
10.10.2016 13:12 5,8 C 5,8 C 85 % 1021,8 hPa 0,0 mm 3,2 km/h (1 Bft) O 88 1 min 0,000 mm 2,4 UV-I 322 W/m 3,5 C 4,8 km/h (1 Bft)
10.10.2016 13:13 5,8 C 5,8 C 83 % 1021,8 hPa 0,0 mm 1,8 km/h (1 Bft) O 88 1 min 0,000 mm 3,2 UV-I 322 W/m 3,1 C 3,2 km/h (1 Bft)
10.10.2016 13:14 5,8 C 5,8 C 85 % 1021,8 hPa 0,0 mm 3,8 km/h (1 Bft) O-NO 65 1 min 0,000 mm 2,9 UV-I 322 W/m 3,5 C 6,4 km/h (2 Bft)
10.10.2016 13:15 6,1 C 6,1 C 84 % 1021,7 hPa 0,0 mm 3,0 km/h (1 Bft) O-NO 67 1 min 0,000 mm 3,3 UV-I 322 W/m 3,6 C 4,8 km/h (1 Bft)
10.10.2016 13:16 6,2 C 6,2 C 85 % 1021,7 hPa 0,0 mm 6,4 km/h (2 Bft) NO 51 1 min 0,000 mm 3,3 UV-I 705 W/m 3,9 C 11,3 km/h (2 Bft)
10.10.2016 13:17 6,4 C 6,4 C 83 % 1021,7 hPa 0,0 mm 4,9 km/h (1 Bft) NO 54 1 min 0,000 mm 2,3 UV-I 705 W/m 3,7 C 6,4 km/h (2 Bft)
10.10.2016 13:18 6,6 C 6,6 C 84 % 1021,8 hPa 0,0 mm 4,0 km/h (1 Bft) O-SO 109 0 min 0,000 mm 2,3 UV-I 271 W/m 4,1 C 6,4 km/h (2 Bft)
10.10.2016 13:19 6,6 C 6,6 C 83 % 1021,7 hPa 0,0 mm 4,5 km/h (1 Bft) O-NO 75 0 min 0,000 mm 2,1 UV-I 257 W/m 3,9 C 8,0 km/h (2 Bft)
10.10.2016 13:20 6,5 C 6,6 C 81 % 1021,8 hPa 0,0 mm 6,4 km/h (2 Bft) O 88 0 min 0,000 mm 2,1 UV-I 241 W/m 3,5 C 9,7 km/h (2 Bft)
10.10.2016 13:21 6,4 C 6,5 C 81 % 1021,7 hPa 0,0 mm 4,5 km/h (1 Bft) O-SO 113 0 min 0,000 mm 2,1 UV-I 232 W/m 3,4 C 6,4 km/h (2 Bft)
10.10.2016 13:22 6,3 C 6,4 C 82 % 1021,7 hPa 0,0 mm 3,4 km/h (1 Bft) O 86 0 min 0,000 mm 2,0 UV-I 232 W/m 3,5 C 4,8 km/h (1 Bft)
10.10.2016 13:23 6,3 C 6,3 C 81 % 1021,7 hPa 0,0 mm 4,6 km/h (1 Bft) S-SO 150 0 min 0,000 mm 2,0 UV-I 221 W/m 3,3 C 8,0 km/h (2 Bft)
10.10.2016 13:24 6,3 C 6,3 C 82 % 1021,6 hPa 0,0 mm 3,0 km/h (1 Bft) O-NO 69 0 min 0,000 mm 2,0 UV-I 230 W/m 3,5 C 4,8 km/h (1 Bft)
10.10.2016 13:25 6,3 C 6,3 C 82 % 1021,7 hPa 0,0 mm 4,3 km/h (1 Bft) O 87 0 min 0,000 mm 2,0 UV-I 221 W/m 3,5 C 4,8 km/h (1 Bft)
10.10.2016 13:26 6,3 C 6,3 C 81 % 1021,7 hPa 0,0 mm 0,8 km/h (0 Bft) O 87 0 min 0,000 mm 2,0 UV-I 223 W/m 3,3 C 1,6 km/h (1 Bft)
10.10.2016 13:27 6,3 C 6,3 C 81 % 1021,7 hPa 0,0 mm 1,1 km/h (1 Bft) O 87 0 min 0,000 mm 2,0 UV-I 232 W/m 3,3 C 3,2 km/h (1 Bft)
10.10.2016 13:28 6,3 C 6,4 C 81 % 1021,6 hPa 0,0 mm 2,1 km/h (1 Bft) O 87 0 min 0,000 mm 2,0 UV-I 237 W/m 3,3 C 3,2 km/h (1 Bft)
10.10.2016 13:29 6,3 C 6,3 C 82 % 1021,6 hPa 0,0 mm 0,2 km/h (0 Bft) O 87 0 min 0,000 mm 2,0 UV-I 244 W/m 3,5 C 1,6 km/h (1 Bft)
10.10.2016 13:30 6,4 C 6,4 C 83 % 1021,6 hPa 0,0 mm 0,2 km/h (0 Bft) O 87 0 min 0,000 mm 2,0 UV-I 221 W/m 3,7 C 1,6 km/h (1 Bft)
10.10.2016 13:31 6,4 C 6,4 C 82 % 1021,6 hPa 0,0 mm 0,3 km/h (0 Bft) O 87 0 min 0,000 mm 1,7 UV-I 214 W/m 3,6 C 1,6 km/h (1 Bft)
10.10.2016 13:32 6,4 C 6,4 C 82 % 1021,5 hPa 0,0 mm 1,8 km/h (1 Bft) O 88 0 min 0,000 mm 1,7 UV-I 218 W/m 3,6 C 4,8 km/h (1 Bft)
10.10.2016 13:33 6,3 C 6,4 C 82 % 1021,6 hPa 0,0 mm 2,3 km/h (1 Bft) O 90 0 min 0,000 mm 1,6 UV-I 218 W/m 3,5 C 3,2 km/h (1 Bft)
10.10.2016 13:34 6,4 C 6,4 C 82 % 1021,6 hPa 0,0 mm 2,8 km/h (1 Bft) NO 55 0 min 0,000 mm 1,6 UV-I 223 W/m 3,6 C 4,8 km/h (1 Bft)
10.10.2016 13:35 6,4 C 6,4 C 81 % 1021,6 hPa 0,0 mm 3,3 km/h (1 Bft) NO 55 0 min 0,000 mm 1,5 UV-I 227 W/m 3,4 C 4,8 km/h (1 Bft)
10.10.2016 13:36 6,4 C 6,4 C 82 % 1021,6 hPa 0,0 mm 2,5 km/h (1 Bft) NO 47 0 min 0,000 mm 1,6 UV-I 221 W/m 3,6 C 6,4 km/h (2 Bft)
10.10.2016 13:37 6,5 C 6,5 C 83 % 1021,6 hPa 0,0 mm 3,5 km/h (1 Bft) NO 39 0 min 0,000 mm 1,6 UV-I 220 W/m 3,8 C 9,7 km/h (2 Bft)
10.10.2016 13:38 6,5 C 6,6 C 82 % 1021,6 hPa 0,0 mm 9,7 km/h (2 Bft) O 82 0 min 0,000 mm 1,6 UV-I 225 W/m 3,7 C 14,5 km/h (3 Bft)
10.10.2016 13:39 6,6 C 6,6 C 79 % 1021,6 hPa 0,0 mm 7,8 km/h (2 Bft) O-NO 58 0 min 0,000 mm 1,7 UV-I 230 W/m 3,2 C 12,9 km/h (3 Bft)
10.10.2016 13:40 6,5 C 6,6 C 79 % 1021,5 hPa 0,0 mm 6,8 km/h (2 Bft) N-NO 18 0 min 0,000 mm 1,7 UV-I 236 W/m 3,1 C 11,3 km/h (2 Bft)
10.10.2016 13:41 6,6 C 6,6 C 78 % 1021,6 hPa 0,0 mm 4,0 km/h (1 Bft) NO 51 0 min 0,000 mm 1,8 UV-I 237 W/m 3,0 C 8,0 km/h (2 Bft)
10.10.2016 13:42 6,6 C 6,6 C 78 % 1021,6 hPa 0,0 mm 6,2 km/h (2 Bft) N 11 0 min 0,000 mm 1,8 UV-I 250 W/m 3,0 C 9,7 km/h (2 Bft)
10.10.2016 13:43 6,6 C 6,6 C 79 % 1021,5 hPa 0,0 mm 2,2 km/h (1 Bft) O-NO 65 0 min 0,000 mm 1,9 UV-I 258 W/m 3,2 C 3,2 km/h (1 Bft)
10.10.2016 13:44 6,6 C 6,6 C 79 % 1021,5 hPa 0,0 mm 4,0 km/h (1 Bft) O-NO 73 0 min 0,000 mm 1,9 UV-I 265 W/m 3,2 C 6,4 km/h (2 Bft)
10.10.2016 13:45 6,6 C 6,6 C 80 % 1021,5 hPa 0,0 mm 2,5 km/h (1 Bft) O 83 0 min 0,000 mm 1,9 UV-I 274 W/m 3,4 C 4,8 km/h (1 Bft)
10.10.2016 13:46 6,6 C 6,6 C 81 % 1021,5 hPa 0,0 mm 4,8 km/h (1 Bft) S-SO 148 0 min 0,000 mm 2,0 UV-I 278 W/m 3,6 C 8,0 km/h (2 Bft)
10.10.2016 13:47 6,6 C 6,6 C 80 % 1021,5 hPa 0,0 mm 2,5 km/h (1 Bft) S-SO 163 0 min 0,000 mm 2,0 UV-I 297 W/m 3,4 C 6,4 km/h (2 Bft)
10.10.2016 13:48 6,6 C 6,6 C 80 % 1021,5 hPa 0,0 mm 4,0 km/h (1 Bft) N-NO 22 0 min 0,000 mm 2,0 UV-I 295 W/m 3,4 C 4,8 km/h (1 Bft)
10.10.2016 13:49 6,6 C 6,6 C 80 % 1021,5 hPa 0,0 mm 3,8 km/h (1 Bft) N-NO 32 0 min 0,000 mm 2,0 UV-I 299 W/m 3,4 C 6,4 km/h (2 Bft)
10.10.2016 13:50 6,6 C 6,6 C 80 % 1021,5 hPa 0,0 mm 3,1 km/h (1 Bft) NO 36 0 min 0,000 mm 2,0 UV-I 299 W/m 3,4 C 4,8 km/h (1 Bft)
10.10.2016 13:51 6,7 C 6,7 C 81 % 1021,5 hPa 0,0 mm 5,2 km/h (1 Bft) S-SO 154 0 min 0,000 mm 1,9 UV-I 283 W/m 3,7 C 9,7 km/h (2 Bft)
10.10.2016 13:52 6,7 C 6,7 C 78 % 1021,5 hPa 0,0 mm 4,3 km/h (1 Bft) S-SO 163 0 min 0,000 mm 1,8 UV-I 272 W/m 3,1 C 6,4 km/h (2 Bft)
10.10.2016 13:53 6,6 C 6,7 C 79 % 1021,5 hPa 0,0 mm 4,2 km/h (1 Bft) NO 42 0 min 0,000 mm 1,8 UV-I 264 W/m 3,2 C 9,7 km/h (2 Bft)
10.10.2016 13:54 6,6 C 6,7 C 80 % 1021,5 hPa 0,0 mm 7,1 km/h (2 Bft) O-NO 69 0 min 0,000 mm 1,8 UV-I 262 W/m 3,4 C 9,7 km/h (2 Bft)
10.10.2016 13:55 6,7 C 6,7 C 79 % 1021,5 hPa 0,0 mm 4,1 km/h (1 Bft) NO 39 0 min 0,000 mm 1,7 UV-I 260 W/m 3,3 C 6,4 km/h (2 Bft)
10.10.2016 13:56 6,6 C 6,7 C 78 % 1021,4 hPa 0,0 mm 7,3 km/h (2 Bft) NO 38 0 min 0,000 mm 1,6 UV-I 250 W/m 3,0 C 11,3 km/h (2 Bft)
10.10.2016 13:57 6,6 C 6,6 C 79 % 1021,5 hPa 0,0 mm 8,1 km/h (2 Bft) O-NO 65 0 min 0,000 mm 1,6 UV-I 244 W/m 3,2 C 9,7 km/h (2 Bft)
10.10.2016 13:58 6,5 C 6,6 C 80 % 1021,5 hPa 0,0 mm 5,8 km/h (2 Bft) O-NO 68 0 min 0,000 mm 1,6 UV-I 241 W/m 3,3 C 9,7 km/h (2 Bft)
10.10.2016 13:59 6,6 C 6,6 C 80 % 1021,4 hPa 0,0 mm 4,2 km/h (1 Bft) O-NO 71 0 min 0,000 mm 1,6 UV-I 237 W/m 3,4 C 6,4 km/h (2 Bft)
10.10.2016 14:00 6,6 C 6,6 C 81 % 1021,4 hPa 0,0 mm 3,0 km/h (1 Bft) O-NO 57 0 min 0,000 mm 1,6 UV-I 236 W/m 3,6 C 8,0 km/h (2 Bft)
10.10.2016 14:01 6,6 C 6,6 C 81 % 1021,4 hPa 0,0 mm 5,4 km/h (1 Bft) O-NO 64 0 min 0,127 mm 1,6 UV-I 232 W/m 3,6 C 8,0 km/h (2 Bft)
10.10.2016 14:02 6,7 C 6,7 C 81 % 1021,4 hPa 0,0 mm 4,5 km/h (1 Bft) O-SO 117 0 min 0,000 mm 1,5 UV-I 229 W/m 3,7 C 6,4 km/h (2 Bft)
10.10.2016 14:03 6,6 C 6,7 C 80 % 1021,4 hPa 0,0 mm 3,5 km/h (1 Bft) O 101 0 min 0,000 mm 1,5 UV-I 223 W/m 3,4 C 4,8 km/h (1 Bft)
10.10.2016 14:04 6,6 C 6,7 C 81 % 1021,4 hPa 0,0 mm 3,0 km/h (1 Bft) O-NO 74 0 min 0,000 mm 1,5 UV-I 218 W/m 3,6 C 4,8 km/h (1 Bft)
10.10.2016 14:05 6,7 C 6,7 C 81 % 1021,3 hPa 0,0 mm 3,4 km/h (1 Bft) O 79 0 min 0,000 mm 1,5 UV-I 211 W/m 3,7 C 6,4 km/h (2 Bft)
10.10.2016 14:06 6,7 C 6,7 C 80 % 1021,4 hPa 0,0 mm 5,9 km/h (2 Bft) O-NO 73 0 min 0,000 mm 1,4 UV-I 209 W/m 3,5 C 8,0 km/h (2 Bft)
10.10.2016 14:07 6,7 C 6,7 C 81 % 1021,3 hPa 0,0 mm 5,2 km/h (1 Bft) O-NO 65 0 min 0,000 mm 1,4 UV-I 207 W/m 3,7 C 8,0 km/h (2 Bft)
10.10.2016 14:08 6,7 C 6,7 C 81 % 1021,4 hPa 0,0 mm 5,1 km/h (1 Bft) O-NO 67 0 min 0,000 mm 1,4 UV-I 207 W/m 3,7 C 8,0 km/h (2 Bft)
10.10.2016 14:09 6,7 C 6,7 C 80 % 1021,4 hPa 0,0 mm 6,1 km/h (2 Bft) O 80 0 min 0,000 mm 1,4 UV-I 207 W/m 3,5 C 8,0 km/h (2 Bft)
10.10.2016 14:10 6,5 C 6,7 C 80 % 1021,3 hPa 0,0 mm 2,6 km/h (1 Bft) O-NO 75 0 min 0,000 mm 1,4 UV-I 207 W/m 3,3 C 4,8 km/h (1 Bft)
10.10.2016 14:11 6,5 C 6,5 C 81 % 1021,3 hPa 0,0 mm 4,5 km/h (1 Bft) O-NO 63 0 min 0,000 mm 1,4 UV-I 204 W/m 3,5 C 6,4 km/h (2 Bft)
10.10.2016 14:12 6,5 C 6,5 C 81 % 1021,3 hPa 0,0 mm 5,0 km/h (1 Bft) NO 49 0 min 0,000 mm 1,3 UV-I 197 W/m 3,5 C 8,0 km/h (2 Bft)
10.10.2016 14:13 6,6 C 6,6 C 82 % 1021,3 hPa 0,0 mm 4,7 km/h (1 Bft) O-NO 58 0 min 0,000 mm 1,3 UV-I 190 W/m 3,8 C 8,0 km/h (2 Bft)
10.10.2016 14:14 6,6 C 6,6 C 81 % 1021,3 hPa 0,0 mm 7,5 km/h (2 Bft) O-NO 59 0 min 0,000 mm 1,2 UV-I 179 W/m 3,6 C 14,5 km/h (3 Bft)
10.10.2016 14:15 6,6 C 6,6 C 81 % 1021,3 hPa 0,0 mm 7,3 km/h (2 Bft) N-NO 22 0 min 0,000 mm 1,2 UV-I 169 W/m 3,6 C 14,5 km/h (3 Bft)
10.10.2016 14:16 6,6 C 6,6 C 81 % 1021,3 hPa 0,0 mm 10,0 km/h (2 Bft) O-NO 76 0 min 0,000 mm 1,1 UV-I 160 W/m 3,6 C 14,5 km/h (3 Bft)
10.10.2016 14:17 6,6 C 6,7 C 80 % 1021,3 hPa 0,0 mm 6,6 km/h (2 Bft) O-NO 67 0 min 0,000 mm 1,1 UV-I 144 W/m 3,4 C 11,3 km/h (2 Bft)
10.10.2016 14:18 6,6 C 6,6 C 80 % 1021,3 hPa 0,0 mm 5,7 km/h (1 Bft) O-NO 65 0 min 0,000 mm 1,0 UV-I 137 W/m 3,4 C 9,7 km/h (2 Bft)
10.10.2016 14:19 6,6 C 6,6 C 80 % 1021,2 hPa 0,0 mm 6,9 km/h (2 Bft) NO 49 0 min 0,000 mm 0,9 UV-I 134 W/m 3,4 C 12,9 km/h (3 Bft)
10.10.2016 14:20 6,6 C 6,6 C 79 % 1021,2 hPa 0,0 mm 5,6 km/h (1 Bft) NO 55 0 min 0,000 mm 0,9 UV-I 130 W/m 3,2 C 8,0 km/h (2 Bft)
10.10.2016 14:21 6,6 C 6,6 C 80 % 1021,2 hPa 0,0 mm 5,8 km/h (2 Bft) N 9 0 min 0,000 mm 0,9 UV-I 127 W/m 3,4 C 8,0 km/h (2 Bft)
10.10.2016 14:22 6,4 C 6,6 C 80 % 1021,2 hPa 0,0 mm 5,4 km/h (1 Bft) O-NO 64 0 min 0,000 mm 0,9 UV-I 120 W/m 3,2 C 8,0 km/h (2 Bft)
10.10.2016 14:23 6,4 C 6,4 C 80 % 1021,2 hPa 0,0 mm 8,2 km/h (2 Bft) O-NO 57 0 min 0,000 mm 0,9 UV-I 118 W/m 3,2 C 11,3 km/h (2 Bft)
10.10.2016 14:24 6,3 C 6,4 C 80 % 1021,2 hPa 0,0 mm 7,0 km/h (2 Bft) NO 53 0 min 0,000 mm 0,8 UV-I 114 W/m 3,1 C 8,0 km/h (2 Bft)
10.10.2016 14:25 6,4 C 6,4 C 80 % 1021,2 hPa 0,0 mm 9,2 km/h (2 Bft) O 89 0 min 0,000 mm 0,8 UV-I 113 W/m 3,2 C 14,5 km/h (3 Bft)
10.10.2016 14:26 6,3 C 6,4 C 79 % 1021,2 hPa 0,0 mm 7,5 km/h (2 Bft) NO 41 0 min 0,000 mm 0,8 UV-I 111 W/m 2,9 C 12,9 km/h (3 Bft)
10.10.2016 14:27 6,3 C 6,3 C 79 % 1021,2 hPa 0,0 mm 6,3 km/h (2 Bft) O-NO 75 0 min 0,000 mm 0,8 UV-I 111 W/m 2,9 C 11,3 km/h (2 Bft)
10.10.2016 14:28 6,3 C 6,3 C 79 % 1021,2 hPa 0,0 mm 6,6 km/h (2 Bft) O-NO 68 0 min 0,000 mm 0,8 UV-I 113 W/m 2,9 C 9,7 km/h (2 Bft)
10.10.2016 14:29 6,3 C 6,3 C 79 % 1021,2 hPa 0,0 mm 6,0 km/h (2 Bft) O-NO 71 0 min 0,000 mm 0,8 UV-I 114 W/m 2,9 C 12,9 km/h (3 Bft)
10.10.2016 14:30 6,2 C 6,3 C 79 % 1021,2 hPa 0,0 mm 5,4 km/h (1 Bft) O-NO 69 0 min 0,000 mm 0,8 UV-I 116 W/m 2,8 C 12,9 km/h (3 Bft)
10.10.2016 14:31 6,2 C 6,3 C 78 % 1021,1 hPa 0,0 mm 4,5 km/h (1 Bft) N-NW 327 0 min 0,000 mm 0,9 UV-I 120 W/m 2,7 C 8,0 km/h (2 Bft)
10.10.2016 14:32 6,2 C 6,2 C 80 % 1021,1 hPa 0,0 mm 3,4 km/h (1 Bft) NO 54 0 min 0,000 mm 0,9 UV-I 123 W/m 3,0 C 4,8 km/h (1 Bft)
10.10.2016 14:33 6,2 C 6,2 C 80 % 1021,1 hPa 0,0 mm 3,2 km/h (1 Bft) NO 53 0 min 0,000 mm 0,9 UV-I 125 W/m 3,0 C 4,8 km/h (1 Bft)
10.10.2016 14:34 6,2 C 6,2 C 81 % 1021,1 hPa 0,0 mm 1,1 km/h (1 Bft) NO 52 0 min 0,000 mm 0,9 UV-I 132 W/m 3,2 C 3,2 km/h (1 Bft)
10.10.2016 14:35 6,3 C 6,3 C 81 % 1021,1 hPa 0,0 mm 2,5 km/h (1 Bft) NO 54 0 min 0,000 mm 0,9 UV-I 135 W/m 3,3 C 4,8 km/h (1 Bft)
10.10.2016 14:36 6,3 C 6,3 C 81 % 1021,1 hPa 0,0 mm 4,1 km/h (1 Bft) O 91 0 min 0,000 mm 1,0 UV-I 137 W/m 3,3 C 6,4 km/h (2 Bft)
10.10.2016 14:37 6,3 C 6,3 C 81 % 1021,1 hPa 0,0 mm 4,1 km/h (1 Bft) N-NO 32 0 min 0,000 mm 1,0 UV-I 141 W/m 3,3 C 6,4 km/h (2 Bft)
10.10.2016 14:38 6,3 C 6,3 C 82 % 1021,1 hPa 0,0 mm 1,2 km/h (1 Bft) N-NO 32 0 min 0,000 mm 1,0 UV-I 141 W/m 3,5 C 3,2 km/h (1 Bft)
10.10.2016 14:39 6,3 C 6,3 C 82 % 1021,0 hPa 0,0 mm 3,1 km/h (1 Bft) O-NO 67 0 min 0,000 mm 1,1 UV-I 151 W/m 3,5 C 4,8 km/h (1 Bft)
10.10.2016 14:40 6,3 C 6,3 C 81 % 1021,1 hPa 0,0 mm 2,9 km/h (1 Bft) O-NO 67 0 min 0,000 mm 1,1 UV-I 165 W/m 3,3 C 3,2 km/h (1 Bft)
10.10.2016 14:41 6,3 C 6,3 C 84 % 1021,0 hPa 0,0 mm 2,6 km/h (1 Bft) O-NO 67 0 min 0,000 mm 1,2 UV-I 174 W/m 3,8 C 3,2 km/h (1 Bft)
10.10.2016 14:42 6,3 C 6,3 C 82 % 1021,0 hPa 0,0 mm 2,4 km/h (1 Bft) O-NO 67 0 min 0,000 mm 1,2 UV-I 181 W/m 3,5 C 3,2 km/h (1 Bft)
10.10.2016 14:43 6,3 C 6,3 C 82 % 1021,0 hPa 0,0 mm 3,0 km/h (1 Bft) O-NO 61 0 min 0,000 mm 1,3 UV-I 186 W/m 3,5 C 4,8 km/h (1 Bft)
10.10.2016 14:44 6,3 C 6,3 C 82 % 1021,0 hPa 0,0 mm 2,1 km/h (1 Bft) O-NO 61 0 min 0,000 mm 1,3 UV-I 192 W/m 3,5 C 3,2 km/h (1 Bft)
10.10.2016 14:45 6,4 C 6,4 C 82 % 1020,9 hPa 0,0 mm 1,5 km/h (1 Bft) NO 41 0 min 0,000 mm 1,3 UV-I 195 W/m 3,6 C 4,8 km/h (1 Bft)
10.10.2016 14:46 6,4 C 6,4 C 83 % 1020,9 hPa 0,0 mm 3,8 km/h (1 Bft) NO 53 0 min 0,000 mm 1,3 UV-I 199 W/m 3,7 C 4,8 km/h (1 Bft)
10.10.2016 14:47 6,5 C 6,6 C 83 % 1020,9 hPa 0,0 mm 2,4 km/h (1 Bft) NO 48 0 min 0,000 mm 1,3 UV-I 199 W/m 3,8 C 4,8 km/h (1 Bft)
10.10.2016 14:48 6,6 C 6,6 C 82 % 1020,9 hPa 0,0 mm 5,2 km/h (1 Bft) O-NO 57 0 min 0,000 mm 1,3 UV-I 197 W/m 3,8 C 8,0 km/h (2 Bft)
10.10.2016 14:49 6,6 C 6,6 C 81 % 1020,9 hPa 0,0 mm 4,3 km/h (1 Bft) O 81 0 min 0,000 mm 1,3 UV-I 195 W/m 3,6 C 6,4 km/h (2 Bft)
10.10.2016 14:50 6,5 C 6,6 C 81 % 1020,9 hPa 0,0 mm 2,7 km/h (1 Bft) NO 51 0 min 0,000 mm 1,3 UV-I 193 W/m 3,5 C 4,8 km/h (1 Bft)
10.10.2016 14:51 6,5 C 6,5 C 81 % 1020,8 hPa 0,0 mm 3,1 km/h (1 Bft) N 5 0 min 0,000 mm 1,3 UV-I 192 W/m 3,5 C 4,8 km/h (1 Bft)
10.10.2016 14:52 6,5 C 6,5 C 81 % 1020,9 hPa 0,0 mm 4,4 km/h (1 Bft) NO 35 0 min 0,000 mm 1,3 UV-I 190 W/m 3,5 C 8,0 km/h (2 Bft)
10.10.2016 14:53 6,5 C 6,5 C 81 % 1020,9 hPa 0,0 mm 7,0 km/h (2 Bft) O-NO 74 0 min 0,000 mm 1,3 UV-I 190 W/m 3,5 C 14,5 km/h (3 Bft)
10.10.2016 14:54 6,5 C 6,5 C 80 % 1020,9 hPa 0,0 mm 4,2 km/h (1 Bft) O-SO 117 0 min 0,000 mm 1,3 UV-I 190 W/m 3,3 C 6,4 km/h (2 Bft)
10.10.2016 14:55 6,5 C 6,5 C 81 % 1020,9 hPa 0,0 mm 5,7 km/h (1 Bft) O 85 0 min 0,000 mm 1,3 UV-I 192 W/m 3,5 C 9,7 km/h (2 Bft)
10.10.2016 14:56 6,4 C 6,5 C 81 % 1020,9 hPa 0,0 mm 6,6 km/h (2 Bft) O-NO 65 0 min 0,000 mm 1,3 UV-I 192 W/m 3,4 C 9,7 km/h (2 Bft)
10.10.2016 14:57 6,4 C 6,4 C 81 % 1020,9 hPa 0,0 mm 5,2 km/h (1 Bft) NO 55 0 min 0,000 mm 1,3 UV-I 193 W/m 3,4 C 9,7 km/h (2 Bft)
10.10.2016 14:58 6,5 C 6,5 C 81 % 1021,0 hPa 0,0 mm 3,8 km/h (1 Bft) O-NO 60 0 min 0,000 mm 1,3 UV-I 193 W/m 3,5 C 11,3 km/h (2 Bft)
10.10.2016 14:59 6,5 C 6,5 C 82 % 1020,9 hPa 0,0 mm 5,2 km/h (1 Bft) O-NO 78 0 min 0,000 mm 1,3 UV-I 193 W/m 3,7 C 6,4 km/h (2 Bft)
10.10.2016 15:00 6,5 C 6,5 C 81 % 1020,9 hPa 0,0 mm 3,4 km/h (1 Bft) O-NO 72 0 min 0,000 mm 1,3 UV-I 193 W/m 3,5 C 4,8 km/h (1 Bft)
10.10.2016 15:01 6,4 C 6,5 C 81 % 1020,9 hPa 0,0 mm 1,5 km/h (1 Bft) O-NO 72 0 min 0,076 mm 1,3 UV-I 193 W/m 3,4 C 3,2 km/h (1 Bft)
10.10.2016 15:02 6,4 C 6,4 C 82 % 1020,9 hPa 0,0 mm 0,5 km/h (0 Bft) O-NO 61 0 min 0,000 mm 1,3 UV-I 195 W/m 3,6 C 3,2 km/h (1 Bft)
10.10.2016 15:03 6,4 C 6,4 C 82 % 1020,9 hPa 0,0 mm 5,3 km/h (1 Bft) O-NO 78 0 min 0,000 mm 1,3 UV-I 195 W/m 3,6 C 8,0 km/h (2 Bft)
10.10.2016 15:04 6,4 C 6,4 C 81 % 1020,9 hPa 0,0 mm 6,4 km/h (2 Bft) O-NO 74 0 min 0,000 mm 1,3 UV-I 193 W/m 3,4 C 8,0 km/h (2 Bft)
10.10.2016 15:05 6,4 C 6,4 C 81 % 1020,8 hPa 0,0 mm 1,2 km/h (1 Bft) O-NO 74 0 min 0,000 mm 1,3 UV-I 192 W/m 3,4 C 4,8 km/h (1 Bft)
10.10.2016 15:06 6,4 C 6,4 C 82 % 1020,8 hPa 0,0 mm 1,0 km/h (0 Bft) O-NO 58 0 min 0,000 mm 1,3 UV-I 188 W/m 3,6 C 3,2 km/h (1 Bft)
10.10.2016 15:07 6,5 C 6,5 C 82 % 1020,8 hPa 0,0 mm 3,2 km/h (1 Bft) NO 49 0 min 0,000 mm 1,3 UV-I 185 W/m 3,7 C 4,8 km/h (1 Bft)
10.10.2016 15:08 6,6 C 6,6 C 82 % 1020,9 hPa 0,0 mm 5,6 km/h (1 Bft) O 90 0 min 0,000 mm 1,3 UV-I 179 W/m 3,8 C 11,3 km/h (2 Bft)
10.10.2016 15:09 6,7 C 6,7 C 82 % 1020,9 hPa 0,0 mm 8,3 km/h (2 Bft) O 93 0 min 0,000 mm 1,3 UV-I 169 W/m 3,8 C 12,9 km/h (3 Bft)
10.10.2016 15:10 6,6 C 6,7 C 81 % 1020,9 hPa 0,0 mm 3,6 km/h (1 Bft) O-NO 65 0 min 0,000 mm 1,2 UV-I 165 W/m 3,6 C 8,0 km/h (2 Bft)
10.10.2016 15:11 6,6 C 6,7 C 82 % 1020,9 hPa 0,0 mm 4,2 km/h (1 Bft) O-NO 67 0 min 0,000 mm 1,1 UV-I 156 W/m 3,8 C 8,0 km/h (2 Bft)
10.10.2016 15:12 6,6 C 6,6 C 81 % 1020,9 hPa 0,0 mm 6,6 km/h (2 Bft) O-NO 60 0 min 0,000 mm 1,0 UV-I 146 W/m 3,6 C 9,7 km/h (2 Bft)
10.10.2016 15:13 6,6 C 6,6 C 82 % 1020,9 hPa 0,0 mm 3,6 km/h (1 Bft) O-NO 76 0 min 0,000 mm 1,0 UV-I 134 W/m 3,8 C 8,0 km/h (2 Bft)
10.10.2016 15:14 6,6 C 6,6 C 81 % 1020,9 hPa 0,0 mm 4,6 km/h (1 Bft) O-NO 62 0 min 0,000 mm 1,0 UV-I 130 W/m 3,6 C 8,0 km/h (2 Bft)
10.10.2016 15:15 6,5 C 6,6 C 81 % 1020,9 hPa 0,0 mm 5,9 km/h (2 Bft) O 89 0 min 0,000 mm 1,0 UV-I 130 W/m 3,5 C 9,7 km/h (2 Bft)
10.10.2016 15:16 6,5 C 6,6 C 81 % 1020,9 hPa 0,0 mm 6,4 km/h (2 Bft) O-NO 58 0 min 0,000 mm 1,0 UV-I 132 W/m 3,5 C 12,9 km/h (3 Bft)
10.10.2016 15:17 6,4 C 6,5 C 81 % 1020,9 hPa 0,0 mm 4,7 km/h (1 Bft) N-NO 29 0 min 0,000 mm 1,0 UV-I 134 W/m 3,4 C 6,4 km/h (2 Bft)
10.10.2016 15:18 6,4 C 6,4 C 81 % 1020,9 hPa 0,0 mm 5,8 km/h (2 Bft) O-NO 65 0 min 0,000 mm 1,0 UV-I 135 W/m 3,4 C 9,7 km/h (2 Bft)
10.10.2016 15:19 6,4 C 6,4 C 82 % 1020,9 hPa 0,0 mm 8,9 km/h (2 Bft) O-SO 105 0 min 0,000 mm 1,0 UV-I 137 W/m 3,6 C 12,9 km/h (3 Bft)
10.10.2016 15:20 6,4 C 6,4 C 82 % 1020,8 hPa 0,0 mm 5,6 km/h (1 Bft) O-NO 71 0 min 0,000 mm 1,0 UV-I 139 W/m 3,6 C 9,7 km/h (2 Bft)
10.10.2016 15:21 6,4 C 6,4 C 82 % 1020,8 hPa 0,0 mm 4,9 km/h (1 Bft) O-SO 105 0 min 0,000 mm 1,0 UV-I 141 W/m 3,6 C 11,3 km/h (2 Bft)
10.10.2016 15:22 6,4 C 6,4 C 83 % 1020,8 hPa 0,0 mm 3,4 km/h (1 Bft) O 86 0 min 0,000 mm 1,0 UV-I 142 W/m 3,7 C 6,4 km/h (2 Bft)
10.10.2016 15:23 6,4 C 6,4 C 83 % 1020,8 hPa 0,0 mm 6,6 km/h (2 Bft) NO 53 0 min 0,000 mm 1,0 UV-I 142 W/m 3,7 C 8,0 km/h (2 Bft)
10.10.2016 15:24 6,4 C 6,4 C 83 % 1020,8 hPa 0,0 mm 4,2 km/h (1 Bft) O-NO 78 0 min 0,000 mm 1,0 UV-I 144 W/m 3,7 C 8,0 km/h (2 Bft)
10.10.2016 15:25 6,4 C 6,4 C 83 % 1020,8 hPa 0,0 mm 4,0 km/h (1 Bft) N-NO 15 0 min 0,000 mm 1,0 UV-I 141 W/m 3,7 C 6,4 km/h (2 Bft)
10.10.2016 15:26 6,4 C 6,4 C 83 % 1020,9 hPa 0,0 mm 4,7 km/h (1 Bft) N-NO 22 0 min 0,000 mm 0,9 UV-I 135 W/m 3,7 C 6,4 km/h (2 Bft)
10.10.2016 15:27 6,4 C 6,4 C 82 % 1020,8 hPa 0,0 mm 8,6 km/h (2 Bft) O-NO 69 0 min 0,000 mm 0,9 UV-I 125 W/m 3,6 C 14,5 km/h (3 Bft)
10.10.2016 15:28 6,4 C 6,4 C 82 % 1020,8 hPa 0,0 mm 7,2 km/h (2 Bft) O-NO 78 0 min 0,000 mm 0,8 UV-I 125 W/m 3,6 C 14,5 km/h (3 Bft)
10.10.2016 15:29 6,4 C 6,4 C 83 % 1020,8 hPa 0,0 mm 6,9 km/h (2 Bft) O-NO 71 0 min 0,000 mm 0,8 UV-I 123 W/m 3,7 C 11,3 km/h (2 Bft)
10.10.2016 15:30 6,3 C 6,4 C 83 % 1020,8 hPa 0,0 mm 5,0 km/h (1 Bft) O-NO 62 0 min 0,000 mm 0,9 UV-I 125 W/m 3,6 C 6,4 km/h (2 Bft)
10.10.2016 15:31 6,3 C 6,3 C 82 % 1020,8 hPa 0,0 mm 6,2 km/h (2 Bft) NO 55 0 min 0,000 mm 0,9 UV-I 127 W/m 3,5 C 9,7 km/h (2 Bft)
10.10.2016 15:32 6,3 C 6,3 C 82 % 1020,8 hPa 0,0 mm 6,9 km/h (2 Bft) O-NO 74 0 min 0,000 mm 0,9 UV-I 128 W/m 3,5 C 12,9 km/h (3 Bft)
10.10.2016 15:33 6,2 C 6,3 C 82 % 1020,8 hPa 0,0 mm 5,6 km/h (1 Bft) NO 35 0 min 0,000 mm 0,9 UV-I 128 W/m 3,4 C 11,3 km/h (2 Bft)
10.10.2016 15:34 6,2 C 6,2 C 83 % 1020,8 hPa 0,0 mm 3,7 km/h (1 Bft) O-NO 77 0 min 0,000 mm 0,9 UV-I 128 W/m 3,5 C 6,4 km/h (2 Bft)
10.10.2016 15:35 6,2 C 6,3 C 83 % 1020,8 hPa 0,0 mm 3,2 km/h (1 Bft) NO 38 0 min 0,000 mm 0,8 UV-I 127 W/m 3,5 C 4,8 km/h (1 Bft)
10.10.2016 15:36 6,3 C 6,3 C 83 % 1020,8 hPa 0,0 mm 5,1 km/h (1 Bft) NO 38 0 min 0,000 mm 0,8 UV-I 125 W/m 3,6 C 6,4 km/h (2 Bft)
10.10.2016 15:37 6,3 C 6,3 C 83 % 1020,8 hPa 0,0 mm 3,7 km/h (1 Bft) NO 43 0 min 0,000 mm 0,8 UV-I 123 W/m 3,6 C 6,4 km/h (2 Bft)
10.10.2016 15:38 6,3 C 6,3 C 82 % 1020,8 hPa 0,0 mm 5,0 km/h (1 Bft) NO 34 0 min 0,000 mm 0,8 UV-I 121 W/m 3,5 C 8,0 km/h (2 Bft)
10.10.2016 15:39 6,3 C 6,3 C 82 % 1020,8 hPa 0,0 mm 6,5 km/h (2 Bft) O 86 0 min 0,000 mm 0,8 UV-I 120 W/m 3,5 C 12,9 km/h (3 Bft)
10.10.2016 15:40 6,2 C 6,3 C 82 % 1020,8 hPa 0,0 mm 2,8 km/h (1 Bft) O 84 0 min 0,000 mm 0,8 UV-I 120 W/m 3,4 C 4,8 km/h (1 Bft)
10.10.2016 15:41 6,2 C 6,3 C 82 % 1020,8 hPa 0,0 mm 3,9 km/h (1 Bft) O-NO 58 0 min 0,000 mm 0,8 UV-I 118 W/m 3,4 C 6,4 km/h (2 Bft)
10.10.2016 15:42 6,2 C 6,3 C 83 % 1020,8 hPa 0,0 mm 3,5 km/h (1 Bft) O-NO 68 0 min 0,000 mm 0,8 UV-I 118 W/m 3,5 C 4,8 km/h (1 Bft)
10.10.2016 15:43 6,2 C 6,2 C 82 % 1020,8 hPa 0,0 mm 7,9 km/h (2 Bft) O-NO 77 0 min 0,000 mm 0,8 UV-I 116 W/m 3,4 C 12,9 km/h (3 Bft)
10.10.2016 15:44 6,2 C 6,3 C 82 % 1020,8 hPa 0,0 mm 4,2 km/h (1 Bft) O 82 0 min 0,000 mm 0,8 UV-I 118 W/m 3,4 C 8,0 km/h (2 Bft)
10.10.2016 15:45 6,2 C 6,2 C 82 % 1020,8 hPa 0,0 mm 2,7 km/h (1 Bft) O-NO 78 0 min 0,000 mm 0,8 UV-I 120 W/m 3,4 C 4,8 km/h (1 Bft)
10.10.2016 15:46 6,2 C 6,2 C 83 % 1020,8 hPa 0,0 mm 0,9 km/h (0 Bft) O-NO 78 0 min 0,000 mm 0,8 UV-I 120 W/m 3,5 C 3,2 km/h (1 Bft)
10.10.2016 15:47 6,2 C 6,2 C 84 % 1020,8 hPa 0,0 mm 2,1 km/h (1 Bft) O 88 0 min 0,000 mm 0,8 UV-I 121 W/m 3,7 C 4,8 km/h (1 Bft)
10.10.2016 15:48 6,2 C 6,2 C 82 % 1020,8 hPa 0,0 mm 2,5 km/h (1 Bft) NO 36 0 min 0,000 mm 0,8 UV-I 123 W/m 3,4 C 4,8 km/h (1 Bft)
10.10.2016 15:49 6,2 C 6,2 C 83 % 1020,8 hPa 0,0 mm 4,9 km/h (1 Bft) O-NO 59 0 min 0,000 mm 0,8 UV-I 123 W/m 3,5 C 8,0 km/h (2 Bft)
10.10.2016 15:50 6,2 C 6,3 C 83 % 1020,8 hPa 0,0 mm 1,5 km/h (1 Bft) O-NO 59 0 min 0,000 mm 0,8 UV-I 127 W/m 3,5 C 3,2 km/h (1 Bft)
10.10.2016 15:51 6,2 C 6,2 C 82 % 1020,8 hPa 0,0 mm 2,7 km/h (1 Bft) NO 46 0 min 0,000 mm 0,8 UV-I 128 W/m 3,4 C 4,8 km/h (1 Bft)
10.10.2016 15:52 6,2 C 6,3 C 83 % 1020,7 hPa 0,0 mm 3,6 km/h (1 Bft) NO 47 0 min 0,000 mm 0,8 UV-I 130 W/m 3,5 C 6,4 km/h (2 Bft)
10.10.2016 15:53 6,2 C 6,3 C 83 % 1020,8 hPa 0,0 mm 2,7 km/h (1 Bft) NO 47 0 min 0,000 mm 0,8 UV-I 130 W/m 3,5 C 4,8 km/h (1 Bft)
10.10.2016 15:54 6,2 C 6,3 C 82 % 1020,7 hPa 0,0 mm 3,6 km/h (1 Bft) O-SO 103 0 min 0,000 mm 0,8 UV-I 132 W/m 3,4 C 9,7 km/h (2 Bft)
10.10.2016 15:55 6,3 C 6,3 C 82 % 1020,8 hPa 0,0 mm 5,3 km/h (1 Bft) O 94 0 min 0,000 mm 0,8 UV-I 132 W/m 3,5 C 9,7 km/h (2 Bft)
10.10.2016 15:56 6,2 C 6,3 C 81 % 1020,8 hPa 0,0 mm 3,5 km/h (1 Bft) O-SO 123 0 min 0,000 mm 0,8 UV-I 130 W/m 3,2 C 4,8 km/h (1 Bft)
10.10.2016 15:57 6,2 C 6,2 C 82 % 1020,8 hPa 0,0 mm 3,9 km/h (1 Bft) O 80 0 min 0,000 mm 0,8 UV-I 130 W/m 3,4 C 6,4 km/h (2 Bft)
10.10.2016 15:58 6,2 C 6,2 C 82 % 1020,8 hPa 0,0 mm 4,0 km/h (1 Bft) O-NO 70 0 min 0,000 mm 0,8 UV-I 130 W/m 3,4 C 6,4 km/h (2 Bft)
10.10.2016 15:59 6,2 C 6,2 C 82 % 1020,7 hPa 0,0 mm 3,6 km/h (1 Bft) O-NO 67 0 min 0,000 mm 0,8 UV-I 130 W/m 3,4 C 4,8 km/h (1 Bft)
10.10.2016 16:00 6,2 C 6,2 C 82 % 1020,7 hPa 0,0 mm 1,3 km/h (1 Bft) O-NO 67 0 min 0,000 mm 0,8 UV-I 130 W/m 3,4 C 3,2 km/h (1 Bft)
10.10.2016 16:01 6,2 C 6,2 C 83 % 1020,7 hPa 0,0 mm 1,0 km/h (0 Bft) O-NO 65 0 min 0,076 mm 0,8 UV-I 130 W/m 3,5 C 1,6 km/h (1 Bft)
10.10.2016 16:02 6,3 C 6,3 C 82 % 1020,7 hPa 0,0 mm 1,3 km/h (1 Bft) NO 55 0 min 0,000 mm 0,8 UV-I 127 W/m 3,5 C 3,2 km/h (1 Bft)
10.10.2016 16:03 6,3 C 6,3 C 82 % 1020,7 hPa 0,0 mm 2,2 km/h (1 Bft) O 83 0 min 0,000 mm 0,8 UV-I 123 W/m 3,5 C 4,8 km/h (1 Bft)
10.10.2016 16:04 6,3 C 6,3 C 82 % 1020,7 hPa 0,0 mm 4,2 km/h (1 Bft) O-NO 65 0 min 0,000 mm 0,8 UV-I 121 W/m 3,5 C 6,4 km/h (2 Bft)
10.10.2016 16:05 6,3 C 6,3 C 82 % 1020,8 hPa 0,0 mm 3,7 km/h (1 Bft) O-NO 69 0 min 0,000 mm 0,8 UV-I 120 W/m 3,5 C 6,4 km/h (2 Bft)
10.10.2016 16:06 6,3 C 6,3 C 82 % 1020,7 hPa 0,0 mm 4,7 km/h (1 Bft) O-NO 66 0 min 0,000 mm 0,8 UV-I 118 W/m 3,5 C 6,4 km/h (2 Bft)
10.10.2016 16:07 6,3 C 6,3 C 82 % 1020,7 hPa 0,0 mm 3,3 km/h (1 Bft) O 80 0 min 0,000 mm 0,8 UV-I 116 W/m 3,5 C 4,8 km/h (1 Bft)
10.10.2016 16:08 6,3 C 6,3 C 82 % 1020,6 hPa 0,0 mm 3,3 km/h (1 Bft) O-NO 63 0 min 0,000 mm 0,7 UV-I 113 W/m 3,5 C 4,8 km/h (1 Bft)
10.10.2016 16:09 6,3 C 6,3 C 82 % 1020,7 hPa 0,0 mm 2,5 km/h (1 Bft) O-NO 59 0 min 0,000 mm 0,7 UV-I 111 W/m 3,5 C 4,8 km/h (1 Bft)
10.10.2016 16:10 6,3 C 6,3 C 81 % 1020,6 hPa 0,0 mm 3,9 km/h (1 Bft) O-NO 73 0 min 0,000 mm 0,7 UV-I 109 W/m 3,3 C 4,8 km/h (1 Bft)
10.10.2016 16:11 6,2 C 6,3 C 81 % 1020,6 hPa 0,0 mm 2,8 km/h (1 Bft) O-NO 58 0 min 0,000 mm 0,7 UV-I 107 W/m 3,2 C 4,8 km/h (1 Bft)
10.10.2016 16:12 6,2 C 6,2 C 82 % 1020,6 hPa 0,0 mm 5,6 km/h (1 Bft) N-NO 24 0 min 0,000 mm 0,7 UV-I 105 W/m 3,4 C 8,0 km/h (2 Bft)
10.10.2016 16:13 6,2 C 6,3 C 81 % 1020,6 hPa 0,0 mm 4,5 km/h (1 Bft) NO 34 0 min 0,000 mm 0,7 UV-I 102 W/m 3,2 C 6,4 km/h (2 Bft)
10.10.2016 16:14 6,2 C 6,2 C 81 % 1020,6 hPa 0,0 mm 6,4 km/h (2 Bft) NO 51 0 min 0,000 mm 0,6 UV-I 97 W/m 3,2 C 8,0 km/h (2 Bft)
10.10.2016 16:15 6,2 C 6,3 C 81 % 1020,6 hPa 0,0 mm 5,4 km/h (1 Bft) NO 42 0 min 0,000 mm 0,6 UV-I 95 W/m 3,2 C 6,4 km/h (2 Bft)
10.10.2016 16:16 6,2 C 6,2 C 81 % 1020,6 hPa 0,0 mm 3,2 km/h (1 Bft) NO 42 0 min 0,000 mm 0,6 UV-I 93 W/m 3,2 C 4,8 km/h (1 Bft)
10.10.2016 16:17 6,2 C 6,2 C 81 % 1020,6 hPa 0,0 mm 1,6 km/h (1 Bft) NO 39 0 min 0,000 mm 0,6 UV-I 91 W/m 3,2 C 3,2 km/h (1 Bft)
10.10.2016 16:18 6,2 C 6,2 C 81 % 1020,5 hPa 0,0 mm 1,5 km/h (1 Bft) NO 39 0 min 0,000 mm 0,6 UV-I 90 W/m 3,2 C 3,2 km/h (1 Bft)
10.10.2016 16:19 6,2 C 6,2 C 82 % 1020,5 hPa 0,0 mm 2,5 km/h (1 Bft) NO 48 0 min 0,000 mm 0,6 UV-I 86 W/m 3,4 C 3,2 km/h (1 Bft)
10.10.2016 16:20 6,2 C 6,2 C 82 % 1020,5 hPa 0,0 mm 3,0 km/h (1 Bft) N-NO 18 0 min 0,000 mm 0,6 UV-I 86 W/m 3,4 C 6,4 km/h (2 Bft)
10.10.2016 16:21 6,2 C 6,2 C 82 % 1020,5 hPa 0,0 mm 4,6 km/h (1 Bft) NO 41 0 min 0,000 mm 0,5 UV-I 84 W/m 3,4 C 6,4 km/h (2 Bft)
10.10.2016 16:22 6,2 C 6,2 C 82 % 1020,5 hPa 0,0 mm 3,0 km/h (1 Bft) NO 40 0 min 0,000 mm 0,5 UV-I 83 W/m 3,4 C 4,8 km/h (1 Bft)
10.10.2016 16:23 6,2 C 6,2 C 82 % 1020,5 hPa 0,0 mm 1,9 km/h (1 Bft) NO 41 0 min 0,000 mm 0,5 UV-I 81 W/m 3,4 C 3,2 km/h (1 Bft)
10.10.2016 16:24 6,2 C 6,2 C 82 % 1020,5 hPa 0,0 mm 1,2 km/h (1 Bft) NO 47 0 min 0,000 mm 0,5 UV-I 79 W/m 3,4 C 3,2 km/h (1 Bft)
10.10.2016 16:25 6,2 C 6,2 C 82 % 1020,5 hPa 0,0 mm 3,5 km/h (1 Bft) O-NO 61 0 min 0,000 mm 0,5 UV-I 77 W/m 3,4 C 4,8 km/h (1 Bft)
10.10.2016 16:26 6,2 C 6,2 C 82 % 1020,5 hPa 0,0 mm 6,0 km/h (2 Bft) O 96 0 min 0,000 mm 0,5 UV-I 76 W/m 3,4 C 8,0 km/h (2 Bft)
10.10.2016 16:27 6,2 C 6,2 C 82 % 1020,5 hPa 0,0 mm 4,0 km/h (1 Bft) N-NO 19 0 min 0,000 mm 0,5 UV-I 74 W/m 3,4 C 6,4 km/h (2 Bft)
10.10.2016 16:28 6,2 C 6,2 C 83 % 1020,5 hPa 0,0 mm 4,0 km/h (1 Bft) NO 48 0 min 0,000 mm 0,5 UV-I 74 W/m 3,5 C 6,4 km/h (2 Bft)
10.10.2016 16:29 6,2 C 6,2 C 82 % 1020,5 hPa 0,0 mm 2,5 km/h (1 Bft) NO 51 0 min 0,000 mm 0,5 UV-I 72 W/m 3,4 C 3,2 km/h (1 Bft)
10.10.2016 16:30 6,2 C 6,2 C 82 % 1020,5 hPa 0,0 mm 4,2 km/h (1 Bft) NO 49 0 min 0,000 mm 0,5 UV-I 72 W/m 3,4 C 8,0 km/h (2 Bft)
10.10.2016 16:31 6,2 C 6,2 C 83 % 1020,5 hPa 0,0 mm 6,2 km/h (2 Bft) O-NO 62 0 min 0,000 mm 0,5 UV-I 70 W/m 3,5 C 8,0 km/h (2 Bft)
10.10.2016 16:32 6,2 C 6,2 C 82 % 1020,5 hPa 0,0 mm 6,8 km/h (2 Bft) NO 38 0 min 0,000 mm 0,5 UV-I 72 W/m 3,4 C 8,0 km/h (2 Bft)
10.10.2016 16:33 6,2 C 6,2 C 82 % 1020,5 hPa 0,0 mm 3,2 km/h (1 Bft) NO 39 0 min 0,000 mm 0,5 UV-I 72 W/m 3,4 C 8,0 km/h (2 Bft)
10.10.2016 16:34 6,1 C 6,2 C 82 % 1020,5 hPa 0,0 mm 3,0 km/h (1 Bft) N-NO 17 0 min 0,000 mm 0,5 UV-I 72 W/m 3,3 C 6,4 km/h (2 Bft)
10.10.2016 16:35 6,1 C 6,2 C 83 % 1020,5 hPa 0,0 mm 6,6 km/h (2 Bft) O-NO 65 0 min 0,000 mm 0,5 UV-I 72 W/m 3,4 C 9,7 km/h (2 Bft)
10.10.2016 16:36 6,1 C 6,2 C 82 % 1020,5 hPa 0,0 mm 4,3 km/h (1 Bft) O-NO 57 0 min 0,000 mm 0,5 UV-I 72 W/m 3,3 C 4,8 km/h (1 Bft)
10.10.2016 16:37 6,1 C 6,1 C 82 % 1020,5 hPa 0,0 mm 2,7 km/h (1 Bft) NO 51 0 min 0,000 mm 0,5 UV-I 72 W/m 3,3 C 4,8 km/h (1 Bft)
10.10.2016 16:38 6,1 C 6,1 C 82 % 1020,4 hPa 0,0 mm 3,0 km/h (1 Bft) O-NO 70 0 min 0,000 mm 0,5 UV-I 72 W/m 3,3 C 4,8 km/h (1 Bft)
10.10.2016 16:39 6,1 C 6,1 C 83 % 1020,5 hPa 0,0 mm 4,0 km/h (1 Bft) O-NO 61 0 min 0,000 mm 0,0 UV-I 70 W/m 3,4 C 4,8 km/h (1 Bft)
10.10.2016 16:40 6,1 C 6,1 C 83 % 1020,4 hPa 0,0 mm 3,5 km/h (1 Bft) NO 56 0 min 0,000 mm 0,0 UV-I 65 W/m 3,4 C 4,8 km/h (1 Bft)
10.10.2016 16:41 6,1 C 6,1 C 83 % 1020,4 hPa 0,0 mm 3,3 km/h (1 Bft) O-NO 57 0 min 0,000 mm 0,0 UV-I 62 W/m 3,4 C 4,8 km/h (1 Bft)
10.10.2016 16:42 6,1 C 6,1 C 84 % 1020,4 hPa 0,0 mm 2,9 km/h (1 Bft) O-NO 65 0 min 0,000 mm 0,0 UV-I 60 W/m 3,6 C 4,8 km/h (1 Bft)
10.10.2016 16:43 6,1 C 6,1 C 84 % 1020,4 hPa 0,0 mm 6,0 km/h (2 Bft) N-NO 21 0 min 0,000 mm 0,0 UV-I 58 W/m 3,6 C 11,3 km/h (2 Bft)
10.10.2016 16:44 6,1 C 6,1 C 83 % 1020,3 hPa 0,0 mm 5,3 km/h (1 Bft) N-NO 24 0 min 0,000 mm 0,0 UV-I 58 W/m 3,4 C 8,0 km/h (2 Bft)
10.10.2016 16:45 6,1 C 6,1 C 84 % 1020,4 hPa 0,0 mm 4,6 km/h (1 Bft) N-NO 13 0 min 0,000 mm 0,0 UV-I 60 W/m 3,6 C 6,4 km/h (2 Bft)
10.10.2016 16:46 6,1 C 6,1 C 83 % 1020,4 hPa 0,0 mm 4,5 km/h (1 Bft) O-NO 57 0 min 0,000 mm 0,0 UV-I 60 W/m 3,4 C 6,4 km/h (2 Bft)
10.10.2016 16:47 6,1 C 6,1 C 83 % 1020,4 hPa 0,0 mm 5,1 km/h (1 Bft) O-NO 59 0 min 0,000 mm 0,0 UV-I 58 W/m 3,4 C 6,4 km/h (2 Bft)
10.10.2016 16:48 6,1 C 6,1 C 84 % 1020,3 hPa 0,0 mm 4,1 km/h (1 Bft) NO 38 0 min 0,000 mm 0,0 UV-I 58 W/m 3,6 C 6,4 km/h (2 Bft)
10.10.2016 16:49 6,1 C 6,1 C 84 % 1020,3 hPa 0,0 mm 1,9 km/h (1 Bft) N-NO 33 0 min 0,000 mm 0,0 UV-I 56 W/m 3,6 C 4,8 km/h (1 Bft)
10.10.2016 16:50 6,1 C 6,1 C 84 % 1020,3 hPa 0,0 mm 2,6 km/h (1 Bft) N-NO 33 0 min 0,000 mm 0,0 UV-I 54 W/m 3,6 C 4,8 km/h (1 Bft)
10.10.2016 16:51 6,1 C 6,1 C 84 % 1020,3 hPa 0,0 mm 1,9 km/h (1 Bft) N-NO 33 0 min 0,000 mm 0,0 UV-I 53 W/m 3,6 C 3,2 km/h (1 Bft)
10.10.2016 16:52 6,1 C 6,1 C 84 % 1020,3 hPa 0,0 mm 3,9 km/h (1 Bft) N 350 0 min 0,000 mm 0,0 UV-I 51 W/m 3,6 C 8,0 km/h (2 Bft)
10.10.2016 16:53 6,1 C 6,2 C 84 % 1020,3 hPa 0,0 mm 3,5 km/h (1 Bft) NW 321 0 min 0,000 mm 0,0 UV-I 49 W/m 3,6 C 4,8 km/h (1 Bft)
10.10.2016 16:54 6,1 C 6,1 C 84 % 1020,3 hPa 0,0 mm 1,6 km/h (1 Bft) N 355 0 min 0,000 mm 0,0 UV-I 46 W/m 3,6 C 3,2 km/h (1 Bft)
10.10.2016 16:55 6,1 C 6,1 C 84 % 1020,3 hPa 0,0 mm 1,3 km/h (1 Bft) N 355 0 min 0,000 mm 0,0 UV-I 44 W/m 3,6 C 3,2 km/h (1 Bft)
10.10.2016 16:56 6,1 C 6,1 C 84 % 1020,3 hPa 0,0 mm 4,3 km/h (1 Bft) NO 38 0 min 0,000 mm 0,0 UV-I 44 W/m 3,6 C 6,4 km/h (2 Bft)
10.10.2016 16:57 6,1 C 6,1 C 84 % 1020,3 hPa 0,0 mm 3,2 km/h (1 Bft) N-NO 31 0 min 0,000 mm 0,0 UV-I 42 W/m 3,6 C 6,4 km/h (2 Bft)
10.10.2016 16:58 6,1 C 6,1 C 84 % 1020,3 hPa 0,0 mm 3,5 km/h (1 Bft) NO 46 0 min 0,000 mm 0,0 UV-I 42 W/m 3,6 C 4,8 km/h (1 Bft)
10.10.2016 16:59 6,1 C 6,1 C 84 % 1020,3 hPa 0,0 mm 2,0 km/h (1 Bft) NO 37 0 min 0,000 mm 0,0 UV-I 42 W/m 3,6 C 3,2 km/h (1 Bft)
10.10.2016 17:00 6,1 C 6,1 C 84 % 1020,3 hPa 0,0 mm 3,3 km/h (1 Bft) NO 43 0 min 0,000 mm 0,0 UV-I 40 W/m 3,6 C 4,8 km/h (1 Bft)
10.10.2016 17:01 6,1 C 6,1 C 84 % 1020,3 hPa 0,0 mm 3,2 km/h (1 Bft) O-NO 74 0 min 0,051 mm 0,0 UV-I 42 W/m 3,6 C 6,4 km/h (2 Bft)
10.10.2016 17:02 6,1 C 6,1 C 84 % 1020,3 hPa 0,0 mm 4,6 km/h (1 Bft) O-NO 59 0 min 0,000 mm 0,0 UV-I 44 W/m 3,6 C 6,4 km/h (2 Bft)
10.10.2016 17:03 6,1 C 6,1 C 84 % 1020,3 hPa 0,0 mm 2,8 km/h (1 Bft) NO 55 0 min 0,000 mm 0,0 UV-I 44 W/m 3,6 C 4,8 km/h (1 Bft)
10.10.2016 17:04 6,0 C 6,1 C 84 % 1020,3 hPa 0,0 mm 3,4 km/h (1 Bft) NO 37 0 min 0,000 mm 0,0 UV-I 44 W/m 3,5 C 6,4 km/h (2 Bft)
10.10.2016 17:05 6,0 C 6,1 C 84 % 1020,3 hPa 0,0 mm 2,4 km/h (1 Bft) NO 37 0 min 0,000 mm 0,0 UV-I 44 W/m 3,5 C 4,8 km/h (1 Bft)
10.10.2016 17:06 6,0 C 6,1 C 84 % 1020,3 hPa 0,0 mm 4,9 km/h (1 Bft) NO 54 0 min 0,000 mm 0,0 UV-I 44 W/m 3,5 C 6,4 km/h (2 Bft)
10.10.2016 17:07 6,1 C 6,1 C 85 % 1020,3 hPa 0,0 mm 3,1 km/h (1 Bft) NO 53 0 min 0,000 mm 0,0 UV-I 42 W/m 3,8 C 4,8 km/h (1 Bft)
10.10.2016 17:08 6,0 C 6,1 C 84 % 1020,3 hPa 0,0 mm 3,2 km/h (1 Bft) NO 42 0 min 0,000 mm 0,0 UV-I 42 W/m 3,5 C 4,8 km/h (1 Bft)
10.10.2016 17:09 6,0 C 6,0 C 84 % 1020,3 hPa 0,0 mm 3,1 km/h (1 Bft) NO 48 0 min 0,000 mm 0,0 UV-I 40 W/m 3,5 C 4,8 km/h (1 Bft)
10.10.2016 17:10 6,0 C 6,0 C 84 % 1020,3 hPa 0,0 mm 4,4 km/h (1 Bft) NO 42 0 min 0,000 mm 0,0 UV-I 40 W/m 3,5 C 6,4 km/h (2 Bft)
10.10.2016 17:11 5,9 C 6,0 C 84 % 1020,3 hPa 0,0 mm 4,6 km/h (1 Bft) N-NO 28 0 min 0,000 mm 0,0 UV-I 39 W/m 3,4 C 6,4 km/h (2 Bft)
10.10.2016 17:12 5,9 C 6,0 C 84 % 1020,2 hPa 0,0 mm 3,2 km/h (1 Bft) NO 36 0 min 0,000 mm 0,0 UV-I 37 W/m 3,4 C 6,4 km/h (2 Bft)
10.10.2016 17:13 5,9 C 5,9 C 84 % 1020,3 hPa 0,0 mm 3,4 km/h (1 Bft) NO 40 0 min 0,000 mm 0,0 UV-I 35 W/m 3,4 C 4,8 km/h (1 Bft)
10.10.2016 17:14 5,9 C 6,0 C 84 % 1020,3 hPa 0,0 mm 3,0 km/h (1 Bft) NO 40 0 min 0,000 mm 0,0 UV-I 35 W/m 3,4 C 4,8 km/h (1 Bft)
10.10.2016 17:15 5,9 C 5,9 C 84 % 1020,3 hPa 0,0 mm 1,3 km/h (1 Bft) NO 40 0 min 0,000 mm 0,0 UV-I 35 W/m 3,4 C 4,8 km/h (1 Bft)
10.10.2016 17:16 5,9 C 6,0 C 85 % 1020,4 hPa 0,0 mm 3,5 km/h (1 Bft) O-NO 60 0 min 0,000 mm 0,0 UV-I 35 W/m 3,6 C 4,8 km/h (1 Bft)
10.10.2016 17:17 5,9 C 5,9 C 85 % 1020,3 hPa 0,0 mm 2,0 km/h (1 Bft) O-NO 58 0 min 0,000 mm 0,0 UV-I 35 W/m 3,6 C 4,8 km/h (1 Bft)
10.10.2016 17:18 5,9 C 5,9 C 85 % 1020,3 hPa 0,0 mm 3,8 km/h (1 Bft) NO 38 0 min 0,000 mm 0,0 UV-I 33 W/m 3,6 C 4,8 km/h (1 Bft)
10.10.2016 17:19 5,9 C 5,9 C 85 % 1020,3 hPa 0,0 mm 3,7 km/h (1 Bft) NO 49 0 min 0,000 mm 0,0 UV-I 33 W/m 3,6 C 4,8 km/h (1 Bft)
10.10.2016 17:20 5,9 C 5,9 C 84 % 1020,3 hPa 0,0 mm 4,0 km/h (1 Bft) NO 55 0 min 0,000 mm 0,0 UV-I 33 W/m 3,4 C 6,4 km/h (2 Bft)
10.10.2016 17:21 5,9 C 5,9 C 85 % 1020,3 hPa 0,0 mm 4,0 km/h (1 Bft) NO 53 0 min 0,000 mm 0,0 UV-I 33 W/m 3,6 C 4,8 km/h (1 Bft)
10.10.2016 17:22 5,9 C 5,9 C 85 % 1020,3 hPa 0,0 mm 2,2 km/h (1 Bft) NO 53 0 min 0,000 mm 0,0 UV-I 33 W/m 3,6 C 3,2 km/h (1 Bft)
10.10.2016 17:23 5,9 C 5,9 C 85 % 1020,3 hPa 0,0 mm 1,5 km/h (1 Bft) NO 53 0 min 0,000 mm 0,0 UV-I 33 W/m 3,6 C 4,8 km/h (1 Bft)
10.10.2016 17:24 5,9 C 5,9 C 85 % 1020,3 hPa 0,0 mm 3,7 km/h (1 Bft) NO 49 0 min 0,000 mm 0,0 UV-I 32 W/m 3,6 C 4,8 km/h (1 Bft)
10.10.2016 17:25 5,9 C 5,9 C 85 % 1020,3 hPa 0,0 mm 3,2 km/h (1 Bft) O-NO 58 0 min 0,000 mm 0,0 UV-I 32 W/m 3,6 C 4,8 km/h (1 Bft)
10.10.2016 17:26 5,9 C 5,9 C 85 % 1020,3 hPa 0,0 mm 3,6 km/h (1 Bft) O-NO 61 0 min 0,000 mm 0,0 UV-I 32 W/m 3,6 C 4,8 km/h (1 Bft)
10.10.2016 17:27 5,9 C 5,9 C 85 % 1020,3 hPa 0,0 mm 2,5 km/h (1 Bft) O-NO 61 0 min 0,000 mm 0,0 UV-I 32 W/m 3,6 C 4,8 km/h (1 Bft)
10.10.2016 17:28 5,9 C 5,9 C 85 % 1020,3 hPa 0,0 mm 0,9 km/h (0 Bft) O-NO 61 0 min 0,000 mm 0,0 UV-I 32 W/m 3,6 C 1,6 km/h (1 Bft)
10.10.2016 17:29 5,9 C 5,9 C 85 % 1020,3 hPa 0,0 mm 1,1 km/h (1 Bft) O-NO 61 0 min 0,000 mm 0,0 UV-I 32 W/m 3,6 C 3,2 km/h (1 Bft)
10.10.2016 17:30 5,9 C 5,9 C 85 % 1020,2 hPa 0,0 mm 2,5 km/h (1 Bft) O-NO 61 0 min 0,000 mm 0,0 UV-I 32 W/m 3,6 C 4,8 km/h (1 Bft)
10.10.2016 17:31 5,9 C 5,9 C 85 % 1020,2 hPa 0,0 mm 2,2 km/h (1 Bft) O-NO 60 0 min 0,000 mm 0,0 UV-I 30 W/m 3,6 C 3,2 km/h (1 Bft)
10.10.2016 17:32 5,9 C 5,9 C 85 % 1020,2 hPa 0,0 mm 2,4 km/h (1 Bft) NO 40 0 min 0,000 mm 0,0 UV-I 30 W/m 3,6 C 4,8 km/h (1 Bft)
10.10.2016 17:33 5,8 C 5,9 C 86 % 1020,2 hPa 0,0 mm 1,5 km/h (1 Bft) NO 40 0 min 0,000 mm 0,0 UV-I 30 W/m 3,6 C 3,2 km/h (1 Bft)
10.10.2016 17:34 5,9 C 5,9 C 86 % 1020,2 hPa 0,0 mm 0,7 km/h (0 Bft) NO 40 0 min 0,000 mm 0,0 UV-I 28 W/m 3,7 C 1,6 km/h (1 Bft)
10.10.2016 17:35 5,8 C 5,9 C 86 % 1020,2 hPa 0,0 mm 1,9 km/h (1 Bft) NO 40 0 min 0,000 mm 0,0 UV-I 28 W/m 3,6 C 3,2 km/h (1 Bft)
10.10.2016 17:36 5,9 C 5,9 C 86 % 1020,2 hPa 0,0 mm 1,7 km/h (1 Bft) NO 40 0 min 0,000 mm 0,0 UV-I 26 W/m 3,7 C 3,2 km/h (1 Bft)
10.10.2016 17:37 5,9 C 5,9 C 86 % 1020,2 hPa 0,0 mm 0,9 km/h (0 Bft) NO 40 0 min 0,000 mm 0,0 UV-I 26 W/m 3,7 C 3,2 km/h (1 Bft)
10.10.2016 17:38 5,8 C 5,9 C 86 % 1020,2 hPa 0,0 mm 3,0 km/h (1 Bft) NO 40 0 min 0,000 mm 0,0 UV-I 26 W/m 3,6 C 4,8 km/h (1 Bft)
10.10.2016 17:39 5,9 C 5,9 C 86 % 1020,3 hPa 0,0 mm 1,5 km/h (1 Bft) NO 40 0 min 0,000 mm 0,0 UV-I 26 W/m 3,7 C 3,2 km/h (1 Bft)
10.10.2016 17:40 5,9 C 5,9 C 86 % 1020,3 hPa 0,0 mm 1,2 km/h (1 Bft) NO 40 0 min 0,000 mm 0,0 UV-I 25 W/m 3,7 C 1,6 km/h (1 Bft)
10.10.2016 17:41 5,9 C 5,9 C 86 % 1020,3 hPa 0,0 mm 1,0 km/h (0 Bft) NO 40 0 min 0,000 mm 0,0 UV-I 25 W/m 3,7 C 1,6 km/h (1 Bft)
10.10.2016 17:42 5,9 C 5,9 C 86 % 1020,3 hPa 0,0 mm 0,9 km/h (0 Bft) NO 40 0 min 0,000 mm 0,0 UV-I 23 W/m 3,7 C 1,6 km/h (1 Bft)
10.10.2016 17:43 5,9 C 5,9 C 87 % 1020,3 hPa 0,0 mm 1,5 km/h (1 Bft) N-NW 337 0 min 0,000 mm 0,0 UV-I 21 W/m 3,9 C 3,2 km/h (1 Bft)
10.10.2016 17:44 5,9 C 5,9 C 86 % 1020,3 hPa 0,0 mm 2,7 km/h (1 Bft) N 355 0 min 0,000 mm 0,0 UV-I 21 W/m 3,7 C 4,8 km/h (1 Bft)
10.10.2016 17:45 5,8 C 5,9 C 86 % 1020,3 hPa 0,0 mm 4,1 km/h (1 Bft) N 355 0 min 0,000 mm 0,0 UV-I 21 W/m 3,6 C 6,4 km/h (2 Bft)
10.10.2016 17:46 5,8 C 5,8 C 86 % 1020,2 hPa 0,0 mm 4,5 km/h (1 Bft) N-NW 336 0 min 0,000 mm 0,0 UV-I 21 W/m 3,6 C 6,4 km/h (2 Bft)
10.10.2016 17:47 5,8 C 5,8 C 86 % 1020,2 hPa 0,0 mm 3,9 km/h (1 Bft) N 5 0 min 0,000 mm 0,0 UV-I 21 W/m 3,6 C 4,8 km/h (1 Bft)
10.10.2016 17:48 5,8 C 5,8 C 87 % 1020,3 hPa 0,0 mm 3,6 km/h (1 Bft) N-NW 348 0 min 0,000 mm 0,0 UV-I 19 W/m 3,8 C 4,8 km/h (1 Bft)
10.10.2016 17:49 5,8 C 5,8 C 87 % 1020,2 hPa 0,0 mm 3,0 km/h (1 Bft) N-NW 348 0 min 0,000 mm 0,0 UV-I 19 W/m 3,8 C 4,8 km/h (1 Bft)
10.10.2016 17:50 5,8 C 5,8 C 87 % 1020,2 hPa 0,0 mm 2,2 km/h (1 Bft) N-NW 348 0 min 0,000 mm 0,0 UV-I 19 W/m 3,8 C 3,2 km/h (1 Bft)
10.10.2016 17:51 5,8 C 5,8 C 87 % 1020,2 hPa 0,0 mm 1,1 km/h (1 Bft) N-NW 348 0 min 0,000 mm 0,0 UV-I 18 W/m 3,8 C 1,6 km/h (1 Bft)
10.10.2016 17:52 5,7 C 5,8 C 87 % 1020,2 hPa 0,0 mm 2,3 km/h (1 Bft) N-NW 348 0 min 0,000 mm 0,0 UV-I 18 W/m 3,7 C 3,2 km/h (1 Bft)
10.10.2016 17:53 5,7 C 5,8 C 87 % 1020,2 hPa 0,0 mm 0,7 km/h (0 Bft) N-NW 348 0 min 0,000 mm 0,0 UV-I 16 W/m 3,7 C 3,2 km/h (1 Bft)
10.10.2016 17:54 5,7 C 5,7 C 87 % 1020,3 hPa 0,0 mm 1,9 km/h (1 Bft) N-NW 348 0 min 0,000 mm 0,0 UV-I 16 W/m 3,7 C 3,2 km/h (1 Bft)
10.10.2016 17:55 5,7 C 5,7 C 88 % 1020,3 hPa 0,0 mm 0,6 km/h (0 Bft) N-NW 348 0 min 0,000 mm 0,0 UV-I 14 W/m 3,9 C 1,6 km/h (1 Bft)
10.10.2016 17:56 5,7 C 5,7 C 88 % 1020,2 hPa 0,0 mm 0,4 km/h (0 Bft) N-NW 348 0 min 0,000 mm 0,0 UV-I 14 W/m 3,9 C 1,6 km/h (1 Bft)
10.10.2016 17:57 5,6 C 5,7 C 88 % 1020,2 hPa 0,0 mm 1,5 km/h (1 Bft) NO 43 0 min 0,000 mm 0,0 UV-I 14 W/m 3,8 C 4,8 km/h (1 Bft)
10.10.2016 17:58 5,6 C 5,7 C 87 % 1020,2 hPa 0,0 mm 4,3 km/h (1 Bft) O 80 0 min 0,000 mm 0,0 UV-I 12 W/m 3,6 C 4,8 km/h (1 Bft)
10.10.2016 17:59 5,6 C 5,6 C 87 % 1020,2 hPa 0,0 mm 2,6 km/h (1 Bft) O 80 0 min 0,000 mm 0,0 UV-I 12 W/m 3,6 C 4,8 km/h (1 Bft)
10.10.2016 18:00 5,6 C 5,6 C 87 % 1020,2 hPa 0,0 mm 1,9 km/h (1 Bft) O 80 0 min 0,000 mm 0,0 UV-I 12 W/m 3,6 C 3,2 km/h (1 Bft)
10.10.2016 18:01 5,5 C 5,6 C 87 % 1020,2 hPa 0,0 mm 0,5 km/h (0 Bft) O 80 0 min 0,025 mm 0,0 UV-I 11 W/m 3,5 C 1,6 km/h (1 Bft)
10.10.2016 18:02 5,5 C 5,6 C 87 % 1020,2 hPa 0,0 mm 0,7 km/h (0 Bft) O 80 0 min 0,000 mm 0,0 UV-I 11 W/m 3,5 C 3,2 km/h (1 Bft)
10.10.2016 18:03 5,5 C 5,6 C 87 % 1020,3 hPa 0,0 mm 1,0 km/h (0 Bft) O 80 0 min 0,000 mm 0,0 UV-I 11 W/m 3,5 C 1,6 km/h (1 Bft)
10.10.2016 18:04 5,5 C 5,6 C 88 % 1020,2 hPa 0,0 mm 0,0 km/h (0 Bft) O 80 0 min 0,000 mm 0,0 UV-I 9 W/m 3,7 C 0,0 km/h (0 Bft)
10.10.2016 18:05 5,5 C 5,6 C 88 % 1020,3 hPa 0,0 mm 0,0 km/h (0 Bft) O 80 0 min 0,000 mm 0,0 UV-I 9 W/m 3,7 C 0,0 km/h (0 Bft)
10.10.2016 18:06 5,5 C 5,5 C 88 % 1020,2 hPa 0,0 mm 0,2 km/h (0 Bft) O 80 0 min 0,000 mm 0,0 UV-I 9 W/m 3,7 C 1,6 km/h (1 Bft)
10.10.2016 18:07 5,4 C 5,5 C 87 % 1020,2 hPa 0,0 mm 0,0 km/h (0 Bft) O 80 0 min 0,000 mm 0,0 UV-I 9 W/m 3,4 C 0,0 km/h (0 Bft)
10.10.2016 18:08 5,4 C 5,4 C 87 % 1020,2 hPa 0,0 mm 0,0 km/h (0 Bft) O 80 0 min 0,000 mm 0,0 UV-I 9 W/m 3,4 C 0,0 km/h (0 Bft)
10.10.2016 18:09 5,4 C 5,4 C 88 % 1020,2 hPa 0,0 mm 0,0 km/h (0 Bft) O 80 0 min 0,000 mm 0,0 UV-I 9 W/m 3,6 C 0,0 km/h (0 Bft)
10.10.2016 18:10 5,4 C 5,4 C 88 % 1020,2 hPa 0,0 mm 0,0 km/h (0 Bft) O 80 0 min 0,000 mm 0,0 UV-I 9 W/m 3,6 C 0,0 km/h (0 Bft)
10.10.2016 18:11 5,4 C 5,4 C 87 % 1020,3 hPa 0,0 mm 0,0 km/h (0 Bft) O 80 0 min 0,000 mm 0,0 UV-I 7 W/m 3,4 C 0,0 km/h (0 Bft)
10.10.2016 18:12 5,4 C 5,4 C 87 % 1020,3 hPa 0,0 mm 0,0 km/h (0 Bft) O 80 0 min 0,000 mm 0,0 UV-I 7 W/m 3,4 C 0,0 km/h (0 Bft)
10.10.2016 18:13 5,3 C 5,4 C 87 % 1020,3 hPa 0,0 mm 0,0 km/h (0 Bft) O 80 0 min 0,000 mm 0,0 UV-I 5 W/m 3,3 C 0,0 km/h (0 Bft)
10.10.2016 18:14 5,3 C 5,4 C 87 % 1020,3 hPa 0,0 mm 0,0 km/h (0 Bft) O 80 0 min 0,000 mm 0,0 UV-I 5 W/m 3,3 C 0,0 km/h (0 Bft)
10.10.2016 18:15 5,3 C 5,3 C 88 % 1020,3 hPa 0,0 mm 0,0 km/h (0 Bft) O 80 0 min 0,000 mm 0,0 UV-I 5 W/m 3,5 C 0,0 km/h (0 Bft)
10.10.2016 18:16 5,3 C 5,3 C 88 % 1020,3 hPa 0,0 mm 0,0 km/h (0 Bft) O 80 0 min 0,000 mm 0,0 UV-I 5 W/m 3,5 C 0,0 km/h (0 Bft)
10.10.2016 18:17 5,3 C 5,3 C 88 % 1020,3 hPa 0,0 mm 0,0 km/h (0 Bft) O 80 0 min 0,000 mm 0,0 UV-I 0 W/m 3,5 C 0,0 km/h (0 Bft)
10.10.2016 18:18 5,3 C 5,3 C 88 % 1020,3 hPa 0,0 mm 0,0 km/h (0 Bft) O 80 0 min 0,000 mm 0,0 UV-I 0 W/m 3,5 C 0,0 km/h (0 Bft)
10.10.2016 18:19 5,2 C 5,3 C 88 % 1020,3 hPa 0,0 mm 0,0 km/h (0 Bft) O 80 0 min 0,000 mm 0,0 UV-I 0 W/m 3,4 C 0,0 km/h (0 Bft)
10.10.2016 18:20 5,2 C 5,2 C 88 % 1020,3 hPa 0,0 mm 0,0 km/h (0 Bft) O 80 0 min 0,000 mm 0,0 UV-I 0 W/m 3,4 C 0,0 km/h (0 Bft)
10.10.2016 18:21 5,2 C 5,2 C 89 % 1020,3 hPa 0,0 mm 0,0 km/h (0 Bft) O 80 0 min 0,000 mm 0,0 UV-I 0 W/m 3,5 C 0,0 km/h (0 Bft)
10.10.2016 18:22 5,2 C 5,2 C 88 % 1020,3 hPa 0,0 mm 0,0 km/h (0 Bft) O 80 0 min 0,000 mm 0,0 UV-I 0 W/m 3,4 C 0,0 km/h (0 Bft)
10.10.2016 18:23 5,2 C 5,2 C 89 % 1020,3 hPa 0,0 mm 0,0 km/h (0 Bft) O 80 0 min 0,000 mm 0,0 UV-I 0 W/m 3,5 C 0,0 km/h (0 Bft)
10.10.2016 18:24 5,2 C 5,2 C 89 % 1020,3 hPa 0,0 mm 0,0 km/h (0 Bft) O 80 0 min 0,000 mm 0,0 UV-I 0 W/m 3,5 C 0,0 km/h (0 Bft)
10.10.2016 18:25 5,2 C 5,2 C 89 % 1020,3 hPa 0,0 mm 0,0 km/h (0 Bft) O 80 0 min 0,000 mm 0,0 UV-I 0 W/m 3,5 C 0,0 km/h (0 Bft)
10.10.2016 18:26 5,2 C 5,2 C 89 % 1020,3 hPa 0,0 mm 0,0 km/h (0 Bft) O 80 0 min 0,000 mm 0,0 UV-I 0 W/m 3,5 C 0,0 km/h (0 Bft)
10.10.2016 18:27 5,2 C 5,2 C 90 % 1020,3 hPa 0,0 mm 0,0 km/h (0 Bft) O 80 0 min 0,000 mm 0,0 UV-I 0 W/m 3,7 C 0,0 km/h (0 Bft)
10.10.2016 18:28 5,2 C 5,2 C 89 % 1020,3 hPa 0,0 mm 0,0 km/h (0 Bft) O 80 0 min 0,000 mm 0,0 UV-I 0 W/m 3,5 C 0,0 km/h (0 Bft)
10.10.2016 18:29 5,2 C 5,2 C 89 % 1020,3 hPa 0,0 mm 0,0 km/h (0 Bft) O 80 0 min 0,000 mm 0,0 UV-I 0 W/m 3,5 C 0,0 km/h (0 Bft)
10.10.2016 18:30 5,2 C 5,2 C 89 % 1020,3 hPa 0,0 mm 0,0 km/h (0 Bft) O 80 0 min 0,000 mm 0,0 UV-I 0 W/m 3,5 C 0,0 km/h (0 Bft)
10.10.2016 18:31 5,2 C 5,2 C 89 % 1020,3 hPa 0,0 mm 0,0 km/h (0 Bft) O 80 0 min 0,000 mm 0,0 UV-I 0 W/m 3,5 C 0,0 km/h (0 Bft)
10.10.2016 18:32 5,2 C 5,2 C 89 % 1020,3 hPa 0,0 mm 0,0 km/h (0 Bft) O 80 0 min 0,000 mm 0,0 UV-I 0 W/m 3,5 C 0,0 km/h (0 Bft)
10.10.2016 18:33 5,2 C 5,2 C 89 % 1020,3 hPa 0,0 mm 0,0 km/h (0 Bft) O 80 0 min 0,000 mm 0,0 UV-I 0 W/m 3,5 C 0,0 km/h (0 Bft)
10.10.2016 18:34 5,2 C 5,2 C 89 % 1020,3 hPa 0,0 mm 0,0 km/h (0 Bft) O 80 0 min 0,000 mm 0,0 UV-I 0 W/m 3,5 C 0,0 km/h (0 Bft)
10.10.2016 18:35 5,2 C 5,2 C 89 % 1020,3 hPa 0,0 mm 0,0 km/h (0 Bft) O 80 0 min 0,000 mm 0,0 UV-I 0 W/m 3,5 C 0,0 km/h (0 Bft)
10.10.2016 18:36 5,2 C 5,2 C 89 % 1020,3 hPa 0,0 mm 0,0 km/h (0 Bft) O 80 0 min 0,000 mm 0,0 UV-I 0 W/m 3,5 C 0,0 km/h (0 Bft)
10.10.2016 18:37 5,2 C 5,2 C 88 % 1020,3 hPa 0,0 mm 0,0 km/h (0 Bft) O 80 0 min 0,000 mm 0,0 UV-I 0 W/m 3,4 C 0,0 km/h (0 Bft)
10.10.2016 18:38 5,1 C 5,2 C 89 % 1020,3 hPa 0,0 mm 0,0 km/h (0 Bft) O 80 0 min 0,000 mm 0,0 UV-I 0 W/m 3,4 C 0,0 km/h (0 Bft)
10.10.2016 18:39 5,1 C 5,2 C 89 % 1020,3 hPa 0,0 mm 0,0 km/h (0 Bft) O 80 0 min 0,000 mm 0,0 UV-I 0 W/m 3,4 C 0,0 km/h (0 Bft)
10.10.2016 18:40 5,1 C 5,1 C 89 % 1020,3 hPa 0,0 mm 0,0 km/h (0 Bft) O 80 0 min 0,000 mm 0,0 UV-I 0 W/m 3,4 C 0,0 km/h (0 Bft)
10.10.2016 18:41 5,1 C 5,1 C 89 % 1020,4 hPa 0,0 mm 0,0 km/h (0 Bft) O 80 0 min 0,000 mm 0,0 UV-I 0 W/m 3,4 C 0,0 km/h (0 Bft)
10.10.2016 18:42 5,1 C 5,1 C 89 % 1020,4 hPa 0,0 mm 0,0 km/h (0 Bft) O 80 0 min 0,000 mm 0,0 UV-I 0 W/m 3,4 C 0,0 km/h (0 Bft)
10.10.2016 18:43 5,1 C 5,1 C 89 % 1020,3 hPa 0,0 mm 0,0 km/h (0 Bft) O 80 0 min 0,000 mm 0,0 UV-I 0 W/m 3,4 C 0,0 km/h (0 Bft)
10.10.2016 18:44 5,0 C 5,1 C 89 % 1020,3 hPa 0,0 mm 0,0 km/h (0 Bft) O 80 0 min 0,000 mm 0,0 UV-I 0 W/m 3,3 C 0,0 km/h (0 Bft)
10.10.2016 18:45 4,9 C 5,0 C 89 % 1020,3 hPa 0,0 mm 0,0 km/h (0 Bft) O 80 0 min 0,000 mm 0,0 UV-I 0 W/m 3,2 C 0,0 km/h (0 Bft)
10.10.2016 18:46 4,9 C 4,9 C 90 % 1020,3 hPa 0,0 mm 0,0 km/h (0 Bft) O 80 0 min 0,000 mm 0,0 UV-I 0 W/m 3,4 C 0,0 km/h (0 Bft)
10.10.2016 18:47 4,9 C 4,9 C 90 % 1020,3 hPa 0,0 mm 0,0 km/h (0 Bft) O 80 0 min 0,000 mm 0,0 UV-I 0 W/m 3,4 C 0,0 km/h (0 Bft)
10.10.2016 18:48 4,9 C 4,9 C 90 % 1020,3 hPa 0,0 mm 0,0 km/h (0 Bft) O 80 0 min 0,000 mm 0,0 UV-I 0 W/m 3,4 C 0,0 km/h (0 Bft)
10.10.2016 18:49 4,9 C 4,9 C 90 % 1020,4 hPa 0,0 mm 0,0 km/h (0 Bft) O 80 0 min 0,000 mm 0,0 UV-I 0 W/m 3,4 C 0,0 km/h (0 Bft)
10.10.2016 18:50 4,8 C 4,9 C 90 % 1020,3 hPa 0,0 mm 0,0 km/h (0 Bft) O 80 0 min 0,000 mm 0,0 UV-I 0 W/m 3,3 C 0,0 km/h (0 Bft)
10.10.2016 18:51 4,8 C 4,8 C 90 % 1020,4 hPa 0,0 mm 0,0 km/h (0 Bft) O 80 0 min 0,000 mm 0,0 UV-I 0 W/m 3,3 C 0,0 km/h (0 Bft)
10.10.2016 18:52 4,7 C 4,8 C 90 % 1020,4 hPa 0,0 mm 0,0 km/h (0 Bft) O 80 0 min 0,000 mm 0,0 UV-I 0 W/m 3,2 C 0,0 km/h (0 Bft)
10.10.2016 18:53 4,7 C 4,8 C 90 % 1020,4 hPa 0,0 mm 0,0 km/h (0 Bft) O 80 0 min 0,000 mm 0,0 UV-I 0 W/m 3,2 C 0,0 km/h (0 Bft)
10.10.2016 18:54 4,7 C 4,7 C 90 % 1020,3 hPa 0,0 mm 0,0 km/h (0 Bft) O 80 0 min 0,000 mm 0,0 UV-I 0 W/m 3,2 C 0,0 km/h (0 Bft)
10.10.2016 18:55 4,7 C 4,7 C 91 % 1020,3 hPa 0,0 mm 0,0 km/h (0 Bft) O 80 0 min 0,000 mm 0,0 UV-I 0 W/m 3,4 C 0,0 km/h (0 Bft)
10.10.2016 18:56 4,7 C 4,7 C 91 % 1020,3 hPa 0,0 mm 0,0 km/h (0 Bft) O 80 0 min 0,000 mm 0,0 UV-I 0 W/m 3,4 C 0,0 km/h (0 Bft)
10.10.2016 18:57 4,6 C 4,7 C 91 % 1020,3 hPa 0,0 mm 0,0 km/h (0 Bft) O 80 0 min 0,000 mm 0,0 UV-I 0 W/m 3,3 C 0,0 km/h (0 Bft)
10.10.2016 18:58 4,7 C 4,7 C 91 % 1020,3 hPa 0,0 mm 0,0 km/h (0 Bft) O 80 0 min 0,000 mm 0,0 UV-I 0 W/m 3,4 C 0,0 km/h (0 Bft)
10.10.2016 18:59 4,6 C 4,7 C 91 % 1020,3 hPa 0,0 mm 0,0 km/h (0 Bft) O 80 0 min 0,000 mm 0,0 UV-I 0 W/m 3,3 C 0,0 km/h (0 Bft)
10.10.2016 19:00 4,6 C 4,7 C 91 % 1020,3 hPa 0,0 mm 0,0 km/h (0 Bft) O 80 0 min 0,000 mm 0,0 UV-I 0 W/m 3,3 C 0,0 km/h (0 Bft)
10.10.2016 19:01 4,6 C 4,7 C 91 % 1020,3 hPa 0,0 mm 0,0 km/h (0 Bft) O 80 0 min 0,000 mm 0,0 UV-I 0 W/m 3,3 C 0,0 km/h (0 Bft)
10.10.2016 19:02 4,6 C 4,7 C 91 % 1020,3 hPa 0,0 mm 0,0 km/h (0 Bft) O 80 0 min 0,000 mm 0,0 UV-I 0 W/m 3,3 C 0,0 km/h (0 Bft)
10.10.2016 19:03 4,6 C 4,7 C 91 % 1020,3 hPa 0,0 mm 0,0 km/h (0 Bft) O 80 0 min 0,000 mm 0,0 UV-I 0 W/m 3,3 C 0,0 km/h (0 Bft)
10.10.2016 19:04 4,7 C 4,7 C 91 % 1020,3 hPa 0,0 mm 0,0 km/h (0 Bft) O 80 0 min 0,000 mm 0,0 UV-I 0 W/m 3,4 C 0,0 km/h (0 Bft)
10.10.2016 19:05 4,6 C 4,7 C 91 % 1020,3 hPa 0,0 mm 0,0 km/h (0 Bft) O 80 0 min 0,000 mm 0,0 UV-I 0 W/m 3,3 C 0,0 km/h (0 Bft)
10.10.2016 19:06 4,6 C 4,7 C 91 % 1020,3 hPa 0,0 mm 0,0 km/h (0 Bft) O 80 0 min 0,000 mm 0,0 UV-I 0 W/m 3,3 C 0,0 km/h (0 Bft)
10.10.2016 19:07 4,7 C 4,7 C 91 % 1020,3 hPa 0,0 mm 0,0 km/h (0 Bft) O 80 0 min 0,000 mm 0,0 UV-I 0 W/m 3,4 C 0,0 km/h (0 Bft)
10.10.2016 19:08 4,7 C 4,7 C 91 % 1020,3 hPa 0,0 mm 0,0 km/h (0 Bft) O 80 0 min 0,000 mm 0,0 UV-I 0 W/m 3,4 C 0,0 km/h (0 Bft)
10.10.2016 19:09 4,7 C 4,7 C 91 % 1020,3 hPa 0,0 mm 0,0 km/h (0 Bft) O 80 0 min 0,000 mm 0,0 UV-I 0 W/m 3,4 C 0,0 km/h (0 Bft)
10.10.2016 19:10 4,6 C 4,7 C 91 % 1020,3 hPa 0,0 mm 0,0 km/h (0 Bft) O 80 0 min 0,000 mm 0,0 UV-I 0 W/m 3,3 C 0,0 km/h (0 Bft)
10.10.2016 19:11 4,6 C 4,7 C 91 % 1020,3 hPa 0,0 mm 0,0 km/h (0 Bft) O 80 0 min 0,000 mm 0,0 UV-I 0 W/m 3,3 C 0,0 km/h (0 Bft)
10.10.2016 19:12 4,7 C 4,7 C 91 % 1020,3 hPa 0,0 mm 0,0 km/h (0 Bft) O 80 0 min 0,000 mm 0,0 UV-I 0 W/m 3,4 C 0,0 km/h (0 Bft)
10.10.2016 19:13 4,7 C 4,7 C 91 % 1020,3 hPa 0,0 mm 0,0 km/h (0 Bft) O 80 0 min 0,000 mm 0,0 UV-I 0 W/m 3,4 C 0,0 km/h (0 Bft)
10.10.2016 19:14 4,7 C 4,7 C 91 % 1020,3 hPa 0,0 mm 0,0 km/h (0 Bft) O 80 0 min 0,000 mm 0,0 UV-I 0 W/m 3,4 C 0,0 km/h (0 Bft)
10.10.2016 19:15 4,6 C 4,7 C 91 % 1020,3 hPa 0,0 mm 0,0 km/h (0 Bft) O 80 0 min 0,000 mm 0,0 UV-I 0 W/m 3,3 C 0,0 km/h (0 Bft)
10.10.2016 19:16 4,6 C 4,7 C 91 % 1020,3 hPa 0,0 mm 0,0 km/h (0 Bft) O 80 0 min 0,000 mm 0,0 UV-I 0 W/m 3,3 C 0,0 km/h (0 Bft)
10.10.2016 19:17 4,6 C 4,6 C 91 % 1020,2 hPa 0,0 mm 0,0 km/h (0 Bft) O 80 0 min 0,000 mm 0,0 UV-I 0 W/m 3,3 C 0,0 km/h (0 Bft)
10.10.2016 19:18 4,7 C 4,7 C 91 % 1020,3 hPa 0,0 mm 0,0 km/h (0 Bft) O 80 0 min 0,000 mm 0,0 UV-I 0 W/m 3,4 C 0,0 km/h (0 Bft)
10.10.2016 19:19 4,6 C 4,7 C 91 % 1020,3 hPa 0,0 mm 0,0 km/h (0 Bft) O 80 0 min 0,000 mm 0,0 UV-I 0 W/m 3,3 C 0,0 km/h (0 Bft)
10.10.2016 19:20 4,6 C 4,7 C 91 % 1020,3 hPa 0,0 mm 0,0 km/h (0 Bft) O 80 0 min 0,000 mm 0,0 UV-I 0 W/m 3,3 C 0,0 km/h (0 Bft)
10.10.2016 19:21 4,6 C 4,6 C 91 % 1020,2 hPa 0,0 mm 0,0 km/h (0 Bft) O 80 0 min 0,000 mm 0,0 UV-I 0 W/m 3,3 C 0,0 km/h (0 Bft)
10.10.2016 19:22 4,7 C 4,7 C 91 % 1020,3 hPa 0,0 mm 0,0 km/h (0 Bft) O 80 0 min 0,000 mm 0,0 UV-I 0 W/m 3,4 C 0,0 km/h (0 Bft)
10.10.2016 19:23 4,6 C 4,7 C 91 % 1020,3 hPa 0,0 mm 0,0 km/h (0 Bft) O 80 0 min 0,000 mm 0,0 UV-I 0 W/m 3,3 C 0,0 km/h (0 Bft)
10.10.2016 19:24 4,6 C 4,6 C 91 % 1020,2 hPa 0,0 mm 0,0 km/h (0 Bft) O 80 0 min 0,000 mm 0,0 UV-I 0 W/m 3,3 C 0,0 km/h (0 Bft)
10.10.2016 19:25 4,6 C 4,6 C 91 % 1020,2 hPa 0,0 mm 0,0 km/h (0 Bft) O 80 0 min 0,000 mm 0,0 UV-I 0 W/m 3,3 C 0,0 km/h (0 Bft)
10.10.2016 19:26 4,6 C 4,6 C 91 % 1020,2 hPa 0,0 mm 0,0 km/h (0 Bft) O 80 0 min 0,000 mm 0,0 UV-I 0 W/m 3,3 C 0,0 km/h (0 Bft)
10.10.2016 19:27 4,6 C 4,6 C 91 % 1020,2 hPa 0,0 mm 0,0 km/h (0 Bft) O 80 0 min 0,000 mm 0,0 UV-I 0 W/m 3,3 C 0,0 km/h (0 Bft)
10.10.2016 19:28 4,7 C 4,7 C 91 % 1020,2 hPa 0,0 mm 0,0 km/h (0 Bft) O 80 0 min 0,000 mm 0,0 UV-I 0 W/m 3,4 C 0,0 km/h (0 Bft)
10.10.2016 19:29 4,6 C 4,7 C 91 % 1020,2 hPa 0,0 mm 0,0 km/h (0 Bft) O 80 0 min 0,000 mm 0,0 UV-I 0 W/m 3,3 C 0,0 km/h (0 Bft)
10.10.2016 19:30 4,6 C 4,6 C 91 % 1020,2 hPa 0,0 mm 0,0 km/h (0 Bft) O 80 0 min 0,000 mm 0,0 UV-I 0 W/m 3,3 C 0,0 km/h (0 Bft)
10.10.2016 19:31 4,6 C 4,6 C 91 % 1020,2 hPa 0,0 mm 0,0 km/h (0 Bft) O 80 0 min 0,000 mm 0,0 UV-I 0 W/m 3,3 C 0,0 km/h (0 Bft)
10.10.2016 19:32 4,6 C 4,6 C 91 % 1020,2 hPa 0,0 mm 0,0 km/h (0 Bft) O 80 0 min 0,000 mm 0,0 UV-I 0 W/m 3,3 C 0,0 km/h (0 Bft)
10.10.2016 19:33 4,6 C 4,6 C 91 % 1020,2 hPa 0,0 mm 0,0 km/h (0 Bft) O 80 0 min 0,000 mm 0,0 UV-I 0 W/m 3,3 C 0,0 km/h (0 Bft)
10.10.2016 19:34 4,6 C 4,6 C 91 % 1020,2 hPa 0,0 mm 0,0 km/h (0 Bft) O 80 0 min 0,000 mm 0,0 UV-I 0 W/m 3,3 C 0,0 km/h (0 Bft)
10.10.2016 19:35 4,5 C 4,6 C 92 % 1020,3 hPa 0,0 mm 0,0 km/h (0 Bft) O 80 0 min 0,000 mm 0,0 UV-I 0 W/m 3,3 C 0,0 km/h (0 Bft)
10.10.2016 19:36 4,5 C 4,6 C 92 % 1020,3 hPa 0,0 mm 0,0 km/h (0 Bft) O 80 0 min 0,000 mm 0,0 UV-I 0 W/m 3,3 C 0,0 km/h (0 Bft)
10.10.2016 19:37 4,5 C 4,5 C 92 % 1020,3 hPa 0,0 mm 0,0 km/h (0 Bft) O 80 0 min 0,000 mm 0,0 UV-I 0 W/m 3,3 C 0,0 km/h (0 Bft)
10.10.2016 19:38 4,5 C 4,6 C 92 % 1020,3 hPa 0,0 mm 0,0 km/h (0 Bft) O 80 0 min 0,000 mm 0,0 UV-I 0 W/m 3,3 C 0,0 km/h (0 Bft)
10.10.2016 19:39 4,5 C 4,5 C 92 % 1020,3 hPa 0,0 mm 0,0 km/h (0 Bft) O 80 0 min 0,000 mm 0,0 UV-I 0 W/m 3,3 C 0,0 km/h (0 Bft)
10.10.2016 19:40 4,5 C 4,5 C 92 % 1020,3 hPa 0,0 mm 0,0 km/h (0 Bft) O 80 0 min 0,000 mm 0,0 UV-I 0 W/m 3,3 C 0,0 km/h (0 Bft)
10.10.2016 19:41 4,5 C 4,5 C 91 % 1020,3 hPa 0,0 mm 0,0 km/h (0 Bft) O 80 0 min 0,000 mm 0,0 UV-I 0 W/m 3,2 C 0,0 km/h (0 Bft)
10.10.2016 19:42 4,5 C 4,5 C 92 % 1020,3 hPa 0,0 mm 0,0 km/h (0 Bft) O 80 0 min 0,000 mm 0,0 UV-I 0 W/m 3,3 C 0,0 km/h (0 Bft)
10.10.2016 19:43 4,4 C 4,5 C 92 % 1020,4 hPa 0,0 mm 0,0 km/h (0 Bft) O 80 0 min 0,000 mm 0,0 UV-I 0 W/m 3,2 C 0,0 km/h (0 Bft)
10.10.2016 19:44 4,4 C 4,4 C 92 % 1020,3 hPa 0,0 mm 0,0 km/h (0 Bft) O 80 0 min 0,000 mm 0,0 UV-I 0 W/m 3,2 C 0,0 km/h (0 Bft)
10.10.2016 19:45 4,4 C 4,4 C 92 % 1020,3 hPa 0,0 mm 0,0 km/h (0 Bft) O 80 0 min 0,000 mm 0,0 UV-I 0 W/m 3,2 C 0,0 km/h (0 Bft)
10.10.2016 19:46 4,4 C 4,4 C 92 % 1020,3 hPa 0,0 mm 0,0 km/h (0 Bft) O 80 0 min 0,000 mm 0,0 UV-I 0 W/m 3,2 C 0,0 km/h (0 Bft)
10.10.2016 19:47 4,4 C 4,4 C 92 % 1020,3 hPa 0,0 mm 0,0 km/h (0 Bft) O 80 0 min 0,000 mm 0,0 UV-I 0 W/m 3,2 C 0,0 km/h (0 Bft)
10.10.2016 19:48 4,4 C 4,4 C 92 % 1020,3 hPa 0,0 mm 0,0 km/h (0 Bft) O 80 0 min 0,000 mm 0,0 UV-I 0 W/m 3,2 C 0,0 km/h (0 Bft)
10.10.2016 19:49 4,4 C 4,4 C 92 % 1020,3 hPa 0,0 mm 0,0 km/h (0 Bft) O 80 0 min 0,000 mm 0,0 UV-I 0 W/m 3,2 C 0,0 km/h (0 Bft)
10.10.2016 19:50 4,4 C 4,4 C 92 % 1020,3 hPa 0,0 mm 0,0 km/h (0 Bft) O 80 0 min 0,000 mm 0,0 UV-I 0 W/m 3,2 C 0,0 km/h (0 Bft)
10.10.2016 19:51 4,4 C 4,4 C 92 % 1020,3 hPa 0,0 mm 1,8 km/h (1 Bft) O 96 0 min 0,000 mm 0,0 UV-I 0 W/m 3,2 C 4,8 km/h (1 Bft)
10.10.2016 19:52 4,4 C 4,4 C 92 % 1020,3 hPa 0,0 mm 2,1 km/h (1 Bft) O 96 0 min 0,000 mm 0,0 UV-I 0 W/m 3,2 C 3,2 km/h (1 Bft)
10.10.2016 19:53 4,4 C 4,4 C 92 % 1020,3 hPa 0,0 mm 3,0 km/h (1 Bft) O 96 0 min 0,000 mm 0,0 UV-I 0 W/m 3,2 C 4,8 km/h (1 Bft)
10.10.2016 19:54 4,4 C 4,4 C 92 % 1020,3 hPa 0,0 mm 1,4 km/h (1 Bft) O 96 0 min 0,000 mm 0,0 UV-I 0 W/m 3,2 C 3,2 km/h (1 Bft)
10.10.2016 19:55 4,4 C 4,4 C 92 % 1020,3 hPa 0,0 mm 0,0 km/h (0 Bft) O 96 0 min 0,000 mm 0,0 UV-I 0 W/m 3,2 C 0,0 km/h (0 Bft)
10.10.2016 19:56 4,4 C 4,4 C 92 % 1020,3 hPa 0,0 mm 0,0 km/h (0 Bft) O 96 0 min 0,000 mm 0,0 UV-I 0 W/m 3,2 C 0,0 km/h (0 Bft)
10.10.2016 19:57 4,4 C 4,4 C 92 % 1020,3 hPa 0,0 mm 0,2 km/h (0 Bft) O 96 0 min 0,000 mm 0,0 UV-I 0 W/m 3,2 C 1,6 km/h (1 Bft)
10.10.2016 19:58 4,4 C 4,4 C 92 % 1020,3 hPa 0,0 mm 0,2 km/h (0 Bft) O 96 0 min 0,000 mm 0,0 UV-I 0 W/m 3,2 C 1,6 km/h (1 Bft)
10.10.2016 19:59 4,4 C 4,4 C 92 % 1020,3 hPa 0,0 mm 0,4 km/h (0 Bft) O 96 0 min 0,000 mm 0,0 UV-I 0 W/m 3,2 C 1,6 km/h (1 Bft)
10.10.2016 20:00 4,4 C 4,4 C 92 % 1020,4 hPa 0,0 mm 1,1 km/h (1 Bft) O 96 0 min 0,000 mm 0,0 UV-I 0 W/m 3,2 C 1,6 km/h (1 Bft)
10.10.2016 20:01 4,4 C 4,4 C 92 % 1020,3 hPa 0,0 mm 0,8 km/h (0 Bft) O 96 0 min 0,000 mm 0,0 UV-I 0 W/m 3,2 C 3,2 km/h (1 Bft)
10.10.2016 20:02 4,4 C 4,4 C 92 % 1020,3 hPa 0,0 mm 0,4 km/h (0 Bft) O 96 0 min 0,000 mm 0,0 UV-I 0 W/m 3,2 C 1,6 km/h (1 Bft)
10.10.2016 20:03 4,3 C 4,4 C 92 % 1020,3 hPa 0,0 mm 0,0 km/h (0 Bft) O 96 0 min 0,000 mm 0,0 UV-I 0 W/m 3,1 C 0,0 km/h (0 Bft)
10.10.2016 20:04 4,3 C 4,4 C 92 % 1020,3 hPa 0,0 mm 0,0 km/h (0 Bft) O 96 0 min 0,000 mm 0,0 UV-I 0 W/m 3,1 C 0,0 km/h (0 Bft)
10.10.2016 20:05 4,3 C 4,4 C 91 % 1020,3 hPa 0,0 mm 0,0 km/h (0 Bft) O 96 0 min 0,000 mm 0,0 UV-I 0 W/m 3,0 C 0,0 km/h (0 Bft)
10.10.2016 20:06 4,3 C 4,4 C 91 % 1020,3 hPa 0,0 mm 0,0 km/h (0 Bft) O 96 0 min 0,000 mm 0,0 UV-I 0 W/m 3,0 C 0,0 km/h (0 Bft)
10.10.2016 20:07 4,3 C 4,3 C 91 % 1020,3 hPa 0,0 mm 0,0 km/h (0 Bft) O 96 0 min 0,000 mm 0,0 UV-I 0 W/m 3,0 C 0,0 km/h (0 Bft)
10.10.2016 20:08 4,3 C 4,3 C 91 % 1020,3 hPa 0,0 mm 0,0 km/h (0 Bft) O 96 0 min 0,000 mm 0,0 UV-I 0 W/m 3,0 C 0,0 km/h (0 Bft)
10.10.2016 20:09 4,3 C 4,3 C 91 % 1020,3 hPa 0,0 mm 0,6 km/h (0 Bft) O 96 0 min 0,000 mm 0,0 UV-I 0 W/m 3,0 C 1,6 km/h (1 Bft)
10.10.2016 20:10 4,3 C 4,3 C 92 % 1020,3 hPa 0,0 mm 0,5 km/h (0 Bft) O 96 0 min 0,000 mm 0,0 UV-I 0 W/m 3,1 C 1,6 km/h (1 Bft)
10.10.2016 20:11 4,3 C 4,3 C 92 % 1020,3 hPa 0,0 mm 0,5 km/h (0 Bft) O 96 0 min 0,000 mm 0,0 UV-I 0 W/m 3,1 C 1,6 km/h (1 Bft)
10.10.2016 20:12 4,3 C 4,3 C 91 % 1020,3 hPa 0,0 mm 0,8 km/h (0 Bft) O 96 0 min 0,000 mm 0,0 UV-I 0 W/m 3,0 C 1,6 km/h (1 Bft)
10.10.2016 20:13 4,3 C 4,3 C 91 % 1020,3 hPa 0,0 mm 0,0 km/h (0 Bft) O 96 0 min 0,000 mm 0,0 UV-I 0 W/m 3,0 C 0,0 km/h (0 Bft)
10.10.2016 20:14 4,3 C 4,3 C 91 % 1020,3 hPa 0,0 mm 0,0 km/h (0 Bft) O 96 0 min 0,000 mm 0,0 UV-I 0 W/m 3,0 C 0,0 km/h (0 Bft)
10.10.2016 20:15 4,3 C 4,3 C 91 % 1020,3 hPa 0,0 mm 0,0 km/h (0 Bft) O 96 0 min 0,000 mm 0,0 UV-I 0 W/m 3,0 C 0,0 km/h (0 Bft)
10.10.2016 20:16 4,3 C 4,3 C 91 % 1020,3 hPa 0,0 mm 0,0 km/h (0 Bft) O 96 0 min 0,000 mm 0,0 UV-I 0 W/m 3,0 C 0,0 km/h (0 Bft)
10.10.2016 20:17 4,3 C 4,3 C 91 % 1020,3 hPa 0,0 mm 0,0 km/h (0 Bft) O 96 0 min 0,000 mm 0,0 UV-I 0 W/m 3,0 C 0,0 km/h (0 Bft)
10.10.2016 20:18 4,3 C 4,3 C 91 % 1020,3 hPa 0,0 mm 0,9 km/h (0 Bft) O 96 0 min 0,000 mm 0,0 UV-I 0 W/m 3,0 C 1,6 km/h (1 Bft)
10.10.2016 20:19 4,3 C 4,3 C 91 % 1020,3 hPa 0,0 mm 1,2 km/h (1 Bft) O 96 0 min 0,000 mm 0,0 UV-I 0 W/m 3,0 C 1,6 km/h (1 Bft)
10.10.2016 20:20 4,3 C 4,3 C 91 % 1020,3 hPa 0,0 mm 0,4 km/h (0 Bft) O 96 0 min 0,000 mm 0,0 UV-I 0 W/m 3,0 C 1,6 km/h (1 Bft)
10.10.2016 20:21 4,3 C 4,3 C 91 % 1020,3 hPa 0,0 mm 0,0 km/h (0 Bft) O 96 0 min 0,000 mm 0,0 UV-I 0 W/m 3,0 C 0,0 km/h (0 Bft)
10.10.2016 20:22 4,3 C 4,3 C 91 % 1020,2 hPa 0,0 mm 0,0 km/h (0 Bft) O 96 0 min 0,000 mm 0,0 UV-I 0 W/m 3,0 C 0,0 km/h (0 Bft)
10.10.2016 20:23 4,3 C 4,3 C 91 % 1020,3 hPa 0,0 mm 0,0 km/h (0 Bft) O 96 0 min 0,000 mm 0,0 UV-I 0 W/m 3,0 C 0,0 km/h (0 Bft)
10.10.2016 20:24 4,3 C 4,3 C 91 % 1020,3 hPa 0,0 mm 0,0 km/h (0 Bft) O 96 0 min 0,000 mm 0,0 UV-I 0 W/m 3,0 C 0,0 km/h (0 Bft)
10.10.2016 20:25 4,3 C 4,3 C 91 % 1020,2 hPa 0,0 mm 0,0 km/h (0 Bft) O 96 0 min 0,000 mm 0,0 UV-I 0 W/m 3,0 C 0,0 km/h (0 Bft)
10.10.2016 20:26 4,3 C 4,3 C 91 % 1020,2 hPa 0,0 mm 0,0 km/h (0 Bft) O 96 0 min 0,000 mm 0,0 UV-I 0 W/m 3,0 C 0,0 km/h (0 Bft)
10.10.2016 20:27 4,3 C 4,3 C 91 % 1020,2 hPa 0,0 mm 0,0 km/h (0 Bft) O 96 0 min 0,000 mm 0,0 UV-I 0 W/m 3,0 C 0,0 km/h (0 Bft)
10.10.2016 20:28 4,2 C 4,3 C 91 % 1020,2 hPa 0,0 mm 0,0 km/h (0 Bft) O 96 0 min 0,000 mm 0,0 UV-I 0 W/m 2,9 C 0,0 km/h (0 Bft)
10.10.2016 20:29 4,2 C 4,3 C 91 % 1020,2 hPa 0,0 mm 0,0 km/h (0 Bft) O 96 0 min 0,000 mm 0,0 UV-I 0 W/m 2,9 C 0,0 km/h (0 Bft)
10.10.2016 20:30 4,2 C 4,2 C 91 % 1020,2 hPa 0,0 mm 0,0 km/h (0 Bft) O 96 0 min 0,000 mm 0,0 UV-I 0 W/m 2,9 C 0,0 km/h (0 Bft)
10.10.2016 20:31 4,2 C 4,2 C 92 % 1020,3 hPa 0,0 mm 0,0 km/h (0 Bft) O 96 0 min 0,000 mm 0,0 UV-I 0 W/m 3,0 C 0,0 km/h (0 Bft)
10.10.2016 20:32 4,2 C 4,2 C 92 % 1020,3 hPa 0,0 mm 0,0 km/h (0 Bft) O 96 0 min 0,000 mm 0,0 UV-I 0 W/m 3,0 C 0,0 km/h (0 Bft)
10.10.2016 20:33 4,2 C 4,2 C 92 % 1020,2 hPa 0,0 mm 0,0 km/h (0 Bft) O 96 0 min 0,000 mm 0,0 UV-I 0 W/m 3,0 C 0,0 km/h (0 Bft)
10.10.2016 20:34 4,2 C 4,2 C 92 % 1020,3 hPa 0,0 mm 0,0 km/h (0 Bft) O 96 0 min 0,000 mm 0,0 UV-I 0 W/m 3,0 C 0,0 km/h (0 Bft)
10.10.2016 20:35 4,2 C 4,2 C 92 % 1020,3 hPa 0,0 mm 0,0 km/h (0 Bft) O 96 0 min 0,000 mm 0,0 UV-I 0 W/m 3,0 C 0,0 km/h (0 Bft)
10.10.2016 20:36 4,2 C 4,2 C 92 % 1020,3 hPa 0,0 mm 0,0 km/h (0 Bft) O 96 0 min 0,000 mm 0,0 UV-I 0 W/m 3,0 C 0,0 km/h (0 Bft)
10.10.2016 20:37 4,2 C 4,2 C 92 % 1020,3 hPa 0,0 mm 0,0 km/h (0 Bft) O 96 0 min 0,000 mm 0,0 UV-I 0 W/m 3,0 C 0,0 km/h (0 Bft)
10.10.2016 20:38 4,2 C 4,2 C 92 % 1020,2 hPa 0,0 mm 0,0 km/h (0 Bft) O 96 0 min 0,000 mm 0,0 UV-I 0 W/m 3,0 C 0,0 km/h (0 Bft)
10.10.2016 20:39 4,2 C 4,2 C 92 % 1020,2 hPa 0,0 mm 0,0 km/h (0 Bft) O 96 0 min 0,000 mm 0,0 UV-I 0 W/m 3,0 C 0,0 km/h (0 Bft)
10.10.2016 20:40 4,2 C 4,2 C 92 % 1020,3 hPa 0,0 mm 1,2 km/h (1 Bft) NO 46 0 min 0,000 mm 0,0 UV-I 0 W/m 3,0 C 3,2 km/h (1 Bft)
10.10.2016 20:41 4,2 C 4,2 C 92 % 1020,3 hPa 0,0 mm 1,8 km/h (1 Bft) NO 42 0 min 0,000 mm 0,0 UV-I 0 W/m 3,0 C 3,2 km/h (1 Bft)
10.10.2016 20:42 4,2 C 4,2 C 92 % 1020,3 hPa 0,0 mm 0,5 km/h (0 Bft) NO 42 0 min 0,000 mm 0,0 UV-I 0 W/m 3,0 C 1,6 km/h (1 Bft)
10.10.2016 20:43 4,2 C 4,2 C 92 % 1020,3 hPa 0,0 mm 0,7 km/h (0 Bft) NO 42 0 min 0,000 mm 0,0 UV-I 0 W/m 3,0 C 1,6 km/h (1 Bft)
10.10.2016 20:44 4,3 C 4,3 C 92 % 1020,3 hPa 0,0 mm 0,8 km/h (0 Bft) NO 42 0 min 0,000 mm 0,0 UV-I 0 W/m 3,1 C 1,6 km/h (1 Bft)
10.10.2016 20:45 4,3 C 4,3 C 92 % 1020,3 hPa 0,0 mm 0,1 km/h (0 Bft) NO 42 0 min 0,000 mm 0,0 UV-I 0 W/m 3,1 C 1,6 km/h (1 Bft)
10.10.2016 20:46 4,3 C 4,3 C 92 % 1020,3 hPa 0,0 mm 0,9 km/h (0 Bft) NO 42 0 min 0,000 mm 0,0 UV-I 0 W/m 3,1 C 1,6 km/h (1 Bft)
10.10.2016 20:47 4,3 C 4,3 C 92 % 1020,3 hPa 0,0 mm 1,3 km/h (1 Bft) NO 42 0 min 0,000 mm 0,0 UV-I 0 W/m 3,1 C 3,2 km/h (1 Bft)
10.10.2016 20:48 4,3 C 4,3 C 92 % 1020,3 hPa 0,0 mm 1,4 km/h (1 Bft) NO 42 0 min 0,000 mm 0,0 UV-I 0 W/m 3,1 C 3,2 km/h (1 Bft)
10.10.2016 20:49 4,3 C 4,3 C 92 % 1020,3 hPa 0,0 mm 0,6 km/h (0 Bft) NO 42 0 min 0,000 mm 0,0 UV-I 0 W/m 3,1 C 1,6 km/h (1 Bft)
10.10.2016 20:50 4,3 C 4,3 C 92 % 1020,3 hPa 0,0 mm 0,0 km/h (0 Bft) NO 42 0 min 0,000 mm 0,0 UV-I 0 W/m 3,1 C 0,0 km/h (0 Bft)
10.10.2016 20:51 4,3 C 4,3 C 92 % 1020,3 hPa 0,0 mm 0,2 km/h (0 Bft) NO 42 0 min 0,000 mm 0,0 UV-I 0 W/m 3,1 C 1,6 km/h (1 Bft)
10.10.2016 20:52 4,3 C 4,3 C 92 % 1020,3 hPa 0,0 mm 1,0 km/h (0 Bft) NO 42 0 min 0,000 mm 0,0 UV-I 0 W/m 3,1 C 1,6 km/h (1 Bft)
10.10.2016 20:53 4,3 C 4,3 C 92 % 1020,3 hPa 0,0 mm 0,4 km/h (0 Bft) NO 42 0 min 0,000 mm 0,0 UV-I 0 W/m 3,1 C 1,6 km/h (1 Bft)
10.10.2016 20:54 4,3 C 4,3 C 92 % 1020,3 hPa 0,0 mm 2,0 km/h (1 Bft) NO 42 0 min 0,000 mm 0,0 UV-I 0 W/m 3,1 C 3,2 km/h (1 Bft)
10.10.2016 20:55 4,3 C 4,3 C 92 % 1020,3 hPa 0,0 mm 2,7 km/h (1 Bft) NO 42 0 min 0,000 mm 0,0 UV-I 0 W/m 3,1 C 4,8 km/h (1 Bft)
10.10.2016 20:56 4,3 C 4,3 C 92 % 1020,3 hPa 0,0 mm 0,3 km/h (0 Bft) NO 42 0 min 0,000 mm 0,0 UV-I 0 W/m 3,1 C 1,6 km/h (1 Bft)
10.10.2016 20:57 4,3 C 4,3 C 92 % 1020,3 hPa 0,0 mm 0,8 km/h (0 Bft) NO 42 0 min 0,000 mm 0,0 UV-I 0 W/m 3,1 C 1,6 km/h (1 Bft)
10.10.2016 20:58 4,3 C 4,3 C 92 % 1020,4 hPa 0,0 mm 2,0 km/h (1 Bft) NO 42 0 min 0,000 mm 0,0 UV-I 0 W/m 3,1 C 4,8 km/h (1 Bft)
10.10.2016 20:59 4,3 C 4,3 C 92 % 1020,3 hPa 0,0 mm 1,7 km/h (1 Bft) NO 42 0 min 0,000 mm 0,0 UV-I 0 W/m 3,1 C 3,2 km/h (1 Bft)
10.10.2016 21:00 4,3 C 4,3 C 92 % 1020,3 hPa 0,0 mm 1,7 km/h (1 Bft) NO 42 0 min 0,000 mm 0,0 UV-I 0 W/m 3,1 C 3,2 km/h (1 Bft)
10.10.2016 21:01 4,3 C 4,3 C 92 % 1020,3 hPa 0,0 mm 2,8 km/h (1 Bft) NO 42 0 min 0,000 mm 0,0 UV-I 0 W/m 3,1 C 4,8 km/h (1 Bft)
10.10.2016 21:02 4,3 C 4,3 C 92 % 1020,4 hPa 0,0 mm 1,3 km/h (1 Bft) NO 42 0 min 0,000 mm 0,0 UV-I 0 W/m 3,1 C 3,2 km/h (1 Bft)
10.10.2016 21:03 4,3 C 4,3 C 92 % 1020,4 hPa 0,0 mm 0,7 km/h (0 Bft) NO 42 0 min 0,000 mm 0,0 UV-I 0 W/m 3,1 C 1,6 km/h (1 Bft)
10.10.2016 21:04 4,3 C 4,3 C 92 % 1020,4 hPa 0,0 mm 1,6 km/h (1 Bft) NO 42 0 min 0,000 mm 0,0 UV-I 0 W/m 3,1 C 3,2 km/h (1 Bft)
10.10.2016 21:05 4,3 C 4,3 C 92 % 1020,4 hPa 0,0 mm 1,8 km/h (1 Bft) NO 39 0 min 0,000 mm 0,0 UV-I 0 W/m 3,1 C 4,8 km/h (1 Bft)
10.10.2016 21:06 4,3 C 4,3 C 92 % 1020,4 hPa 0,0 mm 2,0 km/h (1 Bft) NO 38 0 min 0,000 mm 0,0 UV-I 0 W/m 3,1 C 3,2 km/h (1 Bft)
10.10.2016 21:07 4,3 C 4,3 C 92 % 1020,4 hPa 0,0 mm 2,2 km/h (1 Bft) NO 38 0 min 0,000 mm 0,0 UV-I 0 W/m 3,1 C 3,2 km/h (1 Bft)
10.10.2016 21:09 4,3 C 4,3 C 92 % 1020,4 hPa 0,0 mm 1,2 km/h (1 Bft) NO 39 0 min 0,000 mm 0,0 UV-I 0 W/m 3,1 C 3,2 km/h (1 Bft)
10.10.2016 21:10 4,3 C 4,3 C 92 % 1020,4 hPa 0,0 mm 2,3 km/h (1 Bft) NO 38 0 min 0,000 mm 0,0 UV-I 0 W/m 3,1 C 3,2 km/h (1 Bft)
10.10.2016 21:11 4,3 C 4,3 C 92 % 1020,4 hPa 0,0 mm 1,8 km/h (1 Bft) NO 39 0 min 0,000 mm 0,0 UV-I 0 W/m 3,1 C 3,2 km/h (1 Bft)
10.10.2016 21:12 4,2 C 4,3 C 92 % 1020,4 hPa 0,0 mm 1,5 km/h (1 Bft) NO 38 0 min 0,000 mm 0,0 UV-I 0 W/m 3,0 C 3,2 km/h (1 Bft)
10.10.2016 21:13 4,2 C 4,2 C 92 % 1020,4 hPa 0,0 mm 0,9 km/h (0 Bft) NO 38 0 min 0,000 mm 0,0 UV-I 0 W/m 3,0 C 1,6 km/h (1 Bft)
10.10.2016 21:14 4,2 C 4,2 C 92 % 1020,4 hPa 0,0 mm 1,2 km/h (1 Bft) NO 38 0 min 0,000 mm 0,0 UV-I 0 W/m 3,0 C 1,6 km/h (1 Bft)
10.10.2016 21:15 4,2 C 4,2 C 92 % 1020,4 hPa 0,0 mm 0,9 km/h (0 Bft) NO 38 0 min 0,000 mm 0,0 UV-I 0 W/m 3,0 C 1,6 km/h (1 Bft)
10.10.2016 21:16 4,2 C 4,2 C 92 % 1020,3 hPa 0,0 mm 0,4 km/h (0 Bft) NO 38 0 min 0,000 mm 0,0 UV-I 0 W/m 3,0 C 1,6 km/h (1 Bft)
10.10.2016 21:17 4,2 C 4,2 C 92 % 1020,3 hPa 0,0 mm 0,1 km/h (0 Bft) NO 38 0 min 0,000 mm 0,0 UV-I 0 W/m 3,0 C 1,6 km/h (1 Bft)
10.10.2016 21:18 4,2 C 4,2 C 92 % 1020,3 hPa 0,0 mm 0,6 km/h (0 Bft) NO 38 0 min 0,000 mm 0,0 UV-I 0 W/m 3,0 C 1,6 km/h (1 Bft)
10.10.2016 21:19 4,2 C 4,2 C 92 % 1020,3 hPa 0,0 mm 0,0 km/h (0 Bft) NO 38 0 min 0,000 mm 0,0 UV-I 0 W/m 3,0 C 0,0 km/h (0 Bft)
10.10.2016 21:20 4,2 C 4,2 C 92 % 1020,3 hPa 0,0 mm 0,0 km/h (0 Bft) NO 38 0 min 0,000 mm 0,0 UV-I 0 W/m 3,0 C 0,0 km/h (0 Bft)
10.10.2016 21:21 4,2 C 4,2 C 93 % 1020,4 hPa 0,0 mm 0,1 km/h (0 Bft) NO 38 0 min 0,000 mm 0,0 UV-I 0 W/m 3,2 C 1,6 km/h (1 Bft)
10.10.2016 21:22 4,2 C 4,2 C 93 % 1020,3 hPa 0,0 mm 0,0 km/h (0 Bft) NO 38 0 min 0,000 mm 0,0 UV-I 0 W/m 3,2 C 0,0 km/h (0 Bft)
10.10.2016 21:23 4,2 C 4,2 C 93 % 1020,3 hPa 0,0 mm 0,0 km/h (0 Bft) NO 38 0 min 0,000 mm 0,0 UV-I 0 W/m 3,2 C 0,0 km/h (0 Bft)
10.10.2016 21:24 4,1 C 4,2 C 93 % 1020,3 hPa 0,0 mm 0,0 km/h (0 Bft) NO 38 0 min 0,000 mm 0,0 UV-I 0 W/m 3,1 C 0,0 km/h (0 Bft)
10.10.2016 21:25 4,1 C 4,2 C 93 % 1020,3 hPa 0,0 mm 0,1 km/h (0 Bft) NO 38 0 min 0,000 mm 0,0 UV-I 0 W/m 3,1 C 1,6 km/h (1 Bft)
10.10.2016 21:26 4,1 C 4,1 C 93 % 1020,3 hPa 0,0 mm 0,0 km/h (0 Bft) NO 38 0 min 0,000 mm 0,0 UV-I 0 W/m 3,1 C 0,0 km/h (0 Bft)
10.10.2016 21:27 4,1 C 4,1 C 93 % 1020,3 hPa 0,0 mm 0,0 km/h (0 Bft) NO 38 0 min 0,000 mm 0,0 UV-I 0 W/m 3,1 C 0,0 km/h (0 Bft)
10.10.2016 21:28 4,1 C 4,1 C 93 % 1020,3 hPa 0,0 mm 0,0 km/h (0 Bft) NO 38 0 min 0,000 mm 0,0 UV-I 0 W/m 3,1 C 0,0 km/h (0 Bft)
10.10.2016 21:29 4,1 C 4,1 C 93 % 1020,2 hPa 0,0 mm 0,0 km/h (0 Bft) NO 38 0 min 0,000 mm 0,0 UV-I 0 W/m 3,1 C 0,0 km/h (0 Bft)
10.10.2016 21:30 4,1 C 4,1 C 93 % 1020,3 hPa 0,0 mm 0,0 km/h (0 Bft) NO 38 0 min 0,000 mm 0,0 UV-I 0 W/m 3,1 C 0,0 km/h (0 Bft)
10.10.2016 21:31 4,1 C 4,1 C 93 % 1020,3 hPa 0,0 mm 0,1 km/h (0 Bft) NO 38 0 min 0,000 mm 0,0 UV-I 0 W/m 3,1 C 1,6 km/h (1 Bft)
10.10.2016 21:32 4,1 C 4,1 C 93 % 1020,2 hPa 0,0 mm 0,0 km/h (0 Bft) NO 38 0 min 0,000 mm 0,0 UV-I 0 W/m 3,1 C 0,0 km/h (0 Bft)
10.10.2016 21:33 4,1 C 4,1 C 93 % 1020,3 hPa 0,0 mm 0,4 km/h (0 Bft) NO 38 0 min 0,000 mm 0,0 UV-I 0 W/m 3,1 C 1,6 km/h (1 Bft)
10.10.2016 21:34 4,1 C 4,1 C 93 % 1020,3 hPa 0,0 mm 0,0 km/h (0 Bft) NO 38 0 min 0,000 mm 0,0 UV-I 0 W/m 3,1 C 0,0 km/h (0 Bft)
10.10.2016 21:35 4,1 C 4,1 C 93 % 1020,3 hPa 0,0 mm 0,0 km/h (0 Bft) NO 38 0 min 0,000 mm 0,0 UV-I 0 W/m 3,1 C 0,0 km/h (0 Bft)
10.10.2016 21:36 4,1 C 4,1 C 93 % 1020,3 hPa 0,0 mm 0,0 km/h (0 Bft) NO 38 0 min 0,000 mm 0,0 UV-I 0 W/m 3,1 C 0,0 km/h (0 Bft)
10.10.2016 21:37 4,1 C 4,1 C 93 % 1020,2 hPa 0,0 mm 0,0 km/h (0 Bft) NO 38 0 min 0,000 mm 0,0 UV-I 0 W/m 3,1 C 0,0 km/h (0 Bft)
10.10.2016 21:38 4,1 C 4,1 C 93 % 1020,3 hPa 0,0 mm 0,0 km/h (0 Bft) NO 38 0 min 0,000 mm 0,0 UV-I 0 W/m 3,1 C 0,0 km/h (0 Bft)
10.10.2016 21:39 4,1 C 4,1 C 93 % 1020,3 hPa 0,0 mm 0,0 km/h (0 Bft) NO 38 0 min 0,000 mm 0,0 UV-I 0 W/m 3,1 C 0,0 km/h (0 Bft)
10.10.2016 21:40 4,1 C 4,1 C 93 % 1020,3 hPa 0,0 mm 0,0 km/h (0 Bft) NO 38 0 min 0,000 mm 0,0 UV-I 0 W/m 3,1 C 0,0 km/h (0 Bft)
10.10.2016 21:41 4,1 C 4,1 C 93 % 1020,2 hPa 0,0 mm 0,0 km/h (0 Bft) NO 39 0 min 0,000 mm 0,0 UV-I 0 W/m 3,1 C 0,0 km/h (0 Bft)
10.10.2016 21:42 4,1 C 4,1 C 93 % 1020,2 hPa 0,0 mm 0,0 km/h (0 Bft) NO 38 0 min 0,000 mm 0,0 UV-I 0 W/m 3,1 C 0,0 km/h (0 Bft)
10.10.2016 21:43 4,0 C 4,1 C 93 % 1020,2 hPa 0,0 mm 0,0 km/h (0 Bft) NO 38 0 min 0,000 mm 0,0 UV-I 0 W/m 3,0 C 0,0 km/h (0 Bft)
10.10.2016 21:44 4,1 C 4,1 C 93 % 1020,2 hPa 0,0 mm 0,0 km/h (0 Bft) NO 38 0 min 0,000 mm 0,0 UV-I 0 W/m 3,1 C 0,0 km/h (0 Bft)
10.10.2016 21:45 4,1 C 4,1 C 93 % 1020,2 hPa 0,0 mm 0,0 km/h (0 Bft) NO 39 0 min 0,000 mm 0,0 UV-I 0 W/m 3,1 C 0,0 km/h (0 Bft)
10.10.2016 21:46 4,1 C 4,1 C 93 % 1020,2 hPa 0,0 mm 0,0 km/h (0 Bft) NO 39 0 min 0,000 mm 0,0 UV-I 0 W/m 3,1 C 0,0 km/h (0 Bft)
10.10.2016 21:47 4,1 C 4,1 C 93 % 1020,2 hPa 0,0 mm 0,0 km/h (0 Bft) NO 38 0 min 0,000 mm 0,0 UV-I 0 W/m 3,1 C 0,0 km/h (0 Bft)
10.10.2016 21:48 4,1 C 4,1 C 93 % 1020,2 hPa 0,0 mm 0,0 km/h (0 Bft) NO 38 0 min 0,000 mm 0,0 UV-I 0 W/m 3,1 C 0,0 km/h (0 Bft)
10.10.2016 21:49 4,1 C 4,1 C 93 % 1020,2 hPa 0,0 mm 0,0 km/h (0 Bft) NO 38 0 min 0,000 mm 0,0 UV-I 0 W/m 3,1 C 0,0 km/h (0 Bft)
10.10.2016 21:50 4,1 C 4,1 C 93 % 1020,1 hPa 0,0 mm 0,0 km/h (0 Bft) NO 38 0 min 0,000 mm 0,0 UV-I 0 W/m 3,1 C 0,0 km/h (0 Bft)
10.10.2016 21:51 4,1 C 4,1 C 93 % 1020,2 hPa 0,0 mm 0,0 km/h (0 Bft) NO 39 0 min 0,000 mm 0,0 UV-I 0 W/m 3,1 C 0,0 km/h (0 Bft)
10.10.2016 21:52 4,1 C 4,1 C 93 % 1020,2 hPa 0,0 mm 0,0 km/h (0 Bft) NO 38 0 min 0,000 mm 0,0 UV-I 0 W/m 3,1 C 0,0 km/h (0 Bft)
10.10.2016 21:53 4,2 C 4,2 C 93 % 1020,2 hPa 0,0 mm 0,0 km/h (0 Bft) NO 39 0 min 0,000 mm 0,0 UV-I 0 W/m 3,2 C 0,0 km/h (0 Bft)
10.10.2016 21:54 4,1 C 4,2 C 93 % 1020,2 hPa 0,0 mm 0,0 km/h (0 Bft) NO 38 0 min 0,000 mm 0,0 UV-I 0 W/m 3,1 C 0,0 km/h (0 Bft)
10.10.2016 21:55 4,2 C 4,2 C 93 % 1020,1 hPa 0,0 mm 0,0 km/h (0 Bft) NO 38 0 min 0,000 mm 0,0 UV-I 0 W/m 3,2 C 0,0 km/h (0 Bft)
10.10.2016 21:56 4,2 C 4,2 C 93 % 1020,2 hPa 0,0 mm 0,0 km/h (0 Bft) NO 38 0 min 0,000 mm 0,0 UV-I 0 W/m 3,2 C 0,0 km/h (0 Bft)
10.10.2016 21:57 4,2 C 4,2 C 93 % 1020,2 hPa 0,0 mm 0,0 km/h (0 Bft) NO 38 0 min 0,000 mm 0,0 UV-I 0 W/m 3,2 C 0,0 km/h (0 Bft)
10.10.2016 21:58 4,2 C 4,2 C 93 % 1020,2 hPa 0,0 mm 0,0 km/h (0 Bft) NO 38 0 min 0,000 mm 0,0 UV-I 0 W/m 3,2 C 0,0 km/h (0 Bft)
10.10.2016 21:59 4,1 C 4,2 C 93 % 1020,1 hPa 0,0 mm 0,0 km/h (0 Bft) NO 38 0 min 0,000 mm 0,0 UV-I 0 W/m 3,1 C 0,0 km/h (0 Bft)
10.10.2016 22:00 4,2 C 4,2 C 93 % 1020,1 hPa 0,0 mm 0,0 km/h (0 Bft) NO 39 0 min 0,000 mm 0,0 UV-I 0 W/m 3,2 C 0,0 km/h (0 Bft)
10.10.2016 22:01 4,1 C 4,2 C 93 % 1020,1 hPa 0,0 mm 0,0 km/h (0 Bft) NO 38 0 min 0,000 mm 0,0 UV-I 0 W/m 3,1 C 0,0 km/h (0 Bft)
10.10.2016 22:02 4,1 C 4,2 C 93 % 1020,2 hPa 0,0 mm 0,0 km/h (0 Bft) NO 38 0 min 0,000 mm 0,0 UV-I 0 W/m 3,1 C 0,0 km/h (0 Bft)
10.10.2016 22:03 4,1 C 4,1 C 93 % 1020,1 hPa 0,0 mm 0,0 km/h (0 Bft) NO 38 0 min 0,000 mm 0,0 UV-I 0 W/m 3,1 C 0,0 km/h (0 Bft)
10.10.2016 22:04 4,1 C 4,1 C 93 % 1020,1 hPa 0,0 mm 0,0 km/h (0 Bft) NO 38 0 min 0,000 mm 0,0 UV-I 0 W/m 3,1 C 0,0 km/h (0 Bft)
10.10.2016 22:05 4,1 C 4,2 C 93 % 1020,1 hPa 0,0 mm 0,0 km/h (0 Bft) NO 38 0 min 0,000 mm 0,0 UV-I 0 W/m 3,1 C 0,0 km/h (0 Bft)
10.10.2016 22:06 4,1 C 4,1 C 93 % 1020,1 hPa 0,0 mm 0,0 km/h (0 Bft) NO 38 0 min 0,000 mm 0,0 UV-I 0 W/m 3,1 C 0,0 km/h (0 Bft)
10.10.2016 22:07 4,1 C 4,1 C 93 % 1020,1 hPa 0,0 mm 0,0 km/h (0 Bft) NO 38 0 min 0,000 mm 0,0 UV-I 0 W/m 3,1 C 0,0 km/h (0 Bft)
10.10.2016 22:08 4,1 C 4,2 C 93 % 1020,1 hPa 0,0 mm 0,0 km/h (0 Bft) NO 38 0 min 0,000 mm 0,0 UV-I 0 W/m 3,1 C 0,0 km/h (0 Bft)
10.10.2016 22:09 4,1 C 4,1 C 93 % 1020,1 hPa 0,0 mm 0,0 km/h (0 Bft) NO 38 0 min 0,000 mm 0,0 UV-I 0 W/m 3,1 C 0,0 km/h (0 Bft)
10.10.2016 22:10 4,1 C 4,1 C 93 % 1020,1 hPa 0,0 mm 0,0 km/h (0 Bft) NO 38 0 min 0,000 mm 0,0 UV-I 0 W/m 3,1 C 0,0 km/h (0 Bft)
10.10.2016 22:11 4,2 C 4,2 C 93 % 1020,1 hPa 0,0 mm 0,0 km/h (0 Bft) NO 39 0 min 0,000 mm 0,0 UV-I 0 W/m 3,2 C 0,0 km/h (0 Bft)
10.10.2016 22:12 4,2 C 4,2 C 93 % 1020,1 hPa 0,0 mm 0,0 km/h (0 Bft) NO 38 0 min 0,000 mm 0,0 UV-I 0 W/m 3,2 C 0,0 km/h (0 Bft)
10.10.2016 22:13 4,2 C 4,2 C 93 % 1020,1 hPa 0,0 mm 0,0 km/h (0 Bft) NO 38 0 min 0,000 mm 0,0 UV-I 0 W/m 3,2 C 0,0 km/h (0 Bft)
10.10.2016 22:14 4,1 C 4,2 C 93 % 1020,1 hPa 0,0 mm 0,0 km/h (0 Bft) NO 39 0 min 0,000 mm 0,0 UV-I 0 W/m 3,1 C 0,0 km/h (0 Bft)
10.10.2016 22:15 4,2 C 4,2 C 93 % 1020,0 hPa 0,0 mm 0,0 km/h (0 Bft) NO 38 0 min 0,000 mm 0,0 UV-I 0 W/m 3,2 C 0,0 km/h (0 Bft)
10.10.2016 22:16 4,2 C 4,2 C 93 % 1020,0 hPa 0,0 mm 0,0 km/h (0 Bft) NO 38 0 min 0,000 mm 0,0 UV-I 0 W/m 3,2 C 0,0 km/h (0 Bft)
10.10.2016 22:17 4,2 C 4,2 C 94 % 1020,1 hPa 0,0 mm 0,0 km/h (0 Bft) NO 38 0 min 0,000 mm 0,0 UV-I 0 W/m 3,3 C 0,0 km/h (0 Bft)
10.10.2016 22:18 4,2 C 4,2 C 93 % 1020,0 hPa 0,0 mm 0,0 km/h (0 Bft) NO 39 0 min 0,000 mm 0,0 UV-I 0 W/m 3,2 C 0,0 km/h (0 Bft)
10.10.2016 22:19 4,2 C 4,2 C 93 % 1020,1 hPa 0,0 mm 0,0 km/h (0 Bft) NO 38 0 min 0,000 mm 0,0 UV-I 0 W/m 3,2 C 0,0 km/h (0 Bft)
10.10.2016 22:20 4,2 C 4,2 C 93 % 1020,1 hPa 0,0 mm 0,0 km/h (0 Bft) NO 38 0 min 0,000 mm 0,0 UV-I 0 W/m 3,2 C 0,0 km/h (0 Bft)
10.10.2016 22:21 4,2 C 4,2 C 93 % 1020,1 hPa 0,0 mm 0,0 km/h (0 Bft) NO 38 0 min 0,000 mm 0,0 UV-I 0 W/m 3,2 C 0,0 km/h (0 Bft)
10.10.2016 22:22 4,2 C 4,2 C 93 % 1020,1 hPa 0,0 mm 0,0 km/h (0 Bft) NO 38 0 min 0,000 mm 0,0 UV-I 0 W/m 3,2 C 0,0 km/h (0 Bft)
10.10.2016 22:23 4,2 C 4,2 C 93 % 1020,1 hPa 0,0 mm 0,0 km/h (0 Bft) NO 38 0 min 0,000 mm 0,0 UV-I 0 W/m 3,2 C 0,0 km/h (0 Bft)
10.10.2016 22:24 4,2 C 4,2 C 94 % 1020,0 hPa 0,0 mm 0,0 km/h (0 Bft) NO 39 0 min 0,000 mm 0,0 UV-I 0 W/m 3,3 C 0,0 km/h (0 Bft)
10.10.2016 22:25 4,2 C 4,2 C 94 % 1020,1 hPa 0,0 mm 0,0 km/h (0 Bft) NO 38 0 min 0,000 mm 0,0 UV-I 0 W/m 3,3 C 0,0 km/h (0 Bft)
10.10.2016 22:26 4,2 C 4,2 C 93 % 1020,1 hPa 0,0 mm 0,0 km/h (0 Bft) NO 38 0 min 0,000 mm 0,0 UV-I 0 W/m 3,2 C 0,0 km/h (0 Bft)
10.10.2016 22:27 4,2 C 4,2 C 94 % 1020,1 hPa 0,0 mm 0,0 km/h (0 Bft) NO 38 0 min 0,000 mm 0,0 UV-I 0 W/m 3,3 C 0,0 km/h (0 Bft)
10.10.2016 22:28 4,2 C 4,2 C 94 % 1020,0 hPa 0,0 mm 0,0 km/h (0 Bft) NO 38 0 min 0,000 mm 0,0 UV-I 0 W/m 3,3 C 0,0 km/h (0 Bft)
10.10.2016 22:29 4,2 C 4,2 C 93 % 1020,0 hPa 0,0 mm 0,0 km/h (0 Bft) NO 38 0 min 0,000 mm 0,0 UV-I 0 W/m 3,2 C 0,0 km/h (0 Bft)
10.10.2016 22:30 4,2 C 4,2 C 94 % 1020,0 hPa 0,0 mm 0,0 km/h (0 Bft) NO 38 0 min 0,000 mm 0,0 UV-I 0 W/m 3,3 C 0,0 km/h (0 Bft)
10.10.2016 22:31 4,2 C 4,2 C 93 % 1020,0 hPa 0,0 mm 0,0 km/h (0 Bft) NO 38 0 min 0,000 mm 0,0 UV-I 0 W/m 3,2 C 0,0 km/h (0 Bft)
10.10.2016 22:32 4,2 C 4,2 C 93 % 1019,9 hPa 0,0 mm 0,0 km/h (0 Bft) NO 38 0 min 0,000 mm 0,0 UV-I 0 W/m 3,2 C 0,0 km/h (0 Bft)
10.10.2016 22:33 4,2 C 4,2 C 94 % 1020,0 hPa 0,0 mm 0,0 km/h (0 Bft) NO 38 0 min 0,000 mm 0,0 UV-I 0 W/m 3,3 C 0,0 km/h (0 Bft)
10.10.2016 22:34 4,2 C 4,2 C 93 % 1019,9 hPa 0,0 mm 0,0 km/h (0 Bft) NO 39 0 min 0,000 mm 0,0 UV-I 0 W/m 3,2 C 0,0 km/h (0 Bft)
10.10.2016 22:35 4,2 C 4,2 C 93 % 1020,0 hPa 0,0 mm 0,0 km/h (0 Bft) NO 38 0 min 0,000 mm 0,0 UV-I 0 W/m 3,2 C 0,0 km/h (0 Bft)
10.10.2016 22:36 4,2 C 4,2 C 94 % 1019,9 hPa 0,0 mm 0,0 km/h (0 Bft) NO 38 0 min 0,000 mm 0,0 UV-I 0 W/m 3,3 C 0,0 km/h (0 Bft)
10.10.2016 22:37 4,2 C 4,2 C 94 % 1019,9 hPa 0,0 mm 0,0 km/h (0 Bft) NO 38 0 min 0,000 mm 0,0 UV-I 0 W/m 3,3 C 0,0 km/h (0 Bft)
10.10.2016 22:38 4,2 C 4,2 C 94 % 1019,9 hPa 0,0 mm 0,0 km/h (0 Bft) NO 38 0 min 0,000 mm 0,0 UV-I 0 W/m 3,3 C 0,0 km/h (0 Bft)
10.10.2016 22:39 4,2 C 4,2 C 94 % 1020,0 hPa 0,0 mm 0,0 km/h (0 Bft) NO 38 0 min 0,000 mm 0,0 UV-I 0 W/m 3,3 C 0,0 km/h (0 Bft)
10.10.2016 22:40 4,2 C 4,2 C 94 % 1020,0 hPa 0,0 mm 0,0 km/h (0 Bft) NO 38 0 min 0,000 mm 0,0 UV-I 0 W/m 3,3 C 0,0 km/h (0 Bft)
10.10.2016 22:41 4,2 C 4,2 C 94 % 1019,9 hPa 0,0 mm 0,0 km/h (0 Bft) NO 38 0 min 0,000 mm 0,0 UV-I 0 W/m 3,3 C 0,0 km/h (0 Bft)
10.10.2016 22:42 4,2 C 4,2 C 93 % 1019,9 hPa 0,0 mm 0,0 km/h (0 Bft) NO 38 0 min 0,000 mm 0,0 UV-I 0 W/m 3,2 C 0,0 km/h (0 Bft)
10.10.2016 22:43 4,2 C 4,2 C 93 % 1019,9 hPa 0,0 mm 0,0 km/h (0 Bft) NO 39 0 min 0,000 mm 0,0 UV-I 0 W/m 3,2 C 0,0 km/h (0 Bft)
10.10.2016 22:44 4,2 C 4,2 C 93 % 1019,9 hPa 0,0 mm 0,0 km/h (0 Bft) NO 39 0 min 0,000 mm 0,0 UV-I 0 W/m 3,2 C 0,0 km/h (0 Bft)
10.10.2016 22:45 4,2 C 4,2 C 93 % 1020,0 hPa 0,0 mm 0,0 km/h (0 Bft) NO 38 0 min 0,000 mm 0,0 UV-I 0 W/m 3,2 C 0,0 km/h (0 Bft)
10.10.2016 22:46 4,2 C 4,2 C 93 % 1019,9 hPa 0,0 mm 0,0 km/h (0 Bft) NO 38 0 min 0,000 mm 0,0 UV-I 0 W/m 3,2 C 0,0 km/h (0 Bft)
10.10.2016 22:47 4,2 C 4,2 C 93 % 1020,0 hPa 0,0 mm 0,0 km/h (0 Bft) NO 38 0 min 0,000 mm 0,0 UV-I 0 W/m 3,2 C 0,0 km/h (0 Bft)
10.10.2016 22:48 4,2 C 4,2 C 93 % 1020,0 hPa 0,0 mm 0,0 km/h (0 Bft) NO 38 0 min 0,000 mm 0,0 UV-I 0 W/m 3,2 C 0,0 km/h (0 Bft)
10.10.2016 22:49 4,2 C 4,2 C 93 % 1019,9 hPa 0,0 mm 0,0 km/h (0 Bft) NO 39 0 min 0,000 mm 0,0 UV-I 0 W/m 3,2 C 0,0 km/h (0 Bft)
10.10.2016 22:50 4,2 C 4,2 C 93 % 1020,0 hPa 0,0 mm 0,0 km/h (0 Bft) NO 38 0 min 0,000 mm 0,0 UV-I 0 W/m 3,2 C 0,0 km/h (0 Bft)
10.10.2016 22:51 4,2 C 4,2 C 93 % 1019,9 hPa 0,0 mm 0,0 km/h (0 Bft) NO 38 0 min 0,000 mm 0,0 UV-I 0 W/m 3,2 C 0,0 km/h (0 Bft)
10.10.2016 22:52 4,2 C 4,2 C 93 % 1019,9 hPa 0,0 mm 0,0 km/h (0 Bft) NO 38 0 min 0,000 mm 0,0 UV-I 0 W/m 3,2 C 0,0 km/h (0 Bft)
10.10.2016 22:53 4,2 C 4,2 C 93 % 1019,9 hPa 0,0 mm 0,0 km/h (0 Bft) NO 38 0 min 0,000 mm 0,0 UV-I 0 W/m 3,2 C 0,0 km/h (0 Bft)
10.10.2016 22:54 4,2 C 4,2 C 93 % 1019,9 hPa 0,0 mm 0,0 km/h (0 Bft) NO 39 0 min 0,000 mm 0,0 UV-I 0 W/m 3,2 C 0,0 km/h (0 Bft)
10.10.2016 22:55 4,2 C 4,2 C 93 % 1019,9 hPa 0,0 mm 0,0 km/h (0 Bft) NO 39 0 min 0,000 mm 0,0 UV-I 0 W/m 3,2 C 0,0 km/h (0 Bft)
10.10.2016 22:56 4,2 C 4,2 C 93 % 1019,9 hPa 0,0 mm 0,0 km/h (0 Bft) NO 39 0 min 0,000 mm 0,0 UV-I 0 W/m 3,2 C 0,0 km/h (0 Bft)
10.10.2016 22:57 4,2 C 4,2 C 93 % 1019,9 hPa 0,0 mm 0,0 km/h (0 Bft) NO 39 0 min 0,000 mm 0,0 UV-I 0 W/m 3,2 C 0,0 km/h (0 Bft)
10.10.2016 22:58 4,2 C 4,2 C 93 % 1019,9 hPa 0,0 mm 0,0 km/h (0 Bft) NO 39 0 min 0,000 mm 0,0 UV-I 0 W/m 3,2 C 0,0 km/h (0 Bft)
10.10.2016 22:59 4,2 C 4,2 C 93 % 1019,9 hPa 0,0 mm 0,0 km/h (0 Bft) NO 38 0 min 0,000 mm 0,0 UV-I 0 W/m 3,2 C 0,0 km/h (0 Bft)
10.10.2016 23:00 4,2 C 4,2 C 93 % 1019,9 hPa 0,0 mm 0,0 km/h (0 Bft) NO 38 0 min 0,000 mm 0,0 UV-I 0 W/m 3,2 C 0,0 km/h (0 Bft)
10.10.2016 23:01 4,2 C 4,2 C 93 % 1019,9 hPa 0,0 mm 0,0 km/h (0 Bft) NO 38 0 min 0,000 mm 0,0 UV-I 0 W/m 3,2 C 0,0 km/h (0 Bft)
10.10.2016 23:02 4,3 C 4,3 C 93 % 1019,8 hPa 0,0 mm 0,0 km/h (0 Bft) NO 38 0 min 0,000 mm 0,0 UV-I 0 W/m 3,3 C 0,0 km/h (0 Bft)
10.10.2016 23:03 4,2 C 4,3 C 93 % 1019,9 hPa 0,0 mm 0,0 km/h (0 Bft) NO 38 0 min 0,000 mm 0,0 UV-I 0 W/m 3,2 C 0,0 km/h (0 Bft)
10.10.2016 23:04 4,2 C 4,3 C 93 % 1019,9 hPa 0,0 mm 1,2 km/h (1 Bft) NO 40 0 min 0,000 mm 0,0 UV-I 0 W/m 3,2 C 3,2 km/h (1 Bft)
10.10.2016 23:05 4,3 C 4,3 C 93 % 1019,9 hPa 0,0 mm 2,3 km/h (1 Bft) NO 40 0 min 0,000 mm 0,0 UV-I 0 W/m 3,3 C 3,2 km/h (1 Bft)
10.10.2016 23:06 4,2 C 4,3 C 93 % 1019,8 hPa 0,0 mm 1,7 km/h (1 Bft) NO 40 0 min 0,000 mm 0,0 UV-I 0 W/m 3,2 C 3,2 km/h (1 Bft)
10.10.2016 23:07 4,2 C 4,3 C 93 % 1019,8 hPa 0,0 mm 0,7 km/h (0 Bft) NO 40 0 min 0,000 mm 0,0 UV-I 0 W/m 3,2 C 1,6 km/h (1 Bft)
10.10.2016 23:08 4,2 C 4,2 C 93 % 1019,8 hPa 0,0 mm 0,9 km/h (0 Bft) NO 40 0 min 0,000 mm 0,0 UV-I 0 W/m 3,2 C 1,6 km/h (1 Bft)
10.10.2016 23:09 4,2 C 4,2 C 93 % 1019,8 hPa 0,0 mm 2,0 km/h (1 Bft) NO 40 0 min 0,000 mm 0,0 UV-I 0 W/m 3,2 C 3,2 km/h (1 Bft)
10.10.2016 23:10 4,2 C 4,2 C 93 % 1019,9 hPa 0,0 mm 0,9 km/h (0 Bft) NO 40 0 min 0,000 mm 0,0 UV-I 0 W/m 3,2 C 3,2 km/h (1 Bft)
10.10.2016 23:11 4,2 C 4,3 C 93 % 1019,9 hPa 0,0 mm 0,0 km/h (0 Bft) NO 40 0 min 0,000 mm 0,0 UV-I 0 W/m 3,2 C 0,0 km/h (0 Bft)
10.10.2016 23:12 4,2 C 4,2 C 93 % 1019,9 hPa 0,0 mm 0,0 km/h (0 Bft) NO 40 0 min 0,000 mm 0,0 UV-I 0 W/m 3,2 C 0,0 km/h (0 Bft)
10.10.2016 23:13 4,2 C 4,2 C 92 % 1019,9 hPa 0,0 mm 0,1 km/h (0 Bft) NO 40 0 min 0,000 mm 0,0 UV-I 0 W/m 3,0 C 1,6 km/h (1 Bft)
10.10.2016 23:14 4,2 C 4,2 C 93 % 1019,9 hPa 0,0 mm 0,2 km/h (0 Bft) NO 40 0 min 0,000 mm 0,0 UV-I 0 W/m 3,2 C 1,6 km/h (1 Bft)
10.10.2016 23:15 4,2 C 4,2 C 93 % 1019,8 hPa 0,0 mm 0,4 km/h (0 Bft) NO 40 0 min 0,000 mm 0,0 UV-I 0 W/m 3,2 C 1,6 km/h (1 Bft)
10.10.2016 23:16 4,2 C 4,2 C 93 % 1019,9 hPa 0,0 mm 0,3 km/h (0 Bft) NO 40 0 min 0,000 mm 0,0 UV-I 0 W/m 3,2 C 1,6 km/h (1 Bft)
10.10.2016 23:17 4,2 C 4,2 C 93 % 1019,8 hPa 0,0 mm 0,4 km/h (0 Bft) NO 40 0 min 0,000 mm 0,0 UV-I 0 W/m 3,2 C 1,6 km/h (1 Bft)
10.10.2016 23:18 4,2 C 4,2 C 93 % 1019,8 hPa 0,0 mm 0,3 km/h (0 Bft) NO 40 0 min 0,000 mm 0,0 UV-I 0 W/m 3,2 C 1,6 km/h (1 Bft)
10.10.2016 23:19 4,2 C 4,2 C 93 % 1019,8 hPa 0,0 mm 1,4 km/h (1 Bft) NO 40 0 min 0,000 mm 0,0 UV-I 0 W/m 3,2 C 3,2 km/h (1 Bft)
10.10.2016 23:20 4,2 C 4,2 C 93 % 1019,7 hPa 0,0 mm 3,4 km/h (1 Bft) NO 40 0 min 0,000 mm 0,0 UV-I 0 W/m 3,2 C 4,8 km/h (1 Bft)
10.10.2016 23:21 4,2 C 4,2 C 93 % 1019,8 hPa 0,0 mm 1,9 km/h (1 Bft) O-NO 60 0 min 0,000 mm 0,0 UV-I 0 W/m 3,2 C 3,2 km/h (1 Bft)
10.10.2016 23:22 4,2 C 4,2 C 93 % 1019,8 hPa 0,0 mm 1,5 km/h (1 Bft) O-NO 60 0 min 0,000 mm 0,0 UV-I 0 W/m 3,2 C 1,6 km/h (1 Bft)
10.10.2016 23:23 4,2 C 4,2 C 93 % 1019,7 hPa 0,0 mm 2,8 km/h (1 Bft) O-NO 60 0 min 0,000 mm 0,0 UV-I 0 W/m 3,2 C 4,8 km/h (1 Bft)
10.10.2016 23:24 4,2 C 4,2 C 93 % 1019,8 hPa 0,0 mm 0,8 km/h (0 Bft) O-NO 60 0 min 0,000 mm 0,0 UV-I 0 W/m 3,2 C 1,6 km/h (1 Bft)
10.10.2016 23:25 4,2 C 4,2 C 93 % 1019,8 hPa 0,0 mm 2,6 km/h (1 Bft) O-NO 60 0 min 0,000 mm 0,0 UV-I 0 W/m 3,2 C 3,2 km/h (1 Bft)
10.10.2016 23:26 4,2 C 4,2 C 93 % 1019,7 hPa 0,0 mm 3,6 km/h (1 Bft) O-NO 60 0 min 0,000 mm 0,0 UV-I 0 W/m 3,2 C 4,8 km/h (1 Bft)
10.10.2016 23:27 4,2 C 4,2 C 93 % 1019,7 hPa 0,0 mm 3,0 km/h (1 Bft) O-NO 60 0 min 0,000 mm 0,0 UV-I 0 W/m 3,2 C 3,2 km/h (1 Bft)
10.10.2016 23:28 4,2 C 4,2 C 93 % 1019,7 hPa 0,0 mm 1,6 km/h (1 Bft) O-NO 60 0 min 0,000 mm 0,0 UV-I 0 W/m 3,2 C 3,2 km/h (1 Bft)
10.10.2016 23:29 4,2 C 4,2 C 93 % 1019,7 hPa 0,0 mm 1,6 km/h (1 Bft) O-NO 60 0 min 0,000 mm 0,0 UV-I 0 W/m 3,2 C 3,2 km/h (1 Bft)
10.10.2016 23:30 4,2 C 4,2 C 93 % 1019,6 hPa 0,0 mm 1,9 km/h (1 Bft) O-NO 60 0 min 0,000 mm 0,0 UV-I 0 W/m 3,2 C 3,2 km/h (1 Bft)
10.10.2016 23:31 4,2 C 4,2 C 93 % 1019,7 hPa 0,0 mm 2,5 km/h (1 Bft) O-NO 59 0 min 0,000 mm 0,0 UV-I 0 W/m 3,2 C 4,8 km/h (1 Bft)
10.10.2016 23:32 4,2 C 4,2 C 93 % 1019,6 hPa 0,0 mm 3,0 km/h (1 Bft) O-NO 60 0 min 0,000 mm 0,0 UV-I 0 W/m 3,2 C 4,8 km/h (1 Bft)
10.10.2016 23:33 4,2 C 4,2 C 93 % 1019,6 hPa 0,0 mm 2,4 km/h (1 Bft) O-NO 60 0 min 0,000 mm 0,0 UV-I 0 W/m 3,2 C 3,2 km/h (1 Bft)
10.10.2016 23:34 4,2 C 4,2 C 93 % 1019,6 hPa 0,0 mm 3,0 km/h (1 Bft) O-NO 62 0 min 0,000 mm 0,0 UV-I 0 W/m 3,2 C 6,4 km/h (2 Bft)
10.10.2016 23:35 4,2 C 4,2 C 94 % 1019,7 hPa 0,0 mm 3,0 km/h (1 Bft) O-NO 62 0 min 0,000 mm 0,0 UV-I 0 W/m 3,3 C 4,8 km/h (1 Bft)
10.10.2016 23:36 4,2 C 4,2 C 93 % 1019,7 hPa 0,0 mm 2,0 km/h (1 Bft) O-NO 62 0 min 0,000 mm 0,0 UV-I 0 W/m 3,2 C 3,2 km/h (1 Bft)
10.10.2016 23:37 4,2 C 4,2 C 93 % 1019,6 hPa 0,0 mm 0,1 km/h (0 Bft) O-NO 62 0 min 0,000 mm 0,0 UV-I 0 W/m 3,2 C 1,6 km/h (1 Bft)
10.10.2016 23:38 4,2 C 4,2 C 93 % 1019,6 hPa 0,0 mm 0,5 km/h (0 Bft) O-NO 62 0 min 0,000 mm 0,0 UV-I 0 W/m 3,2 C 1,6 km/h (1 Bft)
10.10.2016 23:39 4,1 C 4,2 C 93 % 1019,6 hPa 0,0 mm 1,3 km/h (1 Bft) O-NO 62 0 min 0,000 mm 0,0 UV-I 0 W/m 3,1 C 3,2 km/h (1 Bft)
10.10.2016 23:40 4,1 C 4,2 C 93 % 1019,6 hPa 0,0 mm 1,3 km/h (1 Bft) O-NO 62 0 min 0,000 mm 0,0 UV-I 0 W/m 3,1 C 1,6 km/h (1 Bft)
10.10.2016 23:41 4,2 C 4,2 C 93 % 1019,6 hPa 0,0 mm 3,6 km/h (1 Bft) O-NO 62 0 min 0,000 mm 0,0 UV-I 0 W/m 3,2 C 4,8 km/h (1 Bft)
10.10.2016 23:42 4,1 C 4,2 C 93 % 1019,6 hPa 0,0 mm 1,7 km/h (1 Bft) O-NO 62 0 min 0,000 mm 0,0 UV-I 0 W/m 3,1 C 3,2 km/h (1 Bft)
10.10.2016 23:43 4,1 C 4,1 C 93 % 1019,6 hPa 0,0 mm 2,6 km/h (1 Bft) O-NO 62 0 min 0,000 mm 0,0 UV-I 0 W/m 3,1 C 3,2 km/h (1 Bft)
10.10.2016 23:44 4,1 C 4,1 C 93 % 1019,6 hPa 0,0 mm 2,6 km/h (1 Bft) O-NO 62 0 min 0,000 mm 0,0 UV-I 0 W/m 3,1 C 3,2 km/h (1 Bft)
10.10.2016 23:45 4,1 C 4,1 C 93 % 1019,6 hPa 0,0 mm 2,3 km/h (1 Bft) O-NO 62 0 min 0,000 mm 0,0 UV-I 0 W/m 3,1 C 3,2 km/h (1 Bft)
10.10.2016 23:46 4,1 C 4,2 C 94 % 1019,5 hPa 0,0 mm 1,4 km/h (1 Bft) O-NO 62 0 min 0,000 mm 0,0 UV-I 0 W/m 3,2 C 3,2 km/h (1 Bft)
10.10.2016 23:47 4,1 C 4,2 C 94 % 1019,6 hPa 0,0 mm 3,0 km/h (1 Bft) O-NO 62 0 min 0,000 mm 0,0 UV-I 0 W/m 3,2 C 4,8 km/h (1 Bft)
10.10.2016 23:48 4,1 C 4,2 C 93 % 1019,5 hPa 0,0 mm 2,0 km/h (1 Bft) O-NO 62 0 min 0,000 mm 0,0 UV-I 0 W/m 3,1 C 4,8 km/h (1 Bft)
10.10.2016 23:49 4,1 C 4,2 C 93 % 1019,6 hPa 0,0 mm 1,8 km/h (1 Bft) O-NO 62 0 min 0,000 mm 0,0 UV-I 0 W/m 3,1 C 3,2 km/h (1 Bft)
10.10.2016 23:50 4,1 C 4,2 C 93 % 1019,5 hPa 0,0 mm 0,3 km/h (0 Bft) O-NO 62 0 min 0,000 mm 0,0 UV-I 0 W/m 3,1 C 1,6 km/h (1 Bft)
10.10.2016 23:51 4,2 C 4,2 C 93 % 1019,5 hPa 0,0 mm 1,2 km/h (1 Bft) O-NO 62 0 min 0,000 mm 0,0 UV-I 0 W/m 3,2 C 3,2 km/h (1 Bft)
10.10.2016 23:52 4,1 C 4,2 C 93 % 1019,5 hPa 0,0 mm 0,0 km/h (0 Bft) O-NO 62 0 min 0,000 mm 0,0 UV-I 0 W/m 3,1 C 0,0 km/h (0 Bft)
10.10.2016 23:53 4,1 C 4,1 C 93 % 1019,5 hPa 0,0 mm 0,0 km/h (0 Bft) O-NO 62 0 min 0,000 mm 0,0 UV-I 0 W/m 3,1 C 0,0 km/h (0 Bft)
10.10.2016 23:54 4,1 C 4,1 C 93 % 1019,5 hPa 0,0 mm 0,0 km/h (0 Bft) O-NO 62 0 min 0,000 mm 0,0 UV-I 0 W/m 3,1 C 0,0 km/h (0 Bft)
10.10.2016 23:55 4,2 C 4,2 C 93 % 1019,5 hPa 0,0 mm 0,7 km/h (0 Bft) O-NO 62 0 min 0,000 mm 0,0 UV-I 0 W/m 3,2 C 3,2 km/h (1 Bft)
10.10.2016 23:56 4,1 C 4,2 C 93 % 1019,6 hPa 0,0 mm 3,6 km/h (1 Bft) O-NO 62 0 min 0,000 mm 0,0 UV-I 0 W/m 3,1 C 4,8 km/h (1 Bft)
10.10.2016 23:57 4,2 C 4,2 C 93 % 1019,5 hPa 0,0 mm 3,5 km/h (1 Bft) O-NO 62 0 min 0,000 mm 0,0 UV-I 0 W/m 3,2 C 4,8 km/h (1 Bft)
10.10.2016 23:58 4,1 C 4,2 C 93 % 1019,5 hPa 0,0 mm 5,8 km/h (2 Bft) O-NO 69 0 min 0,000 mm 0,0 UV-I 0 W/m 3,1 C 8,0 km/h (2 Bft)
10.10.2016 23:59 4,2 C 4,2 C 93 % 1019,5 hPa 0,0 mm 4,7 km/h (1 Bft) O-NO 69 0 min 0,000 mm 0,0 UV-I 0 W/m 3,2 C 6,4 km/h (2 Bft)
_ Min-Zeit 04:32 05:36 14:31 23:59 - 23:54 - - - - - - 05:37 23:54
Minimum _ -0,8 C -0,7 C 78 % 1019,5 hPa - 0,0 km/h (0 Bft) - - - - - - -1,4 C 0,0 km/h (0 Bft)
_ Max-Zeit 15:09 15:11 10:36 01:31 23:59 14:16 - - 13:17 14:01 13:16 13:17 13:18 15:28
Maximum _ 6,7 C 6,7 C 97 % 1023,9 hPa 0,0 mm 10,0 km/h
O-NO (2 Bft)
- - 1 min 0,127 mm 3,3 UV-I 705 W/m 4,1 C 14,5 km/h
NO (3 Bft)
Durchschnitt _ 3,4 C 3,5 C 91 % 1022,0 hPa #0,0 mm 1,7 km/h (1 Bft) O-NO - #9 min. #0,584 mm 1,2 UV-I 52 W/m 2,1 C 2,8 km/h (1 Bft)